<?xml version="1.0" encoding="UTF-8" standalone="no" ?>
<gpx xmlns="http://www.topografix.com/GPX/1/1" xmlns:xsi="http://www.w3.org/2001/XMLSchema-instance" xsi:schemaLocation="http://www.topografix.com/GPX/1/1 http://www.topografix.com/GPX/1/1/gpx.xsd" version="1.1" creator="VisuGPX - https://www.visugpx.com">
  <metadata>
    <name>Triton 2026 45kms</name>
    <desc><![CDATA[Long parcours VTT]]></desc>
  </metadata>
  <wpt lat="45.37603" lon="5.63827">
    <ele>448.3</ele>
    <name><![CDATA[Ravitaillement]]></name>
    <desc><![CDATA[]]></desc>
  </wpt>
  <wpt lat="45.42491" lon="5.63142">
    <ele>757.3</ele>
    <name><![CDATA[Ravitaillement]]></name>
    <desc><![CDATA[]]></desc>
  </wpt>
  <trk>
    <name><![CDATA[TRITON 2026 -  VTT 45kms-23504114]]></name>
    <trkseg>
      <trkpt lat="45.4128" lon="5.55585">
        <ele>470</ele>
        <time>2026-05-25T09:26:19Z</time>
      </trkpt>
      <trkpt lat="45.41255" lon="5.55585">
        <ele>471</ele>
        <time>2026-05-25T09:26:25Z</time>
      </trkpt>
      <trkpt lat="45.41247" lon="5.55577">
        <ele>471</ele>
        <time>2026-05-25T09:26:27Z</time>
      </trkpt>
      <trkpt lat="45.41222" lon="5.55543">
        <ele>471</ele>
        <time>2026-05-25T09:26:35Z</time>
      </trkpt>
      <trkpt lat="45.41201" lon="5.55526">
        <ele>471</ele>
        <time>2026-05-25T09:26:41Z</time>
      </trkpt>
      <trkpt lat="45.412" lon="5.55524">
        <ele>471</ele>
        <time>2026-05-25T09:26:41Z</time>
      </trkpt>
      <trkpt lat="45.41168" lon="5.55567">
        <ele>472</ele>
        <time>2026-05-25T09:26:52Z</time>
      </trkpt>
      <trkpt lat="45.41165" lon="5.55572">
        <ele>472</ele>
        <time>2026-05-25T09:26:53Z</time>
      </trkpt>
      <trkpt lat="45.41148" lon="5.5555">
        <ele>472</ele>
        <time>2026-05-25T09:26:58Z</time>
      </trkpt>
      <trkpt lat="45.41135" lon="5.55535">
        <ele>471</ele>
        <time>2026-05-25T09:27:02Z</time>
      </trkpt>
      <trkpt lat="45.4113" lon="5.55543">
        <ele>472</ele>
        <time>2026-05-25T09:27:04Z</time>
      </trkpt>
      <trkpt lat="45.41129" lon="5.55545">
        <ele>472</ele>
        <time>2026-05-25T09:27:04Z</time>
      </trkpt>
      <trkpt lat="45.41129" lon="5.55545">
        <ele>472</ele>
        <time>2026-05-25T09:27:04Z</time>
      </trkpt>
      <trkpt lat="45.41048" lon="5.55652">
        <ele>474</ele>
        <time>2026-05-25T09:27:30Z</time>
      </trkpt>
      <trkpt lat="45.41025" lon="5.55683">
        <ele>476</ele>
        <time>2026-05-25T09:27:37Z</time>
      </trkpt>
      <trkpt lat="45.41028" lon="5.5569">
        <ele>476</ele>
        <time>2026-05-25T09:27:39Z</time>
      </trkpt>
      <trkpt lat="45.41036" lon="5.55698">
        <ele>476</ele>
        <time>2026-05-25T09:27:41Z</time>
      </trkpt>
      <trkpt lat="45.41033" lon="5.55709">
        <ele>477</ele>
        <time>2026-05-25T09:27:43Z</time>
      </trkpt>
      <trkpt lat="45.41039" lon="5.55713">
        <ele>477</ele>
        <time>2026-05-25T09:27:44Z</time>
      </trkpt>
      <trkpt lat="45.41035" lon="5.55725">
        <ele>477</ele>
        <time>2026-05-25T09:27:46Z</time>
      </trkpt>
      <trkpt lat="45.41032" lon="5.5573">
        <ele>478</ele>
        <time>2026-05-25T09:27:48Z</time>
      </trkpt>
      <trkpt lat="45.41076" lon="5.55831">
        <ele>479</ele>
        <time>2026-05-25T09:28:07Z</time>
      </trkpt>
      <trkpt lat="45.41057" lon="5.55881">
        <ele>481</ele>
        <time>2026-05-25T09:28:16Z</time>
      </trkpt>
      <trkpt lat="45.41036" lon="5.5591">
        <ele>482</ele>
        <time>2026-05-25T09:28:23Z</time>
      </trkpt>
      <trkpt lat="45.40981" lon="5.55961">
        <ele>482</ele>
        <time>2026-05-25T09:28:39Z</time>
      </trkpt>
      <trkpt lat="45.40963" lon="5.5601">
        <ele>480</ele>
        <time>2026-05-25T09:28:48Z</time>
      </trkpt>
      <trkpt lat="45.40966" lon="5.56044">
        <ele>480</ele>
        <time>2026-05-25T09:28:53Z</time>
      </trkpt>
      <trkpt lat="45.40952" lon="5.56058">
        <ele>479</ele>
        <time>2026-05-25T09:28:57Z</time>
      </trkpt>
      <trkpt lat="45.40956" lon="5.56066">
        <ele>479</ele>
        <time>2026-05-25T09:28:59Z</time>
      </trkpt>
      <trkpt lat="45.40962" lon="5.56087">
        <ele>479</ele>
        <time>2026-05-25T09:29:03Z</time>
      </trkpt>
      <trkpt lat="45.40958" lon="5.56117">
        <ele>482</ele>
        <time>2026-05-25T09:29:08Z</time>
      </trkpt>
      <trkpt lat="45.40962" lon="5.56133">
        <ele>483</ele>
        <time>2026-05-25T09:29:10Z</time>
      </trkpt>
      <trkpt lat="45.4097" lon="5.56153">
        <ele>485</ele>
        <time>2026-05-25T09:29:14Z</time>
      </trkpt>
      <trkpt lat="45.40987" lon="5.56188">
        <ele>487</ele>
        <time>2026-05-25T09:29:21Z</time>
      </trkpt>
      <trkpt lat="45.40988" lon="5.56191">
        <ele>487</ele>
        <time>2026-05-25T09:29:22Z</time>
      </trkpt>
      <trkpt lat="45.40985" lon="5.56194">
        <ele>487</ele>
        <time>2026-05-25T09:29:22Z</time>
      </trkpt>
      <trkpt lat="45.40982" lon="5.56196">
        <ele>487</ele>
        <time>2026-05-25T09:29:23Z</time>
      </trkpt>
      <trkpt lat="45.40966" lon="5.56165">
        <ele>486</ele>
        <time>2026-05-25T09:29:30Z</time>
      </trkpt>
      <trkpt lat="45.40958" lon="5.56162">
        <ele>486</ele>
        <time>2026-05-25T09:29:32Z</time>
      </trkpt>
      <trkpt lat="45.40907" lon="5.56215">
        <ele>489</ele>
        <time>2026-05-25T09:29:46Z</time>
      </trkpt>
      <trkpt lat="45.40904" lon="5.56219">
        <ele>489</ele>
        <time>2026-05-25T09:29:47Z</time>
      </trkpt>
      <trkpt lat="45.40891" lon="5.56217">
        <ele>488</ele>
        <time>2026-05-25T09:29:50Z</time>
      </trkpt>
      <trkpt lat="45.40888" lon="5.56218">
        <ele>488</ele>
        <time>2026-05-25T09:29:51Z</time>
      </trkpt>
      <trkpt lat="45.4085" lon="5.56276">
        <ele>490</ele>
        <time>2026-05-25T09:30:04Z</time>
      </trkpt>
      <trkpt lat="45.40837" lon="5.56305">
        <ele>490</ele>
        <time>2026-05-25T09:30:10Z</time>
      </trkpt>
      <trkpt lat="45.40748" lon="5.56448">
        <ele>492</ele>
        <time>2026-05-25T09:30:41Z</time>
      </trkpt>
      <trkpt lat="45.40739" lon="5.56453">
        <ele>492</ele>
        <time>2026-05-25T09:30:43Z</time>
      </trkpt>
      <trkpt lat="45.40718" lon="5.56501">
        <ele>493</ele>
        <time>2026-05-25T09:30:52Z</time>
      </trkpt>
      <trkpt lat="45.40699" lon="5.5656">
        <ele>493</ele>
        <time>2026-05-25T09:31:03Z</time>
      </trkpt>
      <trkpt lat="45.40695" lon="5.56607">
        <ele>494</ele>
        <time>2026-05-25T09:31:11Z</time>
      </trkpt>
      <trkpt lat="45.40695" lon="5.56675">
        <ele>497</ele>
        <time>2026-05-25T09:31:22Z</time>
      </trkpt>
      <trkpt lat="45.40694" lon="5.56715">
        <ele>501</ele>
        <time>2026-05-25T09:31:29Z</time>
      </trkpt>
      <trkpt lat="45.40679" lon="5.56754">
        <ele>504</ele>
        <time>2026-05-25T09:31:36Z</time>
      </trkpt>
      <trkpt lat="45.40644" lon="5.56827">
        <ele>511</ele>
        <time>2026-05-25T09:31:50Z</time>
      </trkpt>
      <trkpt lat="45.40639" lon="5.56837">
        <ele>511</ele>
        <time>2026-05-25T09:31:52Z</time>
      </trkpt>
      <trkpt lat="45.40627" lon="5.5687">
        <ele>514</ele>
        <time>2026-05-25T09:31:58Z</time>
      </trkpt>
      <trkpt lat="45.40619" lon="5.56877">
        <ele>513</ele>
        <time>2026-05-25T09:32:01Z</time>
      </trkpt>
      <trkpt lat="45.40608" lon="5.56897">
        <ele>513</ele>
        <time>2026-05-25T09:32:05Z</time>
      </trkpt>
      <trkpt lat="45.40606" lon="5.56899">
        <ele>513</ele>
        <time>2026-05-25T09:32:05Z</time>
      </trkpt>
      <trkpt lat="45.40579" lon="5.56934">
        <ele>512</ele>
        <time>2026-05-25T09:32:14Z</time>
      </trkpt>
      <trkpt lat="45.40548" lon="5.56965">
        <ele>514</ele>
        <time>2026-05-25T09:32:23Z</time>
      </trkpt>
      <trkpt lat="45.4052" lon="5.56998">
        <ele>514</ele>
        <time>2026-05-25T09:32:31Z</time>
      </trkpt>
      <trkpt lat="45.40509" lon="5.57009">
        <ele>514</ele>
        <time>2026-05-25T09:32:34Z</time>
      </trkpt>
      <trkpt lat="45.40497" lon="5.57022">
        <ele>513</ele>
        <time>2026-05-25T09:32:38Z</time>
      </trkpt>
      <trkpt lat="45.40401" lon="5.57103">
        <ele>506</ele>
        <time>2026-05-25T09:33:04Z</time>
      </trkpt>
      <trkpt lat="45.40366" lon="5.57143">
        <ele>505</ele>
        <time>2026-05-25T09:33:14Z</time>
      </trkpt>
      <trkpt lat="45.40327" lon="5.57196">
        <ele>503</ele>
        <time>2026-05-25T09:33:27Z</time>
      </trkpt>
      <trkpt lat="45.40304" lon="5.57226">
        <ele>503</ele>
        <time>2026-05-25T09:33:34Z</time>
      </trkpt>
      <trkpt lat="45.40248" lon="5.57377">
        <ele>503</ele>
        <time>2026-05-25T09:34:02Z</time>
      </trkpt>
      <trkpt lat="45.40212" lon="5.57469">
        <ele>506</ele>
        <time>2026-05-25T09:34:20Z</time>
      </trkpt>
      <trkpt lat="45.40189" lon="5.57534">
        <ele>507</ele>
        <time>2026-05-25T09:34:32Z</time>
      </trkpt>
      <trkpt lat="45.40167" lon="5.57585">
        <ele>505</ele>
        <time>2026-05-25T09:34:41Z</time>
      </trkpt>
      <trkpt lat="45.40148" lon="5.57637">
        <ele>506</ele>
        <time>2026-05-25T09:34:51Z</time>
      </trkpt>
      <trkpt lat="45.40144" lon="5.57688">
        <ele>509</ele>
        <time>2026-05-25T09:34:59Z</time>
      </trkpt>
      <trkpt lat="45.40095" lon="5.57813">
        <ele>505</ele>
        <time>2026-05-25T09:35:23Z</time>
      </trkpt>
      <trkpt lat="45.40071" lon="5.57863">
        <ele>503</ele>
        <time>2026-05-25T09:35:33Z</time>
      </trkpt>
      <trkpt lat="45.40048" lon="5.57907">
        <ele>503</ele>
        <time>2026-05-25T09:35:42Z</time>
      </trkpt>
      <trkpt lat="45.4004" lon="5.57932">
        <ele>504</ele>
        <time>2026-05-25T09:35:46Z</time>
      </trkpt>
      <trkpt lat="45.40032" lon="5.5795">
        <ele>504</ele>
        <time>2026-05-25T09:35:50Z</time>
      </trkpt>
      <trkpt lat="45.40004" lon="5.5805">
        <ele>504</ele>
        <time>2026-05-25T09:36:07Z</time>
      </trkpt>
      <trkpt lat="45.39993" lon="5.58098">
        <ele>503</ele>
        <time>2026-05-25T09:36:16Z</time>
      </trkpt>
      <trkpt lat="45.3999" lon="5.58099">
        <ele>503</ele>
        <time>2026-05-25T09:36:16Z</time>
      </trkpt>
      <trkpt lat="45.3994" lon="5.58116">
        <ele>502</ele>
        <time>2026-05-25T09:36:28Z</time>
      </trkpt>
      <trkpt lat="45.3992" lon="5.58116">
        <ele>501</ele>
        <time>2026-05-25T09:36:33Z</time>
      </trkpt>
      <trkpt lat="45.39898" lon="5.5811">
        <ele>502</ele>
        <time>2026-05-25T09:36:38Z</time>
      </trkpt>
      <trkpt lat="45.39878" lon="5.58102">
        <ele>502</ele>
        <time>2026-05-25T09:36:43Z</time>
      </trkpt>
      <trkpt lat="45.39874" lon="5.581">
        <ele>502</ele>
        <time>2026-05-25T09:36:44Z</time>
      </trkpt>
      <trkpt lat="45.39853" lon="5.58088">
        <ele>503</ele>
        <time>2026-05-25T09:36:49Z</time>
      </trkpt>
      <trkpt lat="45.39837" lon="5.58077">
        <ele>503</ele>
        <time>2026-05-25T09:36:54Z</time>
      </trkpt>
      <trkpt lat="45.39824" lon="5.58065">
        <ele>503</ele>
        <time>2026-05-25T09:36:57Z</time>
      </trkpt>
      <trkpt lat="45.39804" lon="5.5806">
        <ele>504</ele>
        <time>2026-05-25T09:37:02Z</time>
      </trkpt>
      <trkpt lat="45.39754" lon="5.58065">
        <ele>507</ele>
        <time>2026-05-25T09:37:14Z</time>
      </trkpt>
      <trkpt lat="45.39732" lon="5.58062">
        <ele>509</ele>
        <time>2026-05-25T09:37:19Z</time>
      </trkpt>
      <trkpt lat="45.39714" lon="5.58053">
        <ele>511</ele>
        <time>2026-05-25T09:37:23Z</time>
      </trkpt>
      <trkpt lat="45.3969" lon="5.58036">
        <ele>514</ele>
        <time>2026-05-25T09:37:30Z</time>
      </trkpt>
      <trkpt lat="45.39675" lon="5.58023">
        <ele>515</ele>
        <time>2026-05-25T09:37:34Z</time>
      </trkpt>
      <trkpt lat="45.3966" lon="5.58012">
        <ele>515</ele>
        <time>2026-05-25T09:37:38Z</time>
      </trkpt>
      <trkpt lat="45.39649" lon="5.58007">
        <ele>516</ele>
        <time>2026-05-25T09:37:40Z</time>
      </trkpt>
      <trkpt lat="45.3963" lon="5.58002">
        <ele>518</ele>
        <time>2026-05-25T09:37:45Z</time>
      </trkpt>
      <trkpt lat="45.39616" lon="5.58">
        <ele>519</ele>
        <time>2026-05-25T09:37:48Z</time>
      </trkpt>
      <trkpt lat="45.39582" lon="5.58009">
        <ele>523</ele>
        <time>2026-05-25T09:37:56Z</time>
      </trkpt>
      <trkpt lat="45.39565" lon="5.58023">
        <ele>524</ele>
        <time>2026-05-25T09:38:01Z</time>
      </trkpt>
      <trkpt lat="45.3954" lon="5.58041">
        <ele>524</ele>
        <time>2026-05-25T09:38:07Z</time>
      </trkpt>
      <trkpt lat="45.39529" lon="5.58063">
        <ele>524</ele>
        <time>2026-05-25T09:38:12Z</time>
      </trkpt>
      <trkpt lat="45.39526" lon="5.58087">
        <ele>525</ele>
        <time>2026-05-25T09:38:16Z</time>
      </trkpt>
      <trkpt lat="45.39521" lon="5.58098">
        <ele>525</ele>
        <time>2026-05-25T09:38:18Z</time>
      </trkpt>
      <trkpt lat="45.39516" lon="5.58112">
        <ele>526</ele>
        <time>2026-05-25T09:38:20Z</time>
      </trkpt>
      <trkpt lat="45.39514" lon="5.58157">
        <ele>530</ele>
        <time>2026-05-25T09:38:28Z</time>
      </trkpt>
      <trkpt lat="45.39513" lon="5.58224">
        <ele>531</ele>
        <time>2026-05-25T09:38:39Z</time>
      </trkpt>
      <trkpt lat="45.39504" lon="5.58267">
        <ele>531</ele>
        <time>2026-05-25T09:38:46Z</time>
      </trkpt>
      <trkpt lat="45.39483" lon="5.58299">
        <ele>531</ele>
        <time>2026-05-25T09:38:53Z</time>
      </trkpt>
      <trkpt lat="45.39453" lon="5.58339">
        <ele>535</ele>
        <time>2026-05-25T09:39:03Z</time>
      </trkpt>
      <trkpt lat="45.39444" lon="5.58361">
        <ele>538</ele>
        <time>2026-05-25T09:39:07Z</time>
      </trkpt>
      <trkpt lat="45.39413" lon="5.58395">
        <ele>545</ele>
        <time>2026-05-25T09:39:16Z</time>
      </trkpt>
      <trkpt lat="45.39392" lon="5.58446">
        <ele>549</ele>
        <time>2026-05-25T09:39:26Z</time>
      </trkpt>
      <trkpt lat="45.39352" lon="5.58545">
        <ele>552</ele>
        <time>2026-05-25T09:39:45Z</time>
      </trkpt>
      <trkpt lat="45.39317" lon="5.58593">
        <ele>551</ele>
        <time>2026-05-25T09:39:56Z</time>
      </trkpt>
      <trkpt lat="45.39296" lon="5.58653">
        <ele>549</ele>
        <time>2026-05-25T09:40:07Z</time>
      </trkpt>
      <trkpt lat="45.39255" lon="5.58687">
        <ele>550</ele>
        <time>2026-05-25T09:40:18Z</time>
      </trkpt>
      <trkpt lat="45.39231" lon="5.5869">
        <ele>547</ele>
        <time>2026-05-25T09:40:24Z</time>
      </trkpt>
      <trkpt lat="45.39187" lon="5.58727">
        <ele>544</ele>
        <time>2026-05-25T09:40:36Z</time>
      </trkpt>
      <trkpt lat="45.39146" lon="5.5875">
        <ele>546</ele>
        <time>2026-05-25T09:40:46Z</time>
      </trkpt>
      <trkpt lat="45.39133" lon="5.58762">
        <ele>545</ele>
        <time>2026-05-25T09:40:50Z</time>
      </trkpt>
      <trkpt lat="45.39131" lon="5.58765">
        <ele>545</ele>
        <time>2026-05-25T09:40:50Z</time>
      </trkpt>
      <trkpt lat="45.39127" lon="5.58771">
        <ele>545</ele>
        <time>2026-05-25T09:40:52Z</time>
      </trkpt>
      <trkpt lat="45.39126" lon="5.5878">
        <ele>545</ele>
        <time>2026-05-25T09:40:53Z</time>
      </trkpt>
      <trkpt lat="45.39134" lon="5.58791">
        <ele>545</ele>
        <time>2026-05-25T09:40:56Z</time>
      </trkpt>
      <trkpt lat="45.39139" lon="5.58807">
        <ele>544</ele>
        <time>2026-05-25T09:40:59Z</time>
      </trkpt>
      <trkpt lat="45.39142" lon="5.58819">
        <ele>544</ele>
        <time>2026-05-25T09:41:01Z</time>
      </trkpt>
      <trkpt lat="45.39135" lon="5.58831">
        <ele>544</ele>
        <time>2026-05-25T09:41:03Z</time>
      </trkpt>
      <trkpt lat="45.39204" lon="5.58808">
        <ele>542</ele>
        <time>2026-05-25T09:41:20Z</time>
      </trkpt>
      <trkpt lat="45.39251" lon="5.58791">
        <ele>542</ele>
        <time>2026-05-25T09:41:31Z</time>
      </trkpt>
      <trkpt lat="45.39277" lon="5.58799">
        <ele>542</ele>
        <time>2026-05-25T09:41:37Z</time>
      </trkpt>
      <trkpt lat="45.39294" lon="5.58805">
        <ele>542</ele>
        <time>2026-05-25T09:41:41Z</time>
      </trkpt>
      <trkpt lat="45.39276" lon="5.58834">
        <ele>542</ele>
        <time>2026-05-25T09:41:48Z</time>
      </trkpt>
      <trkpt lat="45.39267" lon="5.58858">
        <ele>545</ele>
        <time>2026-05-25T09:41:52Z</time>
      </trkpt>
      <trkpt lat="45.39265" lon="5.58882">
        <ele>549</ele>
        <time>2026-05-25T09:41:56Z</time>
      </trkpt>
      <trkpt lat="45.39259" lon="5.58901">
        <ele>552</ele>
        <time>2026-05-25T09:42:00Z</time>
      </trkpt>
      <trkpt lat="45.39249" lon="5.58918">
        <ele>554</ele>
        <time>2026-05-25T09:42:03Z</time>
      </trkpt>
      <trkpt lat="45.39248" lon="5.58932">
        <ele>557</ele>
        <time>2026-05-25T09:42:06Z</time>
      </trkpt>
      <trkpt lat="45.39261" lon="5.58938">
        <ele>558</ele>
        <time>2026-05-25T09:42:09Z</time>
      </trkpt>
      <trkpt lat="45.39289" lon="5.58969">
        <ele>559</ele>
        <time>2026-05-25T09:42:17Z</time>
      </trkpt>
      <trkpt lat="45.39305" lon="5.5899">
        <ele>558</ele>
        <time>2026-05-25T09:42:22Z</time>
      </trkpt>
      <trkpt lat="45.39312" lon="5.59008">
        <ele>556</ele>
        <time>2026-05-25T09:42:25Z</time>
      </trkpt>
      <trkpt lat="45.39311" lon="5.59018">
        <ele>555</ele>
        <time>2026-05-25T09:42:27Z</time>
      </trkpt>
      <trkpt lat="45.39376" lon="5.5897">
        <ele>545</ele>
        <time>2026-05-25T09:42:44Z</time>
      </trkpt>
      <trkpt lat="45.39403" lon="5.58951">
        <ele>542</ele>
        <time>2026-05-25T09:42:51Z</time>
      </trkpt>
      <trkpt lat="45.39407" lon="5.58946">
        <ele>543</ele>
        <time>2026-05-25T09:42:53Z</time>
      </trkpt>
      <trkpt lat="45.39425" lon="5.58922">
        <ele>544</ele>
        <time>2026-05-25T09:42:58Z</time>
      </trkpt>
      <trkpt lat="45.3944" lon="5.58895">
        <ele>541</ele>
        <time>2026-05-25T09:43:04Z</time>
      </trkpt>
      <trkpt lat="45.3945" lon="5.58861">
        <ele>541</ele>
        <time>2026-05-25T09:43:10Z</time>
      </trkpt>
      <trkpt lat="45.39458" lon="5.58816">
        <ele>540</ele>
        <time>2026-05-25T09:43:18Z</time>
      </trkpt>
      <trkpt lat="45.39465" lon="5.58812">
        <ele>539</ele>
        <time>2026-05-25T09:43:19Z</time>
      </trkpt>
      <trkpt lat="45.39498" lon="5.58781">
        <ele>533</ele>
        <time>2026-05-25T09:43:29Z</time>
      </trkpt>
      <trkpt lat="45.39537" lon="5.58764">
        <ele>529</ele>
        <time>2026-05-25T09:43:38Z</time>
      </trkpt>
      <trkpt lat="45.39548" lon="5.58743">
        <ele>528</ele>
        <time>2026-05-25T09:43:42Z</time>
      </trkpt>
      <trkpt lat="45.39552" lon="5.58743">
        <ele>527</ele>
        <time>2026-05-25T09:43:43Z</time>
      </trkpt>
      <trkpt lat="45.39554" lon="5.58729">
        <ele>526</ele>
        <time>2026-05-25T09:43:46Z</time>
      </trkpt>
      <trkpt lat="45.39554" lon="5.58682">
        <ele>523</ele>
        <time>2026-05-25T09:43:53Z</time>
      </trkpt>
      <trkpt lat="45.39599" lon="5.58666">
        <ele>520</ele>
        <time>2026-05-25T09:44:04Z</time>
      </trkpt>
      <trkpt lat="45.396" lon="5.58667">
        <ele>520</ele>
        <time>2026-05-25T09:44:05Z</time>
      </trkpt>
      <trkpt lat="45.39626" lon="5.58683">
        <ele>518</ele>
        <time>2026-05-25T09:44:11Z</time>
      </trkpt>
      <trkpt lat="45.39658" lon="5.58727">
        <ele>513</ele>
        <time>2026-05-25T09:44:22Z</time>
      </trkpt>
      <trkpt lat="45.39673" lon="5.58747">
        <ele>510</ele>
        <time>2026-05-25T09:44:26Z</time>
      </trkpt>
      <trkpt lat="45.39686" lon="5.58753">
        <ele>508</ele>
        <time>2026-05-25T09:44:29Z</time>
      </trkpt>
      <trkpt lat="45.39679" lon="5.5876">
        <ele>509</ele>
        <time>2026-05-25T09:44:31Z</time>
      </trkpt>
      <trkpt lat="45.39673" lon="5.58767">
        <ele>509</ele>
        <time>2026-05-25T09:44:33Z</time>
      </trkpt>
      <trkpt lat="45.39634" lon="5.58819">
        <ele>511</ele>
        <time>2026-05-25T09:44:46Z</time>
      </trkpt>
      <trkpt lat="45.39586" lon="5.58857">
        <ele>514</ele>
        <time>2026-05-25T09:44:59Z</time>
      </trkpt>
      <trkpt lat="45.39525" lon="5.58919">
        <ele>518</ele>
        <time>2026-05-25T09:45:16Z</time>
      </trkpt>
      <trkpt lat="45.39475" lon="5.58978">
        <ele>519</ele>
        <time>2026-05-25T09:45:31Z</time>
      </trkpt>
      <trkpt lat="45.39411" lon="5.59075">
        <ele>518</ele>
        <time>2026-05-25T09:45:53Z</time>
      </trkpt>
      <trkpt lat="45.39398" lon="5.59093">
        <ele>520</ele>
        <time>2026-05-25T09:45:57Z</time>
      </trkpt>
      <trkpt lat="45.39366" lon="5.59133">
        <ele>524</ele>
        <time>2026-05-25T09:46:07Z</time>
      </trkpt>
      <trkpt lat="45.39324" lon="5.59187">
        <ele>524</ele>
        <time>2026-05-25T09:46:20Z</time>
      </trkpt>
      <trkpt lat="45.39291" lon="5.59209">
        <ele>527</ele>
        <time>2026-05-25T09:46:29Z</time>
      </trkpt>
      <trkpt lat="45.39302" lon="5.59238">
        <ele>523</ele>
        <time>2026-05-25T09:46:34Z</time>
      </trkpt>
      <trkpt lat="45.39262" lon="5.5929">
        <ele>524</ele>
        <time>2026-05-25T09:46:47Z</time>
      </trkpt>
      <trkpt lat="45.39214" lon="5.5933">
        <ele>522</ele>
        <time>2026-05-25T09:47:00Z</time>
      </trkpt>
      <trkpt lat="45.39134" lon="5.59371">
        <ele>525</ele>
        <time>2026-05-25T09:47:20Z</time>
      </trkpt>
      <trkpt lat="45.39076" lon="5.59412">
        <ele>521</ele>
        <time>2026-05-25T09:47:35Z</time>
      </trkpt>
      <trkpt lat="45.3906" lon="5.59449">
        <ele>524</ele>
        <time>2026-05-25T09:47:42Z</time>
      </trkpt>
      <trkpt lat="45.39048" lon="5.5947">
        <ele>525</ele>
        <time>2026-05-25T09:47:47Z</time>
      </trkpt>
      <trkpt lat="45.3901" lon="5.59469">
        <ele>522</ele>
        <time>2026-05-25T09:47:55Z</time>
      </trkpt>
      <trkpt lat="45.38989" lon="5.59484">
        <ele>521</ele>
        <time>2026-05-25T09:48:01Z</time>
      </trkpt>
      <trkpt lat="45.38962" lon="5.59517">
        <ele>522</ele>
        <time>2026-05-25T09:48:09Z</time>
      </trkpt>
      <trkpt lat="45.38936" lon="5.59533">
        <ele>522</ele>
        <time>2026-05-25T09:48:16Z</time>
      </trkpt>
      <trkpt lat="45.38923" lon="5.59547">
        <ele>522</ele>
        <time>2026-05-25T09:48:20Z</time>
      </trkpt>
      <trkpt lat="45.38903" lon="5.59599">
        <ele>527</ele>
        <time>2026-05-25T09:48:29Z</time>
      </trkpt>
      <trkpt lat="45.38896" lon="5.59607">
        <ele>528</ele>
        <time>2026-05-25T09:48:32Z</time>
      </trkpt>
      <trkpt lat="45.38883" lon="5.59618">
        <ele>529</ele>
        <time>2026-05-25T09:48:35Z</time>
      </trkpt>
      <trkpt lat="45.38857" lon="5.59621">
        <ele>528</ele>
        <time>2026-05-25T09:48:41Z</time>
      </trkpt>
      <trkpt lat="45.38816" lon="5.59617">
        <ele>525</ele>
        <time>2026-05-25T09:48:51Z</time>
      </trkpt>
      <trkpt lat="45.38791" lon="5.59617">
        <ele>523</ele>
        <time>2026-05-25T09:48:57Z</time>
      </trkpt>
      <trkpt lat="45.38767" lon="5.59685">
        <ele>533</ele>
        <time>2026-05-25T09:49:09Z</time>
      </trkpt>
      <trkpt lat="45.38742" lon="5.59727">
        <ele>538</ele>
        <time>2026-05-25T09:49:18Z</time>
      </trkpt>
      <trkpt lat="45.38737" lon="5.59738">
        <ele>539</ele>
        <time>2026-05-25T09:49:20Z</time>
      </trkpt>
      <trkpt lat="45.38721" lon="5.59748">
        <ele>539</ele>
        <time>2026-05-25T09:49:24Z</time>
      </trkpt>
      <trkpt lat="45.38698" lon="5.59784">
        <ele>541</ele>
        <time>2026-05-25T09:49:32Z</time>
      </trkpt>
      <trkpt lat="45.38653" lon="5.5981">
        <ele>539</ele>
        <time>2026-05-25T09:49:44Z</time>
      </trkpt>
      <trkpt lat="45.38629" lon="5.59838">
        <ele>543</ele>
        <time>2026-05-25T09:49:51Z</time>
      </trkpt>
      <trkpt lat="45.38626" lon="5.59847">
        <ele>545</ele>
        <time>2026-05-25T09:49:53Z</time>
      </trkpt>
      <trkpt lat="45.38593" lon="5.59858">
        <ele>548</ele>
        <time>2026-05-25T09:50:00Z</time>
      </trkpt>
      <trkpt lat="45.38571" lon="5.59868">
        <ele>550</ele>
        <time>2026-05-25T09:50:06Z</time>
      </trkpt>
      <trkpt lat="45.38534" lon="5.59879">
        <ele>551</ele>
        <time>2026-05-25T09:50:15Z</time>
      </trkpt>
      <trkpt lat="45.38506" lon="5.59886">
        <ele>552</ele>
        <time>2026-05-25T09:50:21Z</time>
      </trkpt>
      <trkpt lat="45.38477" lon="5.59899">
        <ele>551</ele>
        <time>2026-05-25T09:50:28Z</time>
      </trkpt>
      <trkpt lat="45.38441" lon="5.59923">
        <ele>548</ele>
        <time>2026-05-25T09:50:38Z</time>
      </trkpt>
      <trkpt lat="45.38422" lon="5.59927">
        <ele>546</ele>
        <time>2026-05-25T09:50:42Z</time>
      </trkpt>
      <trkpt lat="45.38416" lon="5.59927">
        <ele>545</ele>
        <time>2026-05-25T09:50:44Z</time>
      </trkpt>
      <trkpt lat="45.38393" lon="5.59922">
        <ele>545</ele>
        <time>2026-05-25T09:50:49Z</time>
      </trkpt>
      <trkpt lat="45.38381" lon="5.59917">
        <ele>545</ele>
        <time>2026-05-25T09:50:52Z</time>
      </trkpt>
      <trkpt lat="45.38373" lon="5.5991">
        <ele>545</ele>
        <time>2026-05-25T09:50:54Z</time>
      </trkpt>
      <trkpt lat="45.38377" lon="5.59899">
        <ele>544</ele>
        <time>2026-05-25T09:50:56Z</time>
      </trkpt>
      <trkpt lat="45.38348" lon="5.59898">
        <ele>545</ele>
        <time>2026-05-25T09:51:03Z</time>
      </trkpt>
      <trkpt lat="45.38336" lon="5.59899">
        <ele>546</ele>
        <time>2026-05-25T09:51:06Z</time>
      </trkpt>
      <trkpt lat="45.38314" lon="5.59906">
        <ele>550</ele>
        <time>2026-05-25T09:51:11Z</time>
      </trkpt>
      <trkpt lat="45.38309" lon="5.59906">
        <ele>551</ele>
        <time>2026-05-25T09:51:12Z</time>
      </trkpt>
      <trkpt lat="45.38279" lon="5.59895">
        <ele>557</ele>
        <time>2026-05-25T09:51:19Z</time>
      </trkpt>
      <trkpt lat="45.38261" lon="5.5988">
        <ele>560</ele>
        <time>2026-05-25T09:51:24Z</time>
      </trkpt>
      <trkpt lat="45.38248" lon="5.59871">
        <ele>562</ele>
        <time>2026-05-25T09:51:28Z</time>
      </trkpt>
      <trkpt lat="45.38233" lon="5.59868">
        <ele>566</ele>
        <time>2026-05-25T09:51:31Z</time>
      </trkpt>
      <trkpt lat="45.38224" lon="5.5987">
        <ele>569</ele>
        <time>2026-05-25T09:51:33Z</time>
      </trkpt>
      <trkpt lat="45.38219" lon="5.59878">
        <ele>571</ele>
        <time>2026-05-25T09:51:35Z</time>
      </trkpt>
      <trkpt lat="45.38214" lon="5.59899">
        <ele>575</ele>
        <time>2026-05-25T09:51:39Z</time>
      </trkpt>
      <trkpt lat="45.38212" lon="5.59905">
        <ele>576</ele>
        <time>2026-05-25T09:51:40Z</time>
      </trkpt>
      <trkpt lat="45.38206" lon="5.59932">
        <ele>581</ele>
        <time>2026-05-25T09:51:44Z</time>
      </trkpt>
      <trkpt lat="45.38195" lon="5.59963">
        <ele>590</ele>
        <time>2026-05-25T09:51:50Z</time>
      </trkpt>
      <trkpt lat="45.38185" lon="5.60004">
        <ele>601</ele>
        <time>2026-05-25T09:51:57Z</time>
      </trkpt>
      <trkpt lat="45.38176" lon="5.60026">
        <ele>607</ele>
        <time>2026-05-25T09:52:01Z</time>
      </trkpt>
      <trkpt lat="45.38173" lon="5.60054">
        <ele>611</ele>
        <time>2026-05-25T09:52:06Z</time>
      </trkpt>
      <trkpt lat="45.38166" lon="5.60093">
        <ele>618</ele>
        <time>2026-05-25T09:52:13Z</time>
      </trkpt>
      <trkpt lat="45.38167" lon="5.60133">
        <ele>623</ele>
        <time>2026-05-25T09:52:19Z</time>
      </trkpt>
      <trkpt lat="45.38169" lon="5.60165">
        <ele>627</ele>
        <time>2026-05-25T09:52:24Z</time>
      </trkpt>
      <trkpt lat="45.38174" lon="5.6018">
        <ele>628</ele>
        <time>2026-05-25T09:52:27Z</time>
      </trkpt>
      <trkpt lat="45.38187" lon="5.60202">
        <ele>627</ele>
        <time>2026-05-25T09:52:32Z</time>
      </trkpt>
      <trkpt lat="45.38189" lon="5.60213">
        <ele>628</ele>
        <time>2026-05-25T09:52:34Z</time>
      </trkpt>
      <trkpt lat="45.38188" lon="5.60222">
        <ele>629</ele>
        <time>2026-05-25T09:52:35Z</time>
      </trkpt>
      <trkpt lat="45.38182" lon="5.60229">
        <ele>632</ele>
        <time>2026-05-25T09:52:37Z</time>
      </trkpt>
      <trkpt lat="45.38163" lon="5.60231">
        <ele>638</ele>
        <time>2026-05-25T09:52:42Z</time>
      </trkpt>
      <trkpt lat="45.38158" lon="5.60233">
        <ele>640</ele>
        <time>2026-05-25T09:52:43Z</time>
      </trkpt>
      <trkpt lat="45.38151" lon="5.60249">
        <ele>644</ele>
        <time>2026-05-25T09:52:46Z</time>
      </trkpt>
      <trkpt lat="45.38131" lon="5.60301">
        <ele>648</ele>
        <time>2026-05-25T09:52:56Z</time>
      </trkpt>
      <trkpt lat="45.38122" lon="5.60316">
        <ele>651</ele>
        <time>2026-05-25T09:52:59Z</time>
      </trkpt>
      <trkpt lat="45.3812" lon="5.60327">
        <ele>651</ele>
        <time>2026-05-25T09:53:01Z</time>
      </trkpt>
      <trkpt lat="45.38121" lon="5.60374">
        <ele>648</ele>
        <time>2026-05-25T09:53:08Z</time>
      </trkpt>
      <trkpt lat="45.38118" lon="5.60427">
        <ele>646</ele>
        <time>2026-05-25T09:53:17Z</time>
      </trkpt>
      <trkpt lat="45.38118" lon="5.60448">
        <ele>645</ele>
        <time>2026-05-25T09:53:21Z</time>
      </trkpt>
      <trkpt lat="45.38115" lon="5.60496">
        <ele>643</ele>
        <time>2026-05-25T09:53:28Z</time>
      </trkpt>
      <trkpt lat="45.38113" lon="5.60519">
        <ele>642</ele>
        <time>2026-05-25T09:53:32Z</time>
      </trkpt>
      <trkpt lat="45.38108" lon="5.60536">
        <ele>643</ele>
        <time>2026-05-25T09:53:35Z</time>
      </trkpt>
      <trkpt lat="45.381" lon="5.60543">
        <ele>645</ele>
        <time>2026-05-25T09:53:37Z</time>
      </trkpt>
      <trkpt lat="45.38083" lon="5.60552">
        <ele>649</ele>
        <time>2026-05-25T09:53:42Z</time>
      </trkpt>
      <trkpt lat="45.3806" lon="5.60556">
        <ele>656</ele>
        <time>2026-05-25T09:53:47Z</time>
      </trkpt>
      <trkpt lat="45.38033" lon="5.60563">
        <ele>663</ele>
        <time>2026-05-25T09:53:54Z</time>
      </trkpt>
      <trkpt lat="45.38019" lon="5.60574">
        <ele>666</ele>
        <time>2026-05-25T09:53:57Z</time>
      </trkpt>
      <trkpt lat="45.38" lon="5.60581">
        <ele>669</ele>
        <time>2026-05-25T09:54:02Z</time>
      </trkpt>
      <trkpt lat="45.37987" lon="5.60591">
        <ele>671</ele>
        <time>2026-05-25T09:54:05Z</time>
      </trkpt>
      <trkpt lat="45.37976" lon="5.60594">
        <ele>674</ele>
        <time>2026-05-25T09:54:08Z</time>
      </trkpt>
      <trkpt lat="45.37969" lon="5.60591">
        <ele>676</ele>
        <time>2026-05-25T09:54:10Z</time>
      </trkpt>
      <trkpt lat="45.37964" lon="5.60584">
        <ele>678</ele>
        <time>2026-05-25T09:54:11Z</time>
      </trkpt>
      <trkpt lat="45.37962" lon="5.60565">
        <ele>682</ele>
        <time>2026-05-25T09:54:14Z</time>
      </trkpt>
      <trkpt lat="45.3796" lon="5.6055">
        <ele>686</ele>
        <time>2026-05-25T09:54:17Z</time>
      </trkpt>
      <trkpt lat="45.3796" lon="5.60482">
        <ele>701</ele>
        <time>2026-05-25T09:54:28Z</time>
      </trkpt>
      <trkpt lat="45.37956" lon="5.60414">
        <ele>713</ele>
        <time>2026-05-25T09:54:39Z</time>
      </trkpt>
      <trkpt lat="45.37947" lon="5.60367">
        <ele>719</ele>
        <time>2026-05-25T09:54:47Z</time>
      </trkpt>
      <trkpt lat="45.37939" lon="5.60337">
        <ele>724</ele>
        <time>2026-05-25T09:54:53Z</time>
      </trkpt>
      <trkpt lat="45.37919" lon="5.60316">
        <ele>732</ele>
        <time>2026-05-25T09:54:58Z</time>
      </trkpt>
      <trkpt lat="45.37896" lon="5.60298">
        <ele>734</ele>
        <time>2026-05-25T09:55:04Z</time>
      </trkpt>
      <trkpt lat="45.37876" lon="5.6029">
        <ele>736</ele>
        <time>2026-05-25T09:55:09Z</time>
      </trkpt>
      <trkpt lat="45.37863" lon="5.60294">
        <ele>737</ele>
        <time>2026-05-25T09:55:12Z</time>
      </trkpt>
      <trkpt lat="45.37845" lon="5.60296">
        <ele>739</ele>
        <time>2026-05-25T09:55:17Z</time>
      </trkpt>
      <trkpt lat="45.37832" lon="5.60271">
        <ele>740</ele>
        <time>2026-05-25T09:55:22Z</time>
      </trkpt>
      <trkpt lat="45.37819" lon="5.60258">
        <ele>739</ele>
        <time>2026-05-25T09:55:25Z</time>
      </trkpt>
      <trkpt lat="45.37809" lon="5.60252">
        <ele>738</ele>
        <time>2026-05-25T09:55:28Z</time>
      </trkpt>
      <trkpt lat="45.37801" lon="5.60249">
        <ele>737</ele>
        <time>2026-05-25T09:55:30Z</time>
      </trkpt>
      <trkpt lat="45.37795" lon="5.60244">
        <ele>736</ele>
        <time>2026-05-25T09:55:32Z</time>
      </trkpt>
      <trkpt lat="45.37776" lon="5.60223">
        <ele>734</ele>
        <time>2026-05-25T09:55:37Z</time>
      </trkpt>
      <trkpt lat="45.37769" lon="5.6022">
        <ele>733</ele>
        <time>2026-05-25T09:55:39Z</time>
      </trkpt>
      <trkpt lat="45.37764" lon="5.60219">
        <ele>733</ele>
        <time>2026-05-25T09:55:40Z</time>
      </trkpt>
      <trkpt lat="45.37756" lon="5.60214">
        <ele>732</ele>
        <time>2026-05-25T09:55:42Z</time>
      </trkpt>
      <trkpt lat="45.37747" lon="5.60198">
        <ele>731</ele>
        <time>2026-05-25T09:55:45Z</time>
      </trkpt>
      <trkpt lat="45.37745" lon="5.60185">
        <ele>731</ele>
        <time>2026-05-25T09:55:48Z</time>
      </trkpt>
      <trkpt lat="45.37736" lon="5.60156">
        <ele>729</ele>
        <time>2026-05-25T09:55:53Z</time>
      </trkpt>
      <trkpt lat="45.37721" lon="5.60145">
        <ele>725</ele>
        <time>2026-05-25T09:55:57Z</time>
      </trkpt>
      <trkpt lat="45.37707" lon="5.60143">
        <ele>722</ele>
        <time>2026-05-25T09:56:00Z</time>
      </trkpt>
      <trkpt lat="45.37704" lon="5.60138">
        <ele>721</ele>
        <time>2026-05-25T09:56:01Z</time>
      </trkpt>
      <trkpt lat="45.37703" lon="5.60122">
        <ele>721</ele>
        <time>2026-05-25T09:56:04Z</time>
      </trkpt>
      <trkpt lat="45.37699" lon="5.60114">
        <ele>720</ele>
        <time>2026-05-25T09:56:05Z</time>
      </trkpt>
      <trkpt lat="45.37699" lon="5.60105">
        <ele>720</ele>
        <time>2026-05-25T09:56:07Z</time>
      </trkpt>
      <trkpt lat="45.37695" lon="5.60096">
        <ele>720</ele>
        <time>2026-05-25T09:56:09Z</time>
      </trkpt>
      <trkpt lat="45.37686" lon="5.60101">
        <ele>718</ele>
        <time>2026-05-25T09:56:11Z</time>
      </trkpt>
      <trkpt lat="45.37674" lon="5.60103">
        <ele>716</ele>
        <time>2026-05-25T09:56:14Z</time>
      </trkpt>
      <trkpt lat="45.37666" lon="5.60108">
        <ele>714</ele>
        <time>2026-05-25T09:56:16Z</time>
      </trkpt>
      <trkpt lat="45.37659" lon="5.60124">
        <ele>710</ele>
        <time>2026-05-25T09:56:19Z</time>
      </trkpt>
      <trkpt lat="45.37652" lon="5.60136">
        <ele>706</ele>
        <time>2026-05-25T09:56:21Z</time>
      </trkpt>
      <trkpt lat="45.37645" lon="5.60147">
        <ele>702</ele>
        <time>2026-05-25T09:56:24Z</time>
      </trkpt>
      <trkpt lat="45.3764" lon="5.60158">
        <ele>699</ele>
        <time>2026-05-25T09:56:26Z</time>
      </trkpt>
      <trkpt lat="45.3764" lon="5.60167">
        <ele>699</ele>
        <time>2026-05-25T09:56:27Z</time>
      </trkpt>
      <trkpt lat="45.37641" lon="5.60182">
        <ele>697</ele>
        <time>2026-05-25T09:56:30Z</time>
      </trkpt>
      <trkpt lat="45.37647" lon="5.60206">
        <ele>697</ele>
        <time>2026-05-25T09:56:34Z</time>
      </trkpt>
      <trkpt lat="45.37647" lon="5.60227">
        <ele>694</ele>
        <time>2026-05-25T09:56:38Z</time>
      </trkpt>
      <trkpt lat="45.37637" lon="5.6026">
        <ele>685</ele>
        <time>2026-05-25T09:56:43Z</time>
      </trkpt>
      <trkpt lat="45.37632" lon="5.60298">
        <ele>678</ele>
        <time>2026-05-25T09:56:50Z</time>
      </trkpt>
      <trkpt lat="45.37631" lon="5.60313">
        <ele>676</ele>
        <time>2026-05-25T09:56:52Z</time>
      </trkpt>
      <trkpt lat="45.37625" lon="5.60342">
        <ele>670</ele>
        <time>2026-05-25T09:56:57Z</time>
      </trkpt>
      <trkpt lat="45.37617" lon="5.6039">
        <ele>663</ele>
        <time>2026-05-25T09:57:05Z</time>
      </trkpt>
      <trkpt lat="45.37595" lon="5.60431">
        <ele>650</ele>
        <time>2026-05-25T09:57:14Z</time>
      </trkpt>
      <trkpt lat="45.37588" lon="5.6044">
        <ele>646</ele>
        <time>2026-05-25T09:57:16Z</time>
      </trkpt>
      <trkpt lat="45.37572" lon="5.6049">
        <ele>636</ele>
        <time>2026-05-25T09:57:25Z</time>
      </trkpt>
      <trkpt lat="45.37568" lon="5.60511">
        <ele>634</ele>
        <time>2026-05-25T09:57:29Z</time>
      </trkpt>
      <trkpt lat="45.37536" lon="5.60562">
        <ele>623</ele>
        <time>2026-05-25T09:57:40Z</time>
      </trkpt>
      <trkpt lat="45.37528" lon="5.60565">
        <ele>620</ele>
        <time>2026-05-25T09:57:42Z</time>
      </trkpt>
      <trkpt lat="45.3752" lon="5.60539">
        <ele>618</ele>
        <time>2026-05-25T09:57:46Z</time>
      </trkpt>
      <trkpt lat="45.37509" lon="5.60505">
        <ele>616</ele>
        <time>2026-05-25T09:57:52Z</time>
      </trkpt>
      <trkpt lat="45.37499" lon="5.60496">
        <ele>614</ele>
        <time>2026-05-25T09:57:55Z</time>
      </trkpt>
      <trkpt lat="45.37479" lon="5.60499">
        <ele>608</ele>
        <time>2026-05-25T09:58:00Z</time>
      </trkpt>
      <trkpt lat="45.37483" lon="5.60515">
        <ele>609</ele>
        <time>2026-05-25T09:58:03Z</time>
      </trkpt>
      <trkpt lat="45.37476" lon="5.60546">
        <ele>605</ele>
        <time>2026-05-25T09:58:08Z</time>
      </trkpt>
      <trkpt lat="45.37465" lon="5.60633">
        <ele>601</ele>
        <time>2026-05-25T09:58:23Z</time>
      </trkpt>
      <trkpt lat="45.37455" lon="5.60669">
        <ele>599</ele>
        <time>2026-05-25T09:58:29Z</time>
      </trkpt>
      <trkpt lat="45.37454" lon="5.6072">
        <ele>598</ele>
        <time>2026-05-25T09:58:37Z</time>
      </trkpt>
      <trkpt lat="45.37455" lon="5.60763">
        <ele>596</ele>
        <time>2026-05-25T09:58:44Z</time>
      </trkpt>
      <trkpt lat="45.37439" lon="5.60802">
        <ele>588</ele>
        <time>2026-05-25T09:58:52Z</time>
      </trkpt>
      <trkpt lat="45.3742" lon="5.60859">
        <ele>575</ele>
        <time>2026-05-25T09:59:02Z</time>
      </trkpt>
      <trkpt lat="45.37407" lon="5.60931">
        <ele>560</ele>
        <time>2026-05-25T09:59:14Z</time>
      </trkpt>
      <trkpt lat="45.37407" lon="5.60949">
        <ele>557</ele>
        <time>2026-05-25T09:59:17Z</time>
      </trkpt>
      <trkpt lat="45.37405" lon="5.60965">
        <ele>553</ele>
        <time>2026-05-25T09:59:20Z</time>
      </trkpt>
      <trkpt lat="45.37409" lon="5.60973">
        <ele>553</ele>
        <time>2026-05-25T09:59:22Z</time>
      </trkpt>
      <trkpt lat="45.37418" lon="5.60983">
        <ele>554</ele>
        <time>2026-05-25T09:59:24Z</time>
      </trkpt>
      <trkpt lat="45.37444" lon="5.60998">
        <ele>555</ele>
        <time>2026-05-25T09:59:31Z</time>
      </trkpt>
      <trkpt lat="45.37464" lon="5.61022">
        <ele>547</ele>
        <time>2026-05-25T09:59:37Z</time>
      </trkpt>
      <trkpt lat="45.37473" lon="5.61037">
        <ele>540</ele>
        <time>2026-05-25T09:59:40Z</time>
      </trkpt>
      <trkpt lat="45.37491" lon="5.61051">
        <ele>535</ele>
        <time>2026-05-25T09:59:45Z</time>
      </trkpt>
      <trkpt lat="45.37495" lon="5.61054">
        <ele>533</ele>
        <time>2026-05-25T09:59:46Z</time>
      </trkpt>
      <trkpt lat="45.37505" lon="5.61066">
        <ele>528</ele>
        <time>2026-05-25T09:59:49Z</time>
      </trkpt>
      <trkpt lat="45.37511" lon="5.61078">
        <ele>522</ele>
        <time>2026-05-25T09:59:51Z</time>
      </trkpt>
      <trkpt lat="45.37514" lon="5.61088">
        <ele>518</ele>
        <time>2026-05-25T09:59:53Z</time>
      </trkpt>
      <trkpt lat="45.37514" lon="5.61106">
        <ele>513</ele>
        <time>2026-05-25T09:59:56Z</time>
      </trkpt>
      <trkpt lat="45.37517" lon="5.61124">
        <ele>508</ele>
        <time>2026-05-25T09:59:59Z</time>
      </trkpt>
      <trkpt lat="45.37531" lon="5.61164">
        <ele>498</ele>
        <time>2026-05-25T10:00:07Z</time>
      </trkpt>
      <trkpt lat="45.37534" lon="5.61171">
        <ele>497</ele>
        <time>2026-05-25T10:00:08Z</time>
      </trkpt>
      <trkpt lat="45.37544" lon="5.61178">
        <ele>497</ele>
        <time>2026-05-25T10:00:10Z</time>
      </trkpt>
      <trkpt lat="45.37556" lon="5.61191">
        <ele>497</ele>
        <time>2026-05-25T10:00:14Z</time>
      </trkpt>
      <trkpt lat="45.37559" lon="5.61202">
        <ele>496</ele>
        <time>2026-05-25T10:00:16Z</time>
      </trkpt>
      <trkpt lat="45.37567" lon="5.61217">
        <ele>495</ele>
        <time>2026-05-25T10:00:19Z</time>
      </trkpt>
      <trkpt lat="45.37571" lon="5.6123">
        <ele>494</ele>
        <time>2026-05-25T10:00:21Z</time>
      </trkpt>
      <trkpt lat="45.37574" lon="5.61244">
        <ele>493</ele>
        <time>2026-05-25T10:00:24Z</time>
      </trkpt>
      <trkpt lat="45.37579" lon="5.61277">
        <ele>495</ele>
        <time>2026-05-25T10:00:29Z</time>
      </trkpt>
      <trkpt lat="45.37584" lon="5.61304">
        <ele>498</ele>
        <time>2026-05-25T10:00:34Z</time>
      </trkpt>
      <trkpt lat="45.37585" lon="5.61315">
        <ele>499</ele>
        <time>2026-05-25T10:00:36Z</time>
      </trkpt>
      <trkpt lat="45.37615" lon="5.61283">
        <ele>502</ele>
        <time>2026-05-25T10:00:44Z</time>
      </trkpt>
      <trkpt lat="45.37635" lon="5.61272">
        <ele>504</ele>
        <time>2026-05-25T10:00:49Z</time>
      </trkpt>
      <trkpt lat="45.37676" lon="5.61243">
        <ele>508</ele>
        <time>2026-05-25T10:01:00Z</time>
      </trkpt>
      <trkpt lat="45.37729" lon="5.61201">
        <ele>516</ele>
        <time>2026-05-25T10:01:14Z</time>
      </trkpt>
      <trkpt lat="45.3775" lon="5.6119">
        <ele>518</ele>
        <time>2026-05-25T10:01:20Z</time>
      </trkpt>
      <trkpt lat="45.37783" lon="5.61179">
        <ele>521</ele>
        <time>2026-05-25T10:01:27Z</time>
      </trkpt>
      <trkpt lat="45.37817" lon="5.61172">
        <ele>523</ele>
        <time>2026-05-25T10:01:35Z</time>
      </trkpt>
      <trkpt lat="45.37834" lon="5.61173">
        <ele>525</ele>
        <time>2026-05-25T10:01:39Z</time>
      </trkpt>
      <trkpt lat="45.37873" lon="5.6116">
        <ele>526</ele>
        <time>2026-05-25T10:01:49Z</time>
      </trkpt>
      <trkpt lat="45.37891" lon="5.61158">
        <ele>526</ele>
        <time>2026-05-25T10:01:53Z</time>
      </trkpt>
      <trkpt lat="45.3793" lon="5.61161">
        <ele>526</ele>
        <time>2026-05-25T10:02:02Z</time>
      </trkpt>
      <trkpt lat="45.37952" lon="5.61162">
        <ele>526</ele>
        <time>2026-05-25T10:02:07Z</time>
      </trkpt>
      <trkpt lat="45.37969" lon="5.61159">
        <ele>527</ele>
        <time>2026-05-25T10:02:11Z</time>
      </trkpt>
      <trkpt lat="45.37986" lon="5.61152">
        <ele>527</ele>
        <time>2026-05-25T10:02:15Z</time>
      </trkpt>
      <trkpt lat="45.38006" lon="5.61139">
        <ele>527</ele>
        <time>2026-05-25T10:02:21Z</time>
      </trkpt>
      <trkpt lat="45.38063" lon="5.61108">
        <ele>526</ele>
        <time>2026-05-25T10:02:35Z</time>
      </trkpt>
      <trkpt lat="45.3807" lon="5.61107">
        <ele>526</ele>
        <time>2026-05-25T10:02:36Z</time>
      </trkpt>
      <trkpt lat="45.38075" lon="5.61106">
        <ele>526</ele>
        <time>2026-05-25T10:02:38Z</time>
      </trkpt>
      <trkpt lat="45.38088" lon="5.61109">
        <ele>526</ele>
        <time>2026-05-25T10:02:41Z</time>
      </trkpt>
      <trkpt lat="45.38145" lon="5.61141">
        <ele>521</ele>
        <time>2026-05-25T10:02:55Z</time>
      </trkpt>
      <trkpt lat="45.38183" lon="5.61157">
        <ele>517</ele>
        <time>2026-05-25T10:03:04Z</time>
      </trkpt>
      <trkpt lat="45.3822" lon="5.61168">
        <ele>514</ele>
        <time>2026-05-25T10:03:13Z</time>
      </trkpt>
      <trkpt lat="45.38233" lon="5.61173">
        <ele>513</ele>
        <time>2026-05-25T10:03:16Z</time>
      </trkpt>
      <trkpt lat="45.38265" lon="5.61194">
        <ele>513</ele>
        <time>2026-05-25T10:03:24Z</time>
      </trkpt>
      <trkpt lat="45.38314" lon="5.6123">
        <ele>513</ele>
        <time>2026-05-25T10:03:37Z</time>
      </trkpt>
      <trkpt lat="45.38319" lon="5.61236">
        <ele>513</ele>
        <time>2026-05-25T10:03:39Z</time>
      </trkpt>
      <trkpt lat="45.3832" lon="5.61248">
        <ele>513</ele>
        <time>2026-05-25T10:03:41Z</time>
      </trkpt>
      <trkpt lat="45.38317" lon="5.61291">
        <ele>513</ele>
        <time>2026-05-25T10:03:48Z</time>
      </trkpt>
      <trkpt lat="45.38315" lon="5.61389">
        <ele>511</ele>
        <time>2026-05-25T10:04:04Z</time>
      </trkpt>
      <trkpt lat="45.38317" lon="5.61407">
        <ele>511</ele>
        <time>2026-05-25T10:04:07Z</time>
      </trkpt>
      <trkpt lat="45.38299" lon="5.61411">
        <ele>513</ele>
        <time>2026-05-25T10:04:11Z</time>
      </trkpt>
      <trkpt lat="45.38275" lon="5.61408">
        <ele>516</ele>
        <time>2026-05-25T10:04:17Z</time>
      </trkpt>
      <trkpt lat="45.38262" lon="5.61413">
        <ele>517</ele>
        <time>2026-05-25T10:04:20Z</time>
      </trkpt>
      <trkpt lat="45.38246" lon="5.61436">
        <ele>522</ele>
        <time>2026-05-25T10:04:25Z</time>
      </trkpt>
      <trkpt lat="45.38245" lon="5.61478">
        <ele>525</ele>
        <time>2026-05-25T10:04:32Z</time>
      </trkpt>
      <trkpt lat="45.38245" lon="5.61518">
        <ele>526</ele>
        <time>2026-05-25T10:04:39Z</time>
      </trkpt>
      <trkpt lat="45.38239" lon="5.61563">
        <ele>527</ele>
        <time>2026-05-25T10:04:46Z</time>
      </trkpt>
      <trkpt lat="45.38232" lon="5.61588">
        <ele>530</ele>
        <time>2026-05-25T10:04:51Z</time>
      </trkpt>
      <trkpt lat="45.3822" lon="5.61615">
        <ele>533</ele>
        <time>2026-05-25T10:04:56Z</time>
      </trkpt>
      <trkpt lat="45.38212" lon="5.61632">
        <ele>536</ele>
        <time>2026-05-25T10:04:59Z</time>
      </trkpt>
      <trkpt lat="45.38205" lon="5.61635">
        <ele>539</ele>
        <time>2026-05-25T10:05:01Z</time>
      </trkpt>
      <trkpt lat="45.38182" lon="5.61696">
        <ele>542</ele>
        <time>2026-05-25T10:05:12Z</time>
      </trkpt>
      <trkpt lat="45.38143" lon="5.61749">
        <ele>546</ele>
        <time>2026-05-25T10:05:25Z</time>
      </trkpt>
      <trkpt lat="45.38109" lon="5.6178">
        <ele>550</ele>
        <time>2026-05-25T10:05:34Z</time>
      </trkpt>
      <trkpt lat="45.38084" lon="5.61799">
        <ele>552</ele>
        <time>2026-05-25T10:05:41Z</time>
      </trkpt>
      <trkpt lat="45.38048" lon="5.61804">
        <ele>561</ele>
        <time>2026-05-25T10:05:49Z</time>
      </trkpt>
      <trkpt lat="45.38025" lon="5.61818">
        <ele>563</ele>
        <time>2026-05-25T10:05:55Z</time>
      </trkpt>
      <trkpt lat="45.3799" lon="5.61858">
        <ele>562</ele>
        <time>2026-05-25T10:06:06Z</time>
      </trkpt>
      <trkpt lat="45.37957" lon="5.61901">
        <ele>563</ele>
        <time>2026-05-25T10:06:16Z</time>
      </trkpt>
      <trkpt lat="45.37913" lon="5.6197">
        <ele>563</ele>
        <time>2026-05-25T10:06:32Z</time>
      </trkpt>
      <trkpt lat="45.37882" lon="5.62029">
        <ele>565</ele>
        <time>2026-05-25T10:06:44Z</time>
      </trkpt>
      <trkpt lat="45.37864" lon="5.62094">
        <ele>563</ele>
        <time>2026-05-25T10:06:55Z</time>
      </trkpt>
      <trkpt lat="45.37861" lon="5.62124">
        <ele>561</ele>
        <time>2026-05-25T10:07:00Z</time>
      </trkpt>
      <trkpt lat="45.37852" lon="5.62163">
        <ele>562</ele>
        <time>2026-05-25T10:07:07Z</time>
      </trkpt>
      <trkpt lat="45.3785" lon="5.62168">
        <ele>562</ele>
        <time>2026-05-25T10:07:08Z</time>
      </trkpt>
      <trkpt lat="45.37846" lon="5.62217">
        <ele>562</ele>
        <time>2026-05-25T10:07:16Z</time>
      </trkpt>
      <trkpt lat="45.37852" lon="5.6229">
        <ele>555</ele>
        <time>2026-05-25T10:07:28Z</time>
      </trkpt>
      <trkpt lat="45.37857" lon="5.62302">
        <ele>552</ele>
        <time>2026-05-25T10:07:30Z</time>
      </trkpt>
      <trkpt lat="45.37868" lon="5.62303">
        <ele>548</ele>
        <time>2026-05-25T10:07:33Z</time>
      </trkpt>
      <trkpt lat="45.37873" lon="5.62319">
        <ele>545</ele>
        <time>2026-05-25T10:07:36Z</time>
      </trkpt>
      <trkpt lat="45.37886" lon="5.62366">
        <ele>540</ele>
        <time>2026-05-25T10:07:44Z</time>
      </trkpt>
      <trkpt lat="45.37889" lon="5.62397">
        <ele>539</ele>
        <time>2026-05-25T10:07:49Z</time>
      </trkpt>
      <trkpt lat="45.3789" lon="5.62416">
        <ele>538</ele>
        <time>2026-05-25T10:07:52Z</time>
      </trkpt>
      <trkpt lat="45.37903" lon="5.62447">
        <ele>533</ele>
        <time>2026-05-25T10:07:58Z</time>
      </trkpt>
      <trkpt lat="45.37914" lon="5.62472">
        <ele>527</ele>
        <time>2026-05-25T10:08:03Z</time>
      </trkpt>
      <trkpt lat="45.37925" lon="5.62532">
        <ele>522</ele>
        <time>2026-05-25T10:08:13Z</time>
      </trkpt>
      <trkpt lat="45.37926" lon="5.62595">
        <ele>519</ele>
        <time>2026-05-25T10:08:23Z</time>
      </trkpt>
      <trkpt lat="45.37905" lon="5.62668">
        <ele>517</ele>
        <time>2026-05-25T10:08:36Z</time>
      </trkpt>
      <trkpt lat="45.37867" lon="5.62727">
        <ele>510</ele>
        <time>2026-05-25T10:08:49Z</time>
      </trkpt>
      <trkpt lat="45.37829" lon="5.62764">
        <ele>500</ele>
        <time>2026-05-25T10:09:00Z</time>
      </trkpt>
      <trkpt lat="45.37809" lon="5.62776">
        <ele>493</ele>
        <time>2026-05-25T10:09:05Z</time>
      </trkpt>
      <trkpt lat="45.37788" lon="5.62779">
        <ele>490</ele>
        <time>2026-05-25T10:09:10Z</time>
      </trkpt>
      <trkpt lat="45.37765" lon="5.62787">
        <ele>485</ele>
        <time>2026-05-25T10:09:16Z</time>
      </trkpt>
      <trkpt lat="45.37752" lon="5.62799">
        <ele>479</ele>
        <time>2026-05-25T10:09:19Z</time>
      </trkpt>
      <trkpt lat="45.37738" lon="5.62836">
        <ele>464</ele>
        <time>2026-05-25T10:09:26Z</time>
      </trkpt>
      <trkpt lat="45.37727" lon="5.62861">
        <ele>457</ele>
        <time>2026-05-25T10:09:31Z</time>
      </trkpt>
      <trkpt lat="45.37674" lon="5.6282">
        <ele>463</ele>
        <time>2026-05-25T10:09:45Z</time>
      </trkpt>
      <trkpt lat="45.37644" lon="5.62788">
        <ele>468</ele>
        <time>2026-05-25T10:09:54Z</time>
      </trkpt>
      <trkpt lat="45.37629" lon="5.62764">
        <ele>470</ele>
        <time>2026-05-25T10:09:59Z</time>
      </trkpt>
      <trkpt lat="45.37616" lon="5.62746">
        <ele>471</ele>
        <time>2026-05-25T10:10:03Z</time>
      </trkpt>
      <trkpt lat="45.37575" lon="5.62703">
        <ele>470</ele>
        <time>2026-05-25T10:10:15Z</time>
      </trkpt>
      <trkpt lat="45.37554" lon="5.62669">
        <ele>473</ele>
        <time>2026-05-25T10:10:23Z</time>
      </trkpt>
      <trkpt lat="45.37508" lon="5.62582">
        <ele>479</ele>
        <time>2026-05-25T10:10:41Z</time>
      </trkpt>
      <trkpt lat="45.37496" lon="5.62559">
        <ele>480</ele>
        <time>2026-05-25T10:10:45Z</time>
      </trkpt>
      <trkpt lat="45.37489" lon="5.62546">
        <ele>481</ele>
        <time>2026-05-25T10:10:48Z</time>
      </trkpt>
      <trkpt lat="45.37469" lon="5.62514">
        <ele>483</ele>
        <time>2026-05-25T10:10:55Z</time>
      </trkpt>
      <trkpt lat="45.37457" lon="5.62491">
        <ele>484</ele>
        <time>2026-05-25T10:11:00Z</time>
      </trkpt>
      <trkpt lat="45.37452" lon="5.62473">
        <ele>486</ele>
        <time>2026-05-25T10:11:03Z</time>
      </trkpt>
      <trkpt lat="45.37447" lon="5.62459">
        <ele>488</ele>
        <time>2026-05-25T10:11:05Z</time>
      </trkpt>
      <trkpt lat="45.37441" lon="5.6243">
        <ele>490</ele>
        <time>2026-05-25T10:11:10Z</time>
      </trkpt>
      <trkpt lat="45.3744" lon="5.62393">
        <ele>495</ele>
        <time>2026-05-25T10:11:17Z</time>
      </trkpt>
      <trkpt lat="45.37429" lon="5.62329">
        <ele>499</ele>
        <time>2026-05-25T10:11:27Z</time>
      </trkpt>
      <trkpt lat="45.37426" lon="5.62297">
        <ele>502</ele>
        <time>2026-05-25T10:11:33Z</time>
      </trkpt>
      <trkpt lat="45.37426" lon="5.62257">
        <ele>508</ele>
        <time>2026-05-25T10:11:39Z</time>
      </trkpt>
      <trkpt lat="45.37427" lon="5.62242">
        <ele>510</ele>
        <time>2026-05-25T10:11:42Z</time>
      </trkpt>
      <trkpt lat="45.37429" lon="5.62224">
        <ele>512</ele>
        <time>2026-05-25T10:11:45Z</time>
      </trkpt>
      <trkpt lat="45.37432" lon="5.62205">
        <ele>515</ele>
        <time>2026-05-25T10:11:48Z</time>
      </trkpt>
      <trkpt lat="45.37433" lon="5.62178">
        <ele>517</ele>
        <time>2026-05-25T10:11:52Z</time>
      </trkpt>
      <trkpt lat="45.37435" lon="5.62164">
        <ele>519</ele>
        <time>2026-05-25T10:11:55Z</time>
      </trkpt>
      <trkpt lat="45.37441" lon="5.6213">
        <ele>522</ele>
        <time>2026-05-25T10:12:00Z</time>
      </trkpt>
      <trkpt lat="45.37448" lon="5.62099">
        <ele>526</ele>
        <time>2026-05-25T10:12:06Z</time>
      </trkpt>
      <trkpt lat="45.3745" lon="5.62086">
        <ele>527</ele>
        <time>2026-05-25T10:12:08Z</time>
      </trkpt>
      <trkpt lat="45.37449" lon="5.62071">
        <ele>526</ele>
        <time>2026-05-25T10:12:10Z</time>
      </trkpt>
      <trkpt lat="45.37446" lon="5.62063">
        <ele>525</ele>
        <time>2026-05-25T10:12:12Z</time>
      </trkpt>
      <trkpt lat="45.37433" lon="5.62051">
        <ele>520</ele>
        <time>2026-05-25T10:12:15Z</time>
      </trkpt>
      <trkpt lat="45.37371" lon="5.62042">
        <ele>500</ele>
        <time>2026-05-25T10:12:30Z</time>
      </trkpt>
      <trkpt lat="45.37362" lon="5.62037">
        <ele>497</ele>
        <time>2026-05-25T10:12:32Z</time>
      </trkpt>
      <trkpt lat="45.37356" lon="5.62026">
        <ele>495</ele>
        <time>2026-05-25T10:12:35Z</time>
      </trkpt>
      <trkpt lat="45.37353" lon="5.6201">
        <ele>494</ele>
        <time>2026-05-25T10:12:37Z</time>
      </trkpt>
      <trkpt lat="45.37351" lon="5.62004">
        <ele>493</ele>
        <time>2026-05-25T10:12:38Z</time>
      </trkpt>
      <trkpt lat="45.37346" lon="5.62001">
        <ele>492</ele>
        <time>2026-05-25T10:12:40Z</time>
      </trkpt>
      <trkpt lat="45.37344" lon="5.62002">
        <ele>491</ele>
        <time>2026-05-25T10:12:40Z</time>
      </trkpt>
      <trkpt lat="45.37341" lon="5.62003">
        <ele>490</ele>
        <time>2026-05-25T10:12:41Z</time>
      </trkpt>
      <trkpt lat="45.37317" lon="5.62051">
        <ele>485</ele>
        <time>2026-05-25T10:12:51Z</time>
      </trkpt>
      <trkpt lat="45.37311" lon="5.62067">
        <ele>484</ele>
        <time>2026-05-25T10:12:54Z</time>
      </trkpt>
      <trkpt lat="45.37288" lon="5.62114">
        <ele>480</ele>
        <time>2026-05-25T10:13:03Z</time>
      </trkpt>
      <trkpt lat="45.37283" lon="5.62122">
        <ele>480</ele>
        <time>2026-05-25T10:13:05Z</time>
      </trkpt>
      <trkpt lat="45.3727" lon="5.6213">
        <ele>477</ele>
        <time>2026-05-25T10:13:08Z</time>
      </trkpt>
      <trkpt lat="45.37255" lon="5.62142">
        <ele>475</ele>
        <time>2026-05-25T10:13:12Z</time>
      </trkpt>
      <trkpt lat="45.37248" lon="5.62151">
        <ele>474</ele>
        <time>2026-05-25T10:13:14Z</time>
      </trkpt>
      <trkpt lat="45.37213" lon="5.62213">
        <ele>467</ele>
        <time>2026-05-25T10:13:27Z</time>
      </trkpt>
      <trkpt lat="45.37204" lon="5.62232">
        <ele>466</ele>
        <time>2026-05-25T10:13:31Z</time>
      </trkpt>
      <trkpt lat="45.37201" lon="5.62237">
        <ele>465</ele>
        <time>2026-05-25T10:13:32Z</time>
      </trkpt>
      <trkpt lat="45.37186" lon="5.62269">
        <ele>465</ele>
        <time>2026-05-25T10:13:38Z</time>
      </trkpt>
      <trkpt lat="45.37174" lon="5.62287">
        <ele>464</ele>
        <time>2026-05-25T10:13:42Z</time>
      </trkpt>
      <trkpt lat="45.3716" lon="5.62294">
        <ele>462</ele>
        <time>2026-05-25T10:13:46Z</time>
      </trkpt>
      <trkpt lat="45.3714" lon="5.62309">
        <ele>458</ele>
        <time>2026-05-25T10:13:51Z</time>
      </trkpt>
      <trkpt lat="45.37091" lon="5.62358">
        <ele>452</ele>
        <time>2026-05-25T10:14:05Z</time>
      </trkpt>
      <trkpt lat="45.37081" lon="5.62366">
        <ele>450</ele>
        <time>2026-05-25T10:14:08Z</time>
      </trkpt>
      <trkpt lat="45.3707" lon="5.6237">
        <ele>447</ele>
        <time>2026-05-25T10:14:11Z</time>
      </trkpt>
      <trkpt lat="45.37055" lon="5.62384">
        <ele>443</ele>
        <time>2026-05-25T10:14:15Z</time>
      </trkpt>
      <trkpt lat="45.37042" lon="5.62403">
        <ele>440</ele>
        <time>2026-05-25T10:14:19Z</time>
      </trkpt>
      <trkpt lat="45.37021" lon="5.62454">
        <ele>439</ele>
        <time>2026-05-25T10:14:29Z</time>
      </trkpt>
      <trkpt lat="45.36983" lon="5.62572">
        <ele>438</ele>
        <time>2026-05-25T10:14:50Z</time>
      </trkpt>
      <trkpt lat="45.36956" lon="5.62613">
        <ele>432</ele>
        <time>2026-05-25T10:14:59Z</time>
      </trkpt>
      <trkpt lat="45.36937" lon="5.62637">
        <ele>429</ele>
        <time>2026-05-25T10:15:05Z</time>
      </trkpt>
      <trkpt lat="45.36922" lon="5.62644">
        <ele>427</ele>
        <time>2026-05-25T10:15:09Z</time>
      </trkpt>
      <trkpt lat="45.36911" lon="5.62643">
        <ele>425</ele>
        <time>2026-05-25T10:15:11Z</time>
      </trkpt>
      <trkpt lat="45.36899" lon="5.62648">
        <ele>422</ele>
        <time>2026-05-25T10:15:14Z</time>
      </trkpt>
      <trkpt lat="45.36892" lon="5.62656">
        <ele>421</ele>
        <time>2026-05-25T10:15:16Z</time>
      </trkpt>
      <trkpt lat="45.36886" lon="5.62673">
        <ele>420</ele>
        <time>2026-05-25T10:15:20Z</time>
      </trkpt>
      <trkpt lat="45.36883" lon="5.62698">
        <ele>419</ele>
        <time>2026-05-25T10:15:24Z</time>
      </trkpt>
      <trkpt lat="45.36883" lon="5.62726">
        <ele>418</ele>
        <time>2026-05-25T10:15:28Z</time>
      </trkpt>
      <trkpt lat="45.3689" lon="5.62785">
        <ele>416</ele>
        <time>2026-05-25T10:15:38Z</time>
      </trkpt>
      <trkpt lat="45.3689" lon="5.62805">
        <ele>414</ele>
        <time>2026-05-25T10:15:41Z</time>
      </trkpt>
      <trkpt lat="45.36884" lon="5.62842">
        <ele>409</ele>
        <time>2026-05-25T10:15:48Z</time>
      </trkpt>
      <trkpt lat="45.3688" lon="5.62849">
        <ele>408</ele>
        <time>2026-05-25T10:15:49Z</time>
      </trkpt>
      <trkpt lat="45.36877" lon="5.62852">
        <ele>408</ele>
        <time>2026-05-25T10:15:50Z</time>
      </trkpt>
      <trkpt lat="45.36872" lon="5.62851">
        <ele>407</ele>
        <time>2026-05-25T10:15:51Z</time>
      </trkpt>
      <trkpt lat="45.36862" lon="5.62843">
        <ele>407</ele>
        <time>2026-05-25T10:15:54Z</time>
      </trkpt>
      <trkpt lat="45.36852" lon="5.62831">
        <ele>407</ele>
        <time>2026-05-25T10:15:57Z</time>
      </trkpt>
      <trkpt lat="45.36841" lon="5.62823">
        <ele>406</ele>
        <time>2026-05-25T10:16:00Z</time>
      </trkpt>
      <trkpt lat="45.36826" lon="5.62826">
        <ele>405</ele>
        <time>2026-05-25T10:16:03Z</time>
      </trkpt>
      <trkpt lat="45.36815" lon="5.62835">
        <ele>403</ele>
        <time>2026-05-25T10:16:06Z</time>
      </trkpt>
      <trkpt lat="45.36808" lon="5.62848">
        <ele>402</ele>
        <time>2026-05-25T10:16:09Z</time>
      </trkpt>
      <trkpt lat="45.36788" lon="5.62863">
        <ele>400</ele>
        <time>2026-05-25T10:16:14Z</time>
      </trkpt>
      <trkpt lat="45.36773" lon="5.62871">
        <ele>399</ele>
        <time>2026-05-25T10:16:18Z</time>
      </trkpt>
      <trkpt lat="45.36758" lon="5.62875">
        <ele>398</ele>
        <time>2026-05-25T10:16:22Z</time>
      </trkpt>
      <trkpt lat="45.36776" lon="5.6292">
        <ele>398</ele>
        <time>2026-05-25T10:16:30Z</time>
      </trkpt>
      <trkpt lat="45.36803" lon="5.62976">
        <ele>401</ele>
        <time>2026-05-25T10:16:41Z</time>
      </trkpt>
      <trkpt lat="45.36812" lon="5.62991">
        <ele>402</ele>
        <time>2026-05-25T10:16:44Z</time>
      </trkpt>
      <trkpt lat="45.36823" lon="5.63005">
        <ele>403</ele>
        <time>2026-05-25T10:16:48Z</time>
      </trkpt>
      <trkpt lat="45.36835" lon="5.63017">
        <ele>405</ele>
        <time>2026-05-25T10:16:51Z</time>
      </trkpt>
      <trkpt lat="45.36844" lon="5.63023">
        <ele>407</ele>
        <time>2026-05-25T10:16:54Z</time>
      </trkpt>
      <trkpt lat="45.36853" lon="5.63026">
        <ele>408</ele>
        <time>2026-05-25T10:16:56Z</time>
      </trkpt>
      <trkpt lat="45.36895" lon="5.63028">
        <ele>411</ele>
        <time>2026-05-25T10:17:06Z</time>
      </trkpt>
      <trkpt lat="45.36902" lon="5.6303">
        <ele>412</ele>
        <time>2026-05-25T10:17:07Z</time>
      </trkpt>
      <trkpt lat="45.3696" lon="5.63055">
        <ele>418</ele>
        <time>2026-05-25T10:17:21Z</time>
      </trkpt>
      <trkpt lat="45.36985" lon="5.63063">
        <ele>421</ele>
        <time>2026-05-25T10:17:27Z</time>
      </trkpt>
      <trkpt lat="45.37015" lon="5.63077">
        <ele>422</ele>
        <time>2026-05-25T10:17:35Z</time>
      </trkpt>
      <trkpt lat="45.37032" lon="5.63093">
        <ele>422</ele>
        <time>2026-05-25T10:17:40Z</time>
      </trkpt>
      <trkpt lat="45.37062" lon="5.63117">
        <ele>422</ele>
        <time>2026-05-25T10:17:48Z</time>
      </trkpt>
      <trkpt lat="45.37082" lon="5.63127">
        <ele>422</ele>
        <time>2026-05-25T10:17:53Z</time>
      </trkpt>
      <trkpt lat="45.37097" lon="5.63137">
        <ele>423</ele>
        <time>2026-05-25T10:17:56Z</time>
      </trkpt>
      <trkpt lat="45.37113" lon="5.63153">
        <ele>423</ele>
        <time>2026-05-25T10:18:01Z</time>
      </trkpt>
      <trkpt lat="45.37132" lon="5.63181">
        <ele>424</ele>
        <time>2026-05-25T10:18:07Z</time>
      </trkpt>
      <trkpt lat="45.37145" lon="5.63205">
        <ele>425</ele>
        <time>2026-05-25T10:18:12Z</time>
      </trkpt>
      <trkpt lat="45.37166" lon="5.63245">
        <ele>426</ele>
        <time>2026-05-25T10:18:21Z</time>
      </trkpt>
      <trkpt lat="45.37204" lon="5.63329">
        <ele>430</ele>
        <time>2026-05-25T10:18:37Z</time>
      </trkpt>
      <trkpt lat="45.37249" lon="5.634">
        <ele>434</ele>
        <time>2026-05-25T10:18:53Z</time>
      </trkpt>
      <trkpt lat="45.37293" lon="5.63451">
        <ele>437</ele>
        <time>2026-05-25T10:19:06Z</time>
      </trkpt>
      <trkpt lat="45.3732" lon="5.63506">
        <ele>439</ele>
        <time>2026-05-25T10:19:17Z</time>
      </trkpt>
      <trkpt lat="45.37329" lon="5.63531">
        <ele>440</ele>
        <time>2026-05-25T10:19:21Z</time>
      </trkpt>
      <trkpt lat="45.37381" lon="5.63675">
        <ele>442</ele>
        <time>2026-05-25T10:19:48Z</time>
      </trkpt>
      <trkpt lat="45.37398" lon="5.63711">
        <ele>443</ele>
        <time>2026-05-25T10:19:55Z</time>
      </trkpt>
      <trkpt lat="45.37416" lon="5.63741">
        <ele>443</ele>
        <time>2026-05-25T10:20:02Z</time>
      </trkpt>
      <trkpt lat="45.37445" lon="5.6378">
        <ele>444</ele>
        <time>2026-05-25T10:20:11Z</time>
      </trkpt>
      <trkpt lat="45.37458" lon="5.63789">
        <ele>444</ele>
        <time>2026-05-25T10:20:14Z</time>
      </trkpt>
      <trkpt lat="45.37472" lon="5.63792">
        <ele>444</ele>
        <time>2026-05-25T10:20:18Z</time>
      </trkpt>
      <trkpt lat="45.37579" lon="5.63807">
        <ele>446</ele>
        <time>2026-05-25T10:20:43Z</time>
      </trkpt>
      <trkpt lat="45.37589" lon="5.63813">
        <ele>446</ele>
        <time>2026-05-25T10:20:45Z</time>
      </trkpt>
      <trkpt lat="45.37598" lon="5.63821">
        <ele>447</ele>
        <time>2026-05-25T10:20:48Z</time>
      </trkpt>
      <trkpt lat="45.37603" lon="5.63827">
        <ele>447</ele>
        <time>2026-05-25T10:20:49Z</time>
      </trkpt>
      <trkpt lat="45.37618" lon="5.63845">
        <ele>447</ele>
        <time>2026-05-25T10:20:54Z</time>
      </trkpt>
      <trkpt lat="45.37715" lon="5.63922">
        <ele>449</ele>
        <time>2026-05-25T10:21:20Z</time>
      </trkpt>
      <trkpt lat="45.37778" lon="5.63974">
        <ele>447</ele>
        <time>2026-05-25T10:21:37Z</time>
      </trkpt>
      <trkpt lat="45.37792" lon="5.63989">
        <ele>447</ele>
        <time>2026-05-25T10:21:41Z</time>
      </trkpt>
      <trkpt lat="45.37819" lon="5.64018">
        <ele>446</ele>
        <time>2026-05-25T10:21:49Z</time>
      </trkpt>
      <trkpt lat="45.37826" lon="5.64026">
        <ele>446</ele>
        <time>2026-05-25T10:21:51Z</time>
      </trkpt>
      <trkpt lat="45.37834" lon="5.64035">
        <ele>446</ele>
        <time>2026-05-25T10:21:53Z</time>
      </trkpt>
      <trkpt lat="45.379" lon="5.64103">
        <ele>447</ele>
        <time>2026-05-25T10:22:12Z</time>
      </trkpt>
      <trkpt lat="45.37905" lon="5.64105">
        <ele>447</ele>
        <time>2026-05-25T10:22:14Z</time>
      </trkpt>
      <trkpt lat="45.37908" lon="5.64111">
        <ele>447</ele>
        <time>2026-05-25T10:22:15Z</time>
      </trkpt>
      <trkpt lat="45.37911" lon="5.64115">
        <ele>447</ele>
        <time>2026-05-25T10:22:16Z</time>
      </trkpt>
      <trkpt lat="45.37927" lon="5.64126">
        <ele>448</ele>
        <time>2026-05-25T10:22:20Z</time>
      </trkpt>
      <trkpt lat="45.37973" lon="5.6416">
        <ele>449</ele>
        <time>2026-05-25T10:22:32Z</time>
      </trkpt>
      <trkpt lat="45.37984" lon="5.6417">
        <ele>449</ele>
        <time>2026-05-25T10:22:35Z</time>
      </trkpt>
      <trkpt lat="45.37994" lon="5.64175">
        <ele>449</ele>
        <time>2026-05-25T10:22:37Z</time>
      </trkpt>
      <trkpt lat="45.38003" lon="5.64183">
        <ele>449</ele>
        <time>2026-05-25T10:22:40Z</time>
      </trkpt>
      <trkpt lat="45.38003" lon="5.64186">
        <ele>449</ele>
        <time>2026-05-25T10:22:40Z</time>
      </trkpt>
      <trkpt lat="45.38004" lon="5.6419">
        <ele>449</ele>
        <time>2026-05-25T10:22:41Z</time>
      </trkpt>
      <trkpt lat="45.38006" lon="5.64193">
        <ele>449</ele>
        <time>2026-05-25T10:22:42Z</time>
      </trkpt>
      <trkpt lat="45.38009" lon="5.64195">
        <ele>449</ele>
        <time>2026-05-25T10:22:43Z</time>
      </trkpt>
      <trkpt lat="45.38012" lon="5.64195">
        <ele>449</ele>
        <time>2026-05-25T10:22:43Z</time>
      </trkpt>
      <trkpt lat="45.38018" lon="5.64199">
        <ele>449</ele>
        <time>2026-05-25T10:22:45Z</time>
      </trkpt>
      <trkpt lat="45.38023" lon="5.64203">
        <ele>449</ele>
        <time>2026-05-25T10:22:46Z</time>
      </trkpt>
      <trkpt lat="45.3805" lon="5.64213">
        <ele>449</ele>
        <time>2026-05-25T10:22:53Z</time>
      </trkpt>
      <trkpt lat="45.38088" lon="5.64241">
        <ele>449</ele>
        <time>2026-05-25T10:23:03Z</time>
      </trkpt>
      <trkpt lat="45.38101" lon="5.64254">
        <ele>449</ele>
        <time>2026-05-25T10:23:06Z</time>
      </trkpt>
      <trkpt lat="45.38115" lon="5.64272">
        <ele>449</ele>
        <time>2026-05-25T10:23:11Z</time>
      </trkpt>
      <trkpt lat="45.38121" lon="5.6428">
        <ele>448</ele>
        <time>2026-05-25T10:23:13Z</time>
      </trkpt>
      <trkpt lat="45.38131" lon="5.64294">
        <ele>448</ele>
        <time>2026-05-25T10:23:16Z</time>
      </trkpt>
      <trkpt lat="45.38202" lon="5.64413">
        <ele>449</ele>
        <time>2026-05-25T10:23:42Z</time>
      </trkpt>
      <trkpt lat="45.38227" lon="5.64449">
        <ele>449</ele>
        <time>2026-05-25T10:23:50Z</time>
      </trkpt>
      <trkpt lat="45.3824" lon="5.64467">
        <ele>449</ele>
        <time>2026-05-25T10:23:54Z</time>
      </trkpt>
      <trkpt lat="45.38249" lon="5.64477">
        <ele>449</ele>
        <time>2026-05-25T10:23:57Z</time>
      </trkpt>
      <trkpt lat="45.38275" lon="5.64497">
        <ele>448</ele>
        <time>2026-05-25T10:24:04Z</time>
      </trkpt>
      <trkpt lat="45.38293" lon="5.64509">
        <ele>448</ele>
        <time>2026-05-25T10:24:08Z</time>
      </trkpt>
      <trkpt lat="45.38295" lon="5.6451">
        <ele>448</ele>
        <time>2026-05-25T10:24:09Z</time>
      </trkpt>
      <trkpt lat="45.38302" lon="5.64515">
        <ele>448</ele>
        <time>2026-05-25T10:24:11Z</time>
      </trkpt>
      <trkpt lat="45.38315" lon="5.6452">
        <ele>448</ele>
        <time>2026-05-25T10:24:14Z</time>
      </trkpt>
      <trkpt lat="45.38334" lon="5.64524">
        <ele>447</ele>
        <time>2026-05-25T10:24:18Z</time>
      </trkpt>
      <trkpt lat="45.38391" lon="5.64531">
        <ele>446</ele>
        <time>2026-05-25T10:24:32Z</time>
      </trkpt>
      <trkpt lat="45.38472" lon="5.64542">
        <ele>445</ele>
        <time>2026-05-25T10:24:51Z</time>
      </trkpt>
      <trkpt lat="45.38506" lon="5.64548">
        <ele>445</ele>
        <time>2026-05-25T10:24:59Z</time>
      </trkpt>
      <trkpt lat="45.38518" lon="5.64556">
        <ele>444</ele>
        <time>2026-05-25T10:25:02Z</time>
      </trkpt>
      <trkpt lat="45.38529" lon="5.64565">
        <ele>444</ele>
        <time>2026-05-25T10:25:05Z</time>
      </trkpt>
      <trkpt lat="45.3854" lon="5.64583">
        <ele>443</ele>
        <time>2026-05-25T10:25:09Z</time>
      </trkpt>
      <trkpt lat="45.38547" lon="5.64596">
        <ele>443</ele>
        <time>2026-05-25T10:25:11Z</time>
      </trkpt>
      <trkpt lat="45.38555" lon="5.64617">
        <ele>443</ele>
        <time>2026-05-25T10:25:15Z</time>
      </trkpt>
      <trkpt lat="45.38558" lon="5.64622">
        <ele>442</ele>
        <time>2026-05-25T10:25:16Z</time>
      </trkpt>
      <trkpt lat="45.38572" lon="5.64655">
        <ele>442</ele>
        <time>2026-05-25T10:25:23Z</time>
      </trkpt>
      <trkpt lat="45.38565" lon="5.64662">
        <ele>442</ele>
        <time>2026-05-25T10:25:25Z</time>
      </trkpt>
      <trkpt lat="45.3858" lon="5.64701">
        <ele>442</ele>
        <time>2026-05-25T10:25:32Z</time>
      </trkpt>
      <trkpt lat="45.38591" lon="5.64723">
        <ele>443</ele>
        <time>2026-05-25T10:25:36Z</time>
      </trkpt>
      <trkpt lat="45.38595" lon="5.64729">
        <ele>443</ele>
        <time>2026-05-25T10:25:38Z</time>
      </trkpt>
      <trkpt lat="45.38602" lon="5.64739">
        <ele>443</ele>
        <time>2026-05-25T10:25:40Z</time>
      </trkpt>
      <trkpt lat="45.38616" lon="5.6475">
        <ele>442</ele>
        <time>2026-05-25T10:25:44Z</time>
      </trkpt>
      <trkpt lat="45.38627" lon="5.64757">
        <ele>441</ele>
        <time>2026-05-25T10:25:47Z</time>
      </trkpt>
      <trkpt lat="45.3865" lon="5.64763">
        <ele>440</ele>
        <time>2026-05-25T10:25:52Z</time>
      </trkpt>
      <trkpt lat="45.38963" lon="5.64802">
        <ele>451</ele>
        <time>2026-05-25T10:27:05Z</time>
      </trkpt>
      <trkpt lat="45.38977" lon="5.648">
        <ele>452</ele>
        <time>2026-05-25T10:27:09Z</time>
      </trkpt>
      <trkpt lat="45.38991" lon="5.64795">
        <ele>452</ele>
        <time>2026-05-25T10:27:12Z</time>
      </trkpt>
      <trkpt lat="45.39042" lon="5.64774">
        <ele>454</ele>
        <time>2026-05-25T10:27:24Z</time>
      </trkpt>
      <trkpt lat="45.39098" lon="5.64751">
        <ele>456</ele>
        <time>2026-05-25T10:27:38Z</time>
      </trkpt>
      <trkpt lat="45.3912" lon="5.64737">
        <ele>457</ele>
        <time>2026-05-25T10:27:44Z</time>
      </trkpt>
      <trkpt lat="45.39123" lon="5.64734">
        <ele>457</ele>
        <time>2026-05-25T10:27:45Z</time>
      </trkpt>
      <trkpt lat="45.39126" lon="5.64736">
        <ele>457</ele>
        <time>2026-05-25T10:27:45Z</time>
      </trkpt>
      <trkpt lat="45.3913" lon="5.64737">
        <ele>457</ele>
        <time>2026-05-25T10:27:46Z</time>
      </trkpt>
      <trkpt lat="45.39133" lon="5.64735">
        <ele>457</ele>
        <time>2026-05-25T10:27:47Z</time>
      </trkpt>
      <trkpt lat="45.39136" lon="5.64732">
        <ele>457</ele>
        <time>2026-05-25T10:27:48Z</time>
      </trkpt>
      <trkpt lat="45.39137" lon="5.64727">
        <ele>457</ele>
        <time>2026-05-25T10:27:49Z</time>
      </trkpt>
      <trkpt lat="45.39147" lon="5.6473">
        <ele>458</ele>
        <time>2026-05-25T10:27:51Z</time>
      </trkpt>
      <trkpt lat="45.39162" lon="5.6473">
        <ele>458</ele>
        <time>2026-05-25T10:27:55Z</time>
      </trkpt>
      <trkpt lat="45.39167" lon="5.64732">
        <ele>459</ele>
        <time>2026-05-25T10:27:56Z</time>
      </trkpt>
      <trkpt lat="45.39174" lon="5.64737">
        <ele>459</ele>
        <time>2026-05-25T10:27:58Z</time>
      </trkpt>
      <trkpt lat="45.39177" lon="5.64741">
        <ele>459</ele>
        <time>2026-05-25T10:27:59Z</time>
      </trkpt>
      <trkpt lat="45.39183" lon="5.64753">
        <ele>459</ele>
        <time>2026-05-25T10:28:01Z</time>
      </trkpt>
      <trkpt lat="45.39186" lon="5.64762">
        <ele>459</ele>
        <time>2026-05-25T10:28:03Z</time>
      </trkpt>
      <trkpt lat="45.39194" lon="5.64819">
        <ele>460</ele>
        <time>2026-05-25T10:28:12Z</time>
      </trkpt>
      <trkpt lat="45.39198" lon="5.64843">
        <ele>460</ele>
        <time>2026-05-25T10:28:16Z</time>
      </trkpt>
      <trkpt lat="45.39207" lon="5.6491">
        <ele>461</ele>
        <time>2026-05-25T10:28:27Z</time>
      </trkpt>
      <trkpt lat="45.39219" lon="5.64991">
        <ele>462</ele>
        <time>2026-05-25T10:28:41Z</time>
      </trkpt>
      <trkpt lat="45.39226" lon="5.65048">
        <ele>462</ele>
        <time>2026-05-25T10:28:51Z</time>
      </trkpt>
      <trkpt lat="45.39235" lon="5.65104">
        <ele>461</ele>
        <time>2026-05-25T10:29:00Z</time>
      </trkpt>
      <trkpt lat="45.39239" lon="5.65129">
        <ele>461</ele>
        <time>2026-05-25T10:29:04Z</time>
      </trkpt>
      <trkpt lat="45.39241" lon="5.65159">
        <ele>461</ele>
        <time>2026-05-25T10:29:09Z</time>
      </trkpt>
      <trkpt lat="45.39241" lon="5.65184">
        <ele>460</ele>
        <time>2026-05-25T10:29:13Z</time>
      </trkpt>
      <trkpt lat="45.39264" lon="5.65175">
        <ele>461</ele>
        <time>2026-05-25T10:29:19Z</time>
      </trkpt>
      <trkpt lat="45.39281" lon="5.65173">
        <ele>462</ele>
        <time>2026-05-25T10:29:23Z</time>
      </trkpt>
      <trkpt lat="45.39299" lon="5.65173">
        <ele>462</ele>
        <time>2026-05-25T10:29:27Z</time>
      </trkpt>
      <trkpt lat="45.39322" lon="5.65178">
        <ele>463</ele>
        <time>2026-05-25T10:29:32Z</time>
      </trkpt>
      <trkpt lat="45.39326" lon="5.65178">
        <ele>463</ele>
        <time>2026-05-25T10:29:33Z</time>
      </trkpt>
      <trkpt lat="45.3933" lon="5.65175">
        <ele>463</ele>
        <time>2026-05-25T10:29:34Z</time>
      </trkpt>
      <trkpt lat="45.39333" lon="5.65169">
        <ele>463</ele>
        <time>2026-05-25T10:29:36Z</time>
      </trkpt>
      <trkpt lat="45.39335" lon="5.65154">
        <ele>464</ele>
        <time>2026-05-25T10:29:38Z</time>
      </trkpt>
      <trkpt lat="45.39336" lon="5.65142">
        <ele>464</ele>
        <time>2026-05-25T10:29:40Z</time>
      </trkpt>
      <trkpt lat="45.39345" lon="5.65114">
        <ele>466</ele>
        <time>2026-05-25T10:29:45Z</time>
      </trkpt>
      <trkpt lat="45.39348" lon="5.65104">
        <ele>466</ele>
        <time>2026-05-25T10:29:47Z</time>
      </trkpt>
      <trkpt lat="45.3935" lon="5.65078">
        <ele>467</ele>
        <time>2026-05-25T10:29:51Z</time>
      </trkpt>
      <trkpt lat="45.39351" lon="5.65068">
        <ele>467</ele>
        <time>2026-05-25T10:29:53Z</time>
      </trkpt>
      <trkpt lat="45.39353" lon="5.65062">
        <ele>467</ele>
        <time>2026-05-25T10:29:54Z</time>
      </trkpt>
      <trkpt lat="45.39357" lon="5.65056">
        <ele>467</ele>
        <time>2026-05-25T10:29:55Z</time>
      </trkpt>
      <trkpt lat="45.39361" lon="5.65052">
        <ele>468</ele>
        <time>2026-05-25T10:29:56Z</time>
      </trkpt>
      <trkpt lat="45.39379" lon="5.65046">
        <ele>469</ele>
        <time>2026-05-25T10:30:01Z</time>
      </trkpt>
      <trkpt lat="45.39387" lon="5.65042">
        <ele>470</ele>
        <time>2026-05-25T10:30:03Z</time>
      </trkpt>
      <trkpt lat="45.39397" lon="5.65036">
        <ele>470</ele>
        <time>2026-05-25T10:30:05Z</time>
      </trkpt>
      <trkpt lat="45.39407" lon="5.65032">
        <ele>471</ele>
        <time>2026-05-25T10:30:08Z</time>
      </trkpt>
      <trkpt lat="45.39422" lon="5.65032">
        <ele>472</ele>
        <time>2026-05-25T10:30:11Z</time>
      </trkpt>
      <trkpt lat="45.39435" lon="5.65061">
        <ele>477</ele>
        <time>2026-05-25T10:30:17Z</time>
      </trkpt>
      <trkpt lat="45.39452" lon="5.65082">
        <ele>482</ele>
        <time>2026-05-25T10:30:22Z</time>
      </trkpt>
      <trkpt lat="45.39459" lon="5.65093">
        <ele>484</ele>
        <time>2026-05-25T10:30:25Z</time>
      </trkpt>
      <trkpt lat="45.39493" lon="5.65107">
        <ele>493</ele>
        <time>2026-05-25T10:30:33Z</time>
      </trkpt>
      <trkpt lat="45.39543" lon="5.65138">
        <ele>503</ele>
        <time>2026-05-25T10:30:46Z</time>
      </trkpt>
      <trkpt lat="45.39587" lon="5.65168">
        <ele>514</ele>
        <time>2026-05-25T10:30:57Z</time>
      </trkpt>
      <trkpt lat="45.39627" lon="5.65194">
        <ele>519</ele>
        <time>2026-05-25T10:31:07Z</time>
      </trkpt>
      <trkpt lat="45.39656" lon="5.65215">
        <ele>523</ele>
        <time>2026-05-25T10:31:15Z</time>
      </trkpt>
      <trkpt lat="45.39681" lon="5.65245">
        <ele>529</ele>
        <time>2026-05-25T10:31:22Z</time>
      </trkpt>
      <trkpt lat="45.39705" lon="5.65294">
        <ele>540</ele>
        <time>2026-05-25T10:31:32Z</time>
      </trkpt>
      <trkpt lat="45.39724" lon="5.65351">
        <ele>552</ele>
        <time>2026-05-25T10:31:43Z</time>
      </trkpt>
      <trkpt lat="45.3973" lon="5.65364">
        <ele>554</ele>
        <time>2026-05-25T10:31:45Z</time>
      </trkpt>
      <trkpt lat="45.39747" lon="5.65382">
        <ele>557</ele>
        <time>2026-05-25T10:31:50Z</time>
      </trkpt>
      <trkpt lat="45.39755" lon="5.65399">
        <ele>559</ele>
        <time>2026-05-25T10:31:53Z</time>
      </trkpt>
      <trkpt lat="45.39767" lon="5.65441">
        <ele>565</ele>
        <time>2026-05-25T10:32:01Z</time>
      </trkpt>
      <trkpt lat="45.39787" lon="5.65471">
        <ele>568</ele>
        <time>2026-05-25T10:32:08Z</time>
      </trkpt>
      <trkpt lat="45.39842" lon="5.65587">
        <ele>583</ele>
        <time>2026-05-25T10:32:31Z</time>
      </trkpt>
      <trkpt lat="45.39864" lon="5.65616">
        <ele>583</ele>
        <time>2026-05-25T10:32:38Z</time>
      </trkpt>
      <trkpt lat="45.39904" lon="5.6566">
        <ele>586</ele>
        <time>2026-05-25T10:32:49Z</time>
      </trkpt>
      <trkpt lat="45.39907" lon="5.65664">
        <ele>586</ele>
        <time>2026-05-25T10:32:50Z</time>
      </trkpt>
      <trkpt lat="45.39933" lon="5.65683">
        <ele>585</ele>
        <time>2026-05-25T10:32:57Z</time>
      </trkpt>
      <trkpt lat="45.39947" lon="5.65695">
        <ele>585</ele>
        <time>2026-05-25T10:33:01Z</time>
      </trkpt>
      <trkpt lat="45.39968" lon="5.65718">
        <ele>585</ele>
        <time>2026-05-25T10:33:07Z</time>
      </trkpt>
      <trkpt lat="45.3999" lon="5.65752">
        <ele>585</ele>
        <time>2026-05-25T10:33:15Z</time>
      </trkpt>
      <trkpt lat="45.39998" lon="5.65769">
        <ele>584</ele>
        <time>2026-05-25T10:33:18Z</time>
      </trkpt>
      <trkpt lat="45.40018" lon="5.65792">
        <ele>584</ele>
        <time>2026-05-25T10:33:24Z</time>
      </trkpt>
      <trkpt lat="45.40034" lon="5.65806">
        <ele>585</ele>
        <time>2026-05-25T10:33:29Z</time>
      </trkpt>
      <trkpt lat="45.40075" lon="5.65856">
        <ele>587</ele>
        <time>2026-05-25T10:33:41Z</time>
      </trkpt>
      <trkpt lat="45.40133" lon="5.65912">
        <ele>590</ele>
        <time>2026-05-25T10:33:57Z</time>
      </trkpt>
      <trkpt lat="45.40156" lon="5.65929">
        <ele>590</ele>
        <time>2026-05-25T10:34:04Z</time>
      </trkpt>
      <trkpt lat="45.4019" lon="5.65943">
        <ele>592</ele>
        <time>2026-05-25T10:34:12Z</time>
      </trkpt>
      <trkpt lat="45.40205" lon="5.65944">
        <ele>594</ele>
        <time>2026-05-25T10:34:15Z</time>
      </trkpt>
      <trkpt lat="45.40208" lon="5.65952">
        <ele>594</ele>
        <time>2026-05-25T10:34:17Z</time>
      </trkpt>
      <trkpt lat="45.40216" lon="5.65964">
        <ele>595</ele>
        <time>2026-05-25T10:34:20Z</time>
      </trkpt>
      <trkpt lat="45.40234" lon="5.65971">
        <ele>598</ele>
        <time>2026-05-25T10:34:24Z</time>
      </trkpt>
      <trkpt lat="45.40251" lon="5.65975">
        <ele>600</ele>
        <time>2026-05-25T10:34:28Z</time>
      </trkpt>
      <trkpt lat="45.4028" lon="5.65969">
        <ele>602</ele>
        <time>2026-05-25T10:34:35Z</time>
      </trkpt>
      <trkpt lat="45.40335" lon="5.66013">
        <ele>610</ele>
        <time>2026-05-25T10:34:49Z</time>
      </trkpt>
      <trkpt lat="45.40361" lon="5.66042">
        <ele>612</ele>
        <time>2026-05-25T10:34:57Z</time>
      </trkpt>
      <trkpt lat="45.40386" lon="5.66057">
        <ele>616</ele>
        <time>2026-05-25T10:35:04Z</time>
      </trkpt>
      <trkpt lat="45.40428" lon="5.66072">
        <ele>624</ele>
        <time>2026-05-25T10:35:14Z</time>
      </trkpt>
      <trkpt lat="45.40436" lon="5.66075">
        <ele>625</ele>
        <time>2026-05-25T10:35:16Z</time>
      </trkpt>
      <trkpt lat="45.4047" lon="5.66082">
        <ele>633</ele>
        <time>2026-05-25T10:35:24Z</time>
      </trkpt>
      <trkpt lat="45.40508" lon="5.66118">
        <ele>634</ele>
        <time>2026-05-25T10:35:34Z</time>
      </trkpt>
      <trkpt lat="45.40564" lon="5.66145">
        <ele>640</ele>
        <time>2026-05-25T10:35:48Z</time>
      </trkpt>
      <trkpt lat="45.40593" lon="5.66171">
        <ele>646</ele>
        <time>2026-05-25T10:35:56Z</time>
      </trkpt>
      <trkpt lat="45.40629" lon="5.66196">
        <ele>645</ele>
        <time>2026-05-25T10:36:05Z</time>
      </trkpt>
      <trkpt lat="45.40662" lon="5.66204">
        <ele>650</ele>
        <time>2026-05-25T10:36:13Z</time>
      </trkpt>
      <trkpt lat="45.4069" lon="5.66217">
        <ele>653</ele>
        <time>2026-05-25T10:36:20Z</time>
      </trkpt>
      <trkpt lat="45.40739" lon="5.66252">
        <ele>660</ele>
        <time>2026-05-25T10:36:33Z</time>
      </trkpt>
      <trkpt lat="45.40759" lon="5.66263">
        <ele>661</ele>
        <time>2026-05-25T10:36:38Z</time>
      </trkpt>
      <trkpt lat="45.4078" lon="5.66269">
        <ele>665</ele>
        <time>2026-05-25T10:36:43Z</time>
      </trkpt>
      <trkpt lat="45.40828" lon="5.66275">
        <ele>675</ele>
        <time>2026-05-25T10:36:54Z</time>
      </trkpt>
      <trkpt lat="45.40893" lon="5.66292">
        <ele>684</ele>
        <time>2026-05-25T10:37:10Z</time>
      </trkpt>
      <trkpt lat="45.40907" lon="5.66293">
        <ele>687</ele>
        <time>2026-05-25T10:37:13Z</time>
      </trkpt>
      <trkpt lat="45.4093" lon="5.66297">
        <ele>690</ele>
        <time>2026-05-25T10:37:18Z</time>
      </trkpt>
      <trkpt lat="45.40937" lon="5.66296">
        <ele>690</ele>
        <time>2026-05-25T10:37:20Z</time>
      </trkpt>
      <trkpt lat="45.40947" lon="5.66288">
        <ele>692</ele>
        <time>2026-05-25T10:37:23Z</time>
      </trkpt>
      <trkpt lat="45.40958" lon="5.66276">
        <ele>693</ele>
        <time>2026-05-25T10:37:26Z</time>
      </trkpt>
      <trkpt lat="45.40976" lon="5.66264">
        <ele>695</ele>
        <time>2026-05-25T10:37:30Z</time>
      </trkpt>
      <trkpt lat="45.40994" lon="5.66244">
        <ele>696</ele>
        <time>2026-05-25T10:37:36Z</time>
      </trkpt>
      <trkpt lat="45.40999" lon="5.66242">
        <ele>696</ele>
        <time>2026-05-25T10:37:37Z</time>
      </trkpt>
      <trkpt lat="45.41007" lon="5.66247">
        <ele>697</ele>
        <time>2026-05-25T10:37:39Z</time>
      </trkpt>
      <trkpt lat="45.41038" lon="5.6627">
        <ele>699</ele>
        <time>2026-05-25T10:37:47Z</time>
      </trkpt>
      <trkpt lat="45.41054" lon="5.66277">
        <ele>700</ele>
        <time>2026-05-25T10:37:51Z</time>
      </trkpt>
      <trkpt lat="45.4107" lon="5.66283">
        <ele>701</ele>
        <time>2026-05-25T10:37:55Z</time>
      </trkpt>
      <trkpt lat="45.41084" lon="5.66283">
        <ele>702</ele>
        <time>2026-05-25T10:37:58Z</time>
      </trkpt>
      <trkpt lat="45.41108" lon="5.66271">
        <ele>706</ele>
        <time>2026-05-25T10:38:04Z</time>
      </trkpt>
      <trkpt lat="45.41142" lon="5.66248">
        <ele>712</ele>
        <time>2026-05-25T10:38:13Z</time>
      </trkpt>
      <trkpt lat="45.41175" lon="5.66221">
        <ele>719</ele>
        <time>2026-05-25T10:38:22Z</time>
      </trkpt>
      <trkpt lat="45.41178" lon="5.66215">
        <ele>720</ele>
        <time>2026-05-25T10:38:23Z</time>
      </trkpt>
      <trkpt lat="45.41179" lon="5.66185">
        <ele>721</ele>
        <time>2026-05-25T10:38:28Z</time>
      </trkpt>
      <trkpt lat="45.41183" lon="5.66154">
        <ele>723</ele>
        <time>2026-05-25T10:38:33Z</time>
      </trkpt>
      <trkpt lat="45.4119" lon="5.66117">
        <ele>727</ele>
        <time>2026-05-25T10:38:39Z</time>
      </trkpt>
      <trkpt lat="45.41195" lon="5.66103">
        <ele>729</ele>
        <time>2026-05-25T10:38:42Z</time>
      </trkpt>
      <trkpt lat="45.41202" lon="5.66092">
        <ele>732</ele>
        <time>2026-05-25T10:38:44Z</time>
      </trkpt>
      <trkpt lat="45.41213" lon="5.66075">
        <ele>734</ele>
        <time>2026-05-25T10:38:48Z</time>
      </trkpt>
      <trkpt lat="45.41224" lon="5.66065">
        <ele>736</ele>
        <time>2026-05-25T10:38:51Z</time>
      </trkpt>
      <trkpt lat="45.41263" lon="5.6604">
        <ele>743</ele>
        <time>2026-05-25T10:39:01Z</time>
      </trkpt>
      <trkpt lat="45.41272" lon="5.66036">
        <ele>745</ele>
        <time>2026-05-25T10:39:03Z</time>
      </trkpt>
      <trkpt lat="45.41287" lon="5.66034">
        <ele>748</ele>
        <time>2026-05-25T10:39:07Z</time>
      </trkpt>
      <trkpt lat="45.41318" lon="5.66019">
        <ele>752</ele>
        <time>2026-05-25T10:39:15Z</time>
      </trkpt>
      <trkpt lat="45.4135" lon="5.66001">
        <ele>757</ele>
        <time>2026-05-25T10:39:23Z</time>
      </trkpt>
      <trkpt lat="45.41388" lon="5.65974">
        <ele>760</ele>
        <time>2026-05-25T10:39:33Z</time>
      </trkpt>
      <trkpt lat="45.41423" lon="5.65945">
        <ele>765</ele>
        <time>2026-05-25T10:39:42Z</time>
      </trkpt>
      <trkpt lat="45.4143" lon="5.65937">
        <ele>766</ele>
        <time>2026-05-25T10:39:44Z</time>
      </trkpt>
      <trkpt lat="45.41435" lon="5.65925">
        <ele>766</ele>
        <time>2026-05-25T10:39:46Z</time>
      </trkpt>
      <trkpt lat="45.41437" lon="5.65916">
        <ele>765</ele>
        <time>2026-05-25T10:39:48Z</time>
      </trkpt>
      <trkpt lat="45.41439" lon="5.65905">
        <ele>765</ele>
        <time>2026-05-25T10:39:50Z</time>
      </trkpt>
      <trkpt lat="45.4144" lon="5.65882">
        <ele>764</ele>
        <time>2026-05-25T10:39:54Z</time>
      </trkpt>
      <trkpt lat="45.41442" lon="5.65871">
        <ele>764</ele>
        <time>2026-05-25T10:39:55Z</time>
      </trkpt>
      <trkpt lat="45.41446" lon="5.65861">
        <ele>764</ele>
        <time>2026-05-25T10:39:57Z</time>
      </trkpt>
      <trkpt lat="45.41451" lon="5.65852">
        <ele>764</ele>
        <time>2026-05-25T10:39:59Z</time>
      </trkpt>
      <trkpt lat="45.41477" lon="5.65826">
        <ele>768</ele>
        <time>2026-05-25T10:40:07Z</time>
      </trkpt>
      <trkpt lat="45.41487" lon="5.6582">
        <ele>769</ele>
        <time>2026-05-25T10:40:09Z</time>
      </trkpt>
      <trkpt lat="45.41495" lon="5.65818">
        <ele>770</ele>
        <time>2026-05-25T10:40:11Z</time>
      </trkpt>
      <trkpt lat="45.41502" lon="5.65816">
        <ele>771</ele>
        <time>2026-05-25T10:40:13Z</time>
      </trkpt>
      <trkpt lat="45.41513" lon="5.65815">
        <ele>772</ele>
        <time>2026-05-25T10:40:15Z</time>
      </trkpt>
      <trkpt lat="45.41528" lon="5.65828">
        <ele>774</ele>
        <time>2026-05-25T10:40:19Z</time>
      </trkpt>
      <trkpt lat="45.41543" lon="5.65846">
        <ele>777</ele>
        <time>2026-05-25T10:40:24Z</time>
      </trkpt>
      <trkpt lat="45.41554" lon="5.65852">
        <ele>779</ele>
        <time>2026-05-25T10:40:27Z</time>
      </trkpt>
      <trkpt lat="45.41563" lon="5.65853">
        <ele>780</ele>
        <time>2026-05-25T10:40:29Z</time>
      </trkpt>
      <trkpt lat="45.41586" lon="5.65851">
        <ele>781</ele>
        <time>2026-05-25T10:40:34Z</time>
      </trkpt>
      <trkpt lat="45.41612" lon="5.6585">
        <ele>782</ele>
        <time>2026-05-25T10:40:40Z</time>
      </trkpt>
      <trkpt lat="45.41622" lon="5.65851">
        <ele>782</ele>
        <time>2026-05-25T10:40:43Z</time>
      </trkpt>
      <trkpt lat="45.41672" lon="5.65868">
        <ele>786</ele>
        <time>2026-05-25T10:40:55Z</time>
      </trkpt>
      <trkpt lat="45.41685" lon="5.65867">
        <ele>788</ele>
        <time>2026-05-25T10:40:58Z</time>
      </trkpt>
      <trkpt lat="45.41698" lon="5.6586">
        <ele>789</ele>
        <time>2026-05-25T10:41:01Z</time>
      </trkpt>
      <trkpt lat="45.4171" lon="5.6585">
        <ele>790</ele>
        <time>2026-05-25T10:41:04Z</time>
      </trkpt>
      <trkpt lat="45.41722" lon="5.65841">
        <ele>791</ele>
        <time>2026-05-25T10:41:07Z</time>
      </trkpt>
      <trkpt lat="45.41732" lon="5.65836">
        <ele>792</ele>
        <time>2026-05-25T10:41:10Z</time>
      </trkpt>
      <trkpt lat="45.41741" lon="5.65833">
        <ele>793</ele>
        <time>2026-05-25T10:41:12Z</time>
      </trkpt>
      <trkpt lat="45.41747" lon="5.65828">
        <ele>794</ele>
        <time>2026-05-25T10:41:14Z</time>
      </trkpt>
      <trkpt lat="45.41752" lon="5.65819">
        <ele>794</ele>
        <time>2026-05-25T10:41:16Z</time>
      </trkpt>
      <trkpt lat="45.41762" lon="5.65789">
        <ele>793</ele>
        <time>2026-05-25T10:41:21Z</time>
      </trkpt>
      <trkpt lat="45.41765" lon="5.65784">
        <ele>793</ele>
        <time>2026-05-25T10:41:22Z</time>
      </trkpt>
      <trkpt lat="45.41772" lon="5.65779">
        <ele>794</ele>
        <time>2026-05-25T10:41:24Z</time>
      </trkpt>
      <trkpt lat="45.41781" lon="5.65778">
        <ele>796</ele>
        <time>2026-05-25T10:41:26Z</time>
      </trkpt>
      <trkpt lat="45.41806" lon="5.65783">
        <ele>802</ele>
        <time>2026-05-25T10:41:32Z</time>
      </trkpt>
      <trkpt lat="45.41823" lon="5.65794">
        <ele>807</ele>
        <time>2026-05-25T10:41:36Z</time>
      </trkpt>
      <trkpt lat="45.41829" lon="5.65797">
        <ele>808</ele>
        <time>2026-05-25T10:41:38Z</time>
      </trkpt>
      <trkpt lat="45.41833" lon="5.65797">
        <ele>809</ele>
        <time>2026-05-25T10:41:39Z</time>
      </trkpt>
      <trkpt lat="45.41839" lon="5.65794">
        <ele>810</ele>
        <time>2026-05-25T10:41:40Z</time>
      </trkpt>
      <trkpt lat="45.41889" lon="5.65752">
        <ele>818</ele>
        <time>2026-05-25T10:41:54Z</time>
      </trkpt>
      <trkpt lat="45.41893" lon="5.65751">
        <ele>818</ele>
        <time>2026-05-25T10:41:55Z</time>
      </trkpt>
      <trkpt lat="45.41956" lon="5.65735">
        <ele>827</ele>
        <time>2026-05-25T10:42:10Z</time>
      </trkpt>
      <trkpt lat="45.42025" lon="5.65787">
        <ele>840</ele>
        <time>2026-05-25T10:42:28Z</time>
      </trkpt>
      <trkpt lat="45.42075" lon="5.65874">
        <ele>848</ele>
        <time>2026-05-25T10:42:46Z</time>
      </trkpt>
      <trkpt lat="45.42176" lon="5.65939">
        <ele>858</ele>
        <time>2026-05-25T10:43:12Z</time>
      </trkpt>
      <trkpt lat="45.42202" lon="5.65966">
        <ele>862</ele>
        <time>2026-05-25T10:43:20Z</time>
      </trkpt>
      <trkpt lat="45.42252" lon="5.66016">
        <ele>868</ele>
        <time>2026-05-25T10:43:34Z</time>
      </trkpt>
      <trkpt lat="45.42274" lon="5.66039">
        <ele>873</ele>
        <time>2026-05-25T10:43:40Z</time>
      </trkpt>
      <trkpt lat="45.42385" lon="5.66131">
        <ele>879</ele>
        <time>2026-05-25T10:44:10Z</time>
      </trkpt>
      <trkpt lat="45.42457" lon="5.66174">
        <ele>882</ele>
        <time>2026-05-25T10:44:29Z</time>
      </trkpt>
      <trkpt lat="45.42497" lon="5.66219">
        <ele>886</ele>
        <time>2026-05-25T10:44:40Z</time>
      </trkpt>
      <trkpt lat="45.42522" lon="5.66262">
        <ele>886</ele>
        <time>2026-05-25T10:44:50Z</time>
      </trkpt>
      <trkpt lat="45.42524" lon="5.66284">
        <ele>886</ele>
        <time>2026-05-25T10:44:53Z</time>
      </trkpt>
      <trkpt lat="45.42528" lon="5.66317">
        <ele>885</ele>
        <time>2026-05-25T10:44:59Z</time>
      </trkpt>
      <trkpt lat="45.42533" lon="5.66333">
        <ele>884</ele>
        <time>2026-05-25T10:45:02Z</time>
      </trkpt>
      <trkpt lat="45.4254" lon="5.66344">
        <ele>883</ele>
        <time>2026-05-25T10:45:04Z</time>
      </trkpt>
      <trkpt lat="45.42521" lon="5.66375">
        <ele>879</ele>
        <time>2026-05-25T10:45:11Z</time>
      </trkpt>
      <trkpt lat="45.42491" lon="5.66389">
        <ele>874</ele>
        <time>2026-05-25T10:45:18Z</time>
      </trkpt>
      <trkpt lat="45.42484" lon="5.66396">
        <ele>873</ele>
        <time>2026-05-25T10:45:20Z</time>
      </trkpt>
      <trkpt lat="45.42482" lon="5.66405">
        <ele>871</ele>
        <time>2026-05-25T10:45:22Z</time>
      </trkpt>
      <trkpt lat="45.42487" lon="5.66415">
        <ele>869</ele>
        <time>2026-05-25T10:45:24Z</time>
      </trkpt>
      <trkpt lat="45.42499" lon="5.66422">
        <ele>868</ele>
        <time>2026-05-25T10:45:27Z</time>
      </trkpt>
      <trkpt lat="45.42502" lon="5.66428">
        <ele>867</ele>
        <time>2026-05-25T10:45:28Z</time>
      </trkpt>
      <trkpt lat="45.42502" lon="5.66437">
        <ele>865</ele>
        <time>2026-05-25T10:45:29Z</time>
      </trkpt>
      <trkpt lat="45.42501" lon="5.66441">
        <ele>864</ele>
        <time>2026-05-25T10:45:30Z</time>
      </trkpt>
      <trkpt lat="45.4249" lon="5.66444">
        <ele>863</ele>
        <time>2026-05-25T10:45:33Z</time>
      </trkpt>
      <trkpt lat="45.42457" lon="5.66466">
        <ele>856</ele>
        <time>2026-05-25T10:45:41Z</time>
      </trkpt>
      <trkpt lat="45.42429" lon="5.66482">
        <ele>851</ele>
        <time>2026-05-25T10:45:48Z</time>
      </trkpt>
      <trkpt lat="45.42439" lon="5.66487">
        <ele>851</ele>
        <time>2026-05-25T10:45:51Z</time>
      </trkpt>
      <trkpt lat="45.42447" lon="5.66497">
        <ele>849</ele>
        <time>2026-05-25T10:45:53Z</time>
      </trkpt>
      <trkpt lat="45.42455" lon="5.66513">
        <ele>847</ele>
        <time>2026-05-25T10:45:56Z</time>
      </trkpt>
      <trkpt lat="45.42465" lon="5.66523">
        <ele>846</ele>
        <time>2026-05-25T10:45:59Z</time>
      </trkpt>
      <trkpt lat="45.4248" lon="5.66534">
        <ele>846</ele>
        <time>2026-05-25T10:46:03Z</time>
      </trkpt>
      <trkpt lat="45.42484" lon="5.66537">
        <ele>846</ele>
        <time>2026-05-25T10:46:04Z</time>
      </trkpt>
      <trkpt lat="45.42495" lon="5.66549">
        <ele>845</ele>
        <time>2026-05-25T10:46:08Z</time>
      </trkpt>
      <trkpt lat="45.42506" lon="5.66565">
        <ele>845</ele>
        <time>2026-05-25T10:46:11Z</time>
      </trkpt>
      <trkpt lat="45.42523" lon="5.66585">
        <ele>847</ele>
        <time>2026-05-25T10:46:16Z</time>
      </trkpt>
      <trkpt lat="45.42554" lon="5.66616">
        <ele>852</ele>
        <time>2026-05-25T10:46:25Z</time>
      </trkpt>
      <trkpt lat="45.42558" lon="5.66622">
        <ele>852</ele>
        <time>2026-05-25T10:46:27Z</time>
      </trkpt>
      <trkpt lat="45.42562" lon="5.66631">
        <ele>852</ele>
        <time>2026-05-25T10:46:28Z</time>
      </trkpt>
      <trkpt lat="45.42567" lon="5.66644">
        <ele>852</ele>
        <time>2026-05-25T10:46:31Z</time>
      </trkpt>
      <trkpt lat="45.42584" lon="5.667">
        <ele>849</ele>
        <time>2026-05-25T10:46:41Z</time>
      </trkpt>
      <trkpt lat="45.42593" lon="5.66724">
        <ele>850</ele>
        <time>2026-05-25T10:46:45Z</time>
      </trkpt>
      <trkpt lat="45.426" lon="5.6674">
        <ele>850</ele>
        <time>2026-05-25T10:46:48Z</time>
      </trkpt>
      <trkpt lat="45.42606" lon="5.66759">
        <ele>850</ele>
        <time>2026-05-25T10:46:52Z</time>
      </trkpt>
      <trkpt lat="45.42613" lon="5.66792">
        <ele>848</ele>
        <time>2026-05-25T10:46:57Z</time>
      </trkpt>
      <trkpt lat="45.42627" lon="5.66845">
        <ele>845</ele>
        <time>2026-05-25T10:47:07Z</time>
      </trkpt>
      <trkpt lat="45.42634" lon="5.66867">
        <ele>845</ele>
        <time>2026-05-25T10:47:11Z</time>
      </trkpt>
      <trkpt lat="45.42641" lon="5.66887">
        <ele>844</ele>
        <time>2026-05-25T10:47:14Z</time>
      </trkpt>
      <trkpt lat="45.42653" lon="5.66915">
        <ele>844</ele>
        <time>2026-05-25T10:47:20Z</time>
      </trkpt>
      <trkpt lat="45.42661" lon="5.66935">
        <ele>846</ele>
        <time>2026-05-25T10:47:23Z</time>
      </trkpt>
      <trkpt lat="45.42666" lon="5.66955">
        <ele>847</ele>
        <time>2026-05-25T10:47:27Z</time>
      </trkpt>
      <trkpt lat="45.42667" lon="5.66965">
        <ele>847</ele>
        <time>2026-05-25T10:47:29Z</time>
      </trkpt>
      <trkpt lat="45.42669" lon="5.67018">
        <ele>851</ele>
        <time>2026-05-25T10:47:37Z</time>
      </trkpt>
      <trkpt lat="45.42665" lon="5.67046">
        <ele>853</ele>
        <time>2026-05-25T10:47:42Z</time>
      </trkpt>
      <trkpt lat="45.42664" lon="5.67088">
        <ele>859</ele>
        <time>2026-05-25T10:47:49Z</time>
      </trkpt>
      <trkpt lat="45.42663" lon="5.67097">
        <ele>859</ele>
        <time>2026-05-25T10:47:50Z</time>
      </trkpt>
      <trkpt lat="45.4266" lon="5.67107">
        <ele>859</ele>
        <time>2026-05-25T10:47:52Z</time>
      </trkpt>
      <trkpt lat="45.42657" lon="5.67115">
        <ele>859</ele>
        <time>2026-05-25T10:47:54Z</time>
      </trkpt>
      <trkpt lat="45.42645" lon="5.67136">
        <ele>858</ele>
        <time>2026-05-25T10:47:58Z</time>
      </trkpt>
      <trkpt lat="45.42644" lon="5.67141">
        <ele>859</ele>
        <time>2026-05-25T10:47:59Z</time>
      </trkpt>
      <trkpt lat="45.42643" lon="5.67147">
        <ele>859</ele>
        <time>2026-05-25T10:48:00Z</time>
      </trkpt>
      <trkpt lat="45.42644" lon="5.67151">
        <ele>860</ele>
        <time>2026-05-25T10:48:01Z</time>
      </trkpt>
      <trkpt lat="45.42646" lon="5.67155">
        <ele>861</ele>
        <time>2026-05-25T10:48:01Z</time>
      </trkpt>
      <trkpt lat="45.42648" lon="5.67156">
        <ele>861</ele>
        <time>2026-05-25T10:48:02Z</time>
      </trkpt>
      <trkpt lat="45.42652" lon="5.67157">
        <ele>862</ele>
        <time>2026-05-25T10:48:03Z</time>
      </trkpt>
      <trkpt lat="45.42662" lon="5.67158">
        <ele>865</ele>
        <time>2026-05-25T10:48:05Z</time>
      </trkpt>
      <trkpt lat="45.42677" lon="5.67134">
        <ele>867</ele>
        <time>2026-05-25T10:48:10Z</time>
      </trkpt>
      <trkpt lat="45.42694" lon="5.67113">
        <ele>872</ele>
        <time>2026-05-25T10:48:16Z</time>
      </trkpt>
      <trkpt lat="45.42698" lon="5.67104">
        <ele>872</ele>
        <time>2026-05-25T10:48:17Z</time>
      </trkpt>
      <trkpt lat="45.42701" lon="5.67095">
        <ele>873</ele>
        <time>2026-05-25T10:48:19Z</time>
      </trkpt>
      <trkpt lat="45.42706" lon="5.67084">
        <ele>874</ele>
        <time>2026-05-25T10:48:21Z</time>
      </trkpt>
      <trkpt lat="45.42714" lon="5.67074">
        <ele>876</ele>
        <time>2026-05-25T10:48:24Z</time>
      </trkpt>
      <trkpt lat="45.4272" lon="5.67072">
        <ele>878</ele>
        <time>2026-05-25T10:48:25Z</time>
      </trkpt>
      <trkpt lat="45.42725" lon="5.67072">
        <ele>880</ele>
        <time>2026-05-25T10:48:26Z</time>
      </trkpt>
      <trkpt lat="45.42731" lon="5.67074">
        <ele>883</ele>
        <time>2026-05-25T10:48:28Z</time>
      </trkpt>
      <trkpt lat="45.42737" lon="5.67079">
        <ele>886</ele>
        <time>2026-05-25T10:48:29Z</time>
      </trkpt>
      <trkpt lat="45.42739" lon="5.67083">
        <ele>887</ele>
        <time>2026-05-25T10:48:30Z</time>
      </trkpt>
      <trkpt lat="45.42741" lon="5.67088">
        <ele>888</ele>
        <time>2026-05-25T10:48:31Z</time>
      </trkpt>
      <trkpt lat="45.42747" lon="5.6711">
        <ele>890</ele>
        <time>2026-05-25T10:48:35Z</time>
      </trkpt>
      <trkpt lat="45.42754" lon="5.67111">
        <ele>891</ele>
        <time>2026-05-25T10:48:37Z</time>
      </trkpt>
      <trkpt lat="45.4276" lon="5.67105">
        <ele>892</ele>
        <time>2026-05-25T10:48:38Z</time>
      </trkpt>
      <trkpt lat="45.42769" lon="5.67085">
        <ele>892</ele>
        <time>2026-05-25T10:48:42Z</time>
      </trkpt>
      <trkpt lat="45.42782" lon="5.67072">
        <ele>893</ele>
        <time>2026-05-25T10:48:46Z</time>
      </trkpt>
      <trkpt lat="45.42791" lon="5.67072">
        <ele>893</ele>
        <time>2026-05-25T10:48:48Z</time>
      </trkpt>
      <trkpt lat="45.42784" lon="5.67105">
        <ele>892</ele>
        <time>2026-05-25T10:48:54Z</time>
      </trkpt>
      <trkpt lat="45.42783" lon="5.67148">
        <ele>891</ele>
        <time>2026-05-25T10:49:01Z</time>
      </trkpt>
      <trkpt lat="45.42783" lon="5.6724">
        <ele>899</ele>
        <time>2026-05-25T10:49:16Z</time>
      </trkpt>
      <trkpt lat="45.42789" lon="5.67273">
        <ele>904</ele>
        <time>2026-05-25T10:49:21Z</time>
      </trkpt>
      <trkpt lat="45.42806" lon="5.67297">
        <ele>910</ele>
        <time>2026-05-25T10:49:27Z</time>
      </trkpt>
      <trkpt lat="45.42817" lon="5.67305">
        <ele>913</ele>
        <time>2026-05-25T10:49:30Z</time>
      </trkpt>
      <trkpt lat="45.42839" lon="5.67304">
        <ele>913</ele>
        <time>2026-05-25T10:49:35Z</time>
      </trkpt>
      <trkpt lat="45.42843" lon="5.67305">
        <ele>912</ele>
        <time>2026-05-25T10:49:36Z</time>
      </trkpt>
      <trkpt lat="45.42847" lon="5.67333">
        <ele>919</ele>
        <time>2026-05-25T10:49:41Z</time>
      </trkpt>
      <trkpt lat="45.42862" lon="5.67379">
        <ele>924</ele>
        <time>2026-05-25T10:49:49Z</time>
      </trkpt>
      <trkpt lat="45.42864" lon="5.67402">
        <ele>928</ele>
        <time>2026-05-25T10:49:53Z</time>
      </trkpt>
      <trkpt lat="45.42874" lon="5.67414">
        <ele>930</ele>
        <time>2026-05-25T10:49:56Z</time>
      </trkpt>
      <trkpt lat="45.42885" lon="5.67413">
        <ele>929</ele>
        <time>2026-05-25T10:49:58Z</time>
      </trkpt>
      <trkpt lat="45.42896" lon="5.67416">
        <ele>929</ele>
        <time>2026-05-25T10:50:01Z</time>
      </trkpt>
      <trkpt lat="45.42925" lon="5.67439">
        <ele>930</ele>
        <time>2026-05-25T10:50:09Z</time>
      </trkpt>
      <trkpt lat="45.4294" lon="5.67441">
        <ele>927</ele>
        <time>2026-05-25T10:50:12Z</time>
      </trkpt>
      <trkpt lat="45.42957" lon="5.6747">
        <ele>928</ele>
        <time>2026-05-25T10:50:18Z</time>
      </trkpt>
      <trkpt lat="45.42955" lon="5.67476">
        <ele>929</ele>
        <time>2026-05-25T10:50:20Z</time>
      </trkpt>
      <trkpt lat="45.42949" lon="5.67476">
        <ele>930</ele>
        <time>2026-05-25T10:50:21Z</time>
      </trkpt>
      <trkpt lat="45.42943" lon="5.67477">
        <ele>931</ele>
        <time>2026-05-25T10:50:22Z</time>
      </trkpt>
      <trkpt lat="45.42934" lon="5.67489">
        <ele>934</ele>
        <time>2026-05-25T10:50:25Z</time>
      </trkpt>
      <trkpt lat="45.42933" lon="5.67496">
        <ele>935</ele>
        <time>2026-05-25T10:50:26Z</time>
      </trkpt>
      <trkpt lat="45.42945" lon="5.67536">
        <ele>934</ele>
        <time>2026-05-25T10:50:34Z</time>
      </trkpt>
      <trkpt lat="45.42968" lon="5.67575">
        <ele>932</ele>
        <time>2026-05-25T10:50:42Z</time>
      </trkpt>
      <trkpt lat="45.42962" lon="5.67638">
        <ele>931</ele>
        <time>2026-05-25T10:50:52Z</time>
      </trkpt>
      <trkpt lat="45.42944" lon="5.67688">
        <ele>931</ele>
        <time>2026-05-25T10:51:01Z</time>
      </trkpt>
      <trkpt lat="45.42956" lon="5.67688">
        <ele>930</ele>
        <time>2026-05-25T10:51:04Z</time>
      </trkpt>
      <trkpt lat="45.42978" lon="5.67685">
        <ele>928</ele>
        <time>2026-05-25T10:51:09Z</time>
      </trkpt>
      <trkpt lat="45.43018" lon="5.67674">
        <ele>921</ele>
        <time>2026-05-25T10:51:19Z</time>
      </trkpt>
      <trkpt lat="45.43049" lon="5.67662">
        <ele>913</ele>
        <time>2026-05-25T10:51:26Z</time>
      </trkpt>
      <trkpt lat="45.43072" lon="5.67667">
        <ele>907</ele>
        <time>2026-05-25T10:51:32Z</time>
      </trkpt>
      <trkpt lat="45.43097" lon="5.67679">
        <ele>901</ele>
        <time>2026-05-25T10:51:38Z</time>
      </trkpt>
      <trkpt lat="45.43127" lon="5.67681">
        <ele>897</ele>
        <time>2026-05-25T10:51:45Z</time>
      </trkpt>
      <trkpt lat="45.4313" lon="5.67676">
        <ele>897</ele>
        <time>2026-05-25T10:51:46Z</time>
      </trkpt>
      <trkpt lat="45.43142" lon="5.67664">
        <ele>895</ele>
        <time>2026-05-25T10:51:50Z</time>
      </trkpt>
      <trkpt lat="45.43157" lon="5.67656">
        <ele>892</ele>
        <time>2026-05-25T10:51:53Z</time>
      </trkpt>
      <trkpt lat="45.43168" lon="5.6766">
        <ele>891</ele>
        <time>2026-05-25T10:51:56Z</time>
      </trkpt>
      <trkpt lat="45.43186" lon="5.67701">
        <ele>889</ele>
        <time>2026-05-25T10:52:04Z</time>
      </trkpt>
      <trkpt lat="45.43191" lon="5.67749">
        <ele>887</ele>
        <time>2026-05-25T10:52:12Z</time>
      </trkpt>
      <trkpt lat="45.432" lon="5.67764">
        <ele>887</ele>
        <time>2026-05-25T10:52:15Z</time>
      </trkpt>
      <trkpt lat="45.4329" lon="5.67808">
        <ele>884</ele>
        <time>2026-05-25T10:52:37Z</time>
      </trkpt>
      <trkpt lat="45.4331" lon="5.67816">
        <ele>882</ele>
        <time>2026-05-25T10:52:42Z</time>
      </trkpt>
      <trkpt lat="45.43311" lon="5.67789">
        <ele>882</ele>
        <time>2026-05-25T10:52:47Z</time>
      </trkpt>
      <trkpt lat="45.43308" lon="5.67764">
        <ele>883</ele>
        <time>2026-05-25T10:52:51Z</time>
      </trkpt>
      <trkpt lat="45.43304" lon="5.67747">
        <ele>883</ele>
        <time>2026-05-25T10:52:54Z</time>
      </trkpt>
      <trkpt lat="45.433" lon="5.67732">
        <ele>882</ele>
        <time>2026-05-25T10:52:56Z</time>
      </trkpt>
      <trkpt lat="45.43292" lon="5.67715">
        <ele>882</ele>
        <time>2026-05-25T10:53:00Z</time>
      </trkpt>
      <trkpt lat="45.43224" lon="5.67594">
        <ele>873</ele>
        <time>2026-05-25T10:53:25Z</time>
      </trkpt>
      <trkpt lat="45.43185" lon="5.67522">
        <ele>868</ele>
        <time>2026-05-25T10:53:40Z</time>
      </trkpt>
      <trkpt lat="45.43168" lon="5.6749">
        <ele>867</ele>
        <time>2026-05-25T10:53:47Z</time>
      </trkpt>
      <trkpt lat="45.4316" lon="5.67435">
        <ele>861</ele>
        <time>2026-05-25T10:53:56Z</time>
      </trkpt>
      <trkpt lat="45.43172" lon="5.67285">
        <ele>850</ele>
        <time>2026-05-25T10:54:20Z</time>
      </trkpt>
      <trkpt lat="45.4316" lon="5.67203">
        <ele>847</ele>
        <time>2026-05-25T10:54:34Z</time>
      </trkpt>
      <trkpt lat="45.43146" lon="5.6719">
        <ele>849</ele>
        <time>2026-05-25T10:54:38Z</time>
      </trkpt>
      <trkpt lat="45.43132" lon="5.67181">
        <ele>851</ele>
        <time>2026-05-25T10:54:42Z</time>
      </trkpt>
      <trkpt lat="45.43115" lon="5.67184">
        <ele>855</ele>
        <time>2026-05-25T10:54:46Z</time>
      </trkpt>
      <trkpt lat="45.43099" lon="5.67192">
        <ele>859</ele>
        <time>2026-05-25T10:54:50Z</time>
      </trkpt>
      <trkpt lat="45.43077" lon="5.67201">
        <ele>863</ele>
        <time>2026-05-25T10:54:55Z</time>
      </trkpt>
      <trkpt lat="45.4305" lon="5.67201">
        <ele>865</ele>
        <time>2026-05-25T10:55:01Z</time>
      </trkpt>
      <trkpt lat="45.4304" lon="5.67206">
        <ele>867</ele>
        <time>2026-05-25T10:55:04Z</time>
      </trkpt>
      <trkpt lat="45.43032" lon="5.67173">
        <ele>865</ele>
        <time>2026-05-25T10:55:10Z</time>
      </trkpt>
      <trkpt lat="45.43012" lon="5.67147">
        <ele>866</ele>
        <time>2026-05-25T10:55:16Z</time>
      </trkpt>
      <trkpt lat="45.42997" lon="5.67125">
        <ele>869</ele>
        <time>2026-05-25T10:55:21Z</time>
      </trkpt>
      <trkpt lat="45.42979" lon="5.67112">
        <ele>870</ele>
        <time>2026-05-25T10:55:26Z</time>
      </trkpt>
      <trkpt lat="45.42956" lon="5.67083">
        <ele>872</ele>
        <time>2026-05-25T10:55:33Z</time>
      </trkpt>
      <trkpt lat="45.42926" lon="5.67015">
        <ele>880</ele>
        <time>2026-05-25T10:55:46Z</time>
      </trkpt>
      <trkpt lat="45.42895" lon="5.66964">
        <ele>885</ele>
        <time>2026-05-25T10:55:57Z</time>
      </trkpt>
      <trkpt lat="45.42879" lon="5.66886">
        <ele>883</ele>
        <time>2026-05-25T10:56:10Z</time>
      </trkpt>
      <trkpt lat="45.4286" lon="5.66854">
        <ele>885</ele>
        <time>2026-05-25T10:56:17Z</time>
      </trkpt>
      <trkpt lat="45.42845" lon="5.66824">
        <ele>886</ele>
        <time>2026-05-25T10:56:23Z</time>
      </trkpt>
      <trkpt lat="45.42819" lon="5.66769">
        <ele>884</ele>
        <time>2026-05-25T10:56:34Z</time>
      </trkpt>
      <trkpt lat="45.42794" lon="5.66703">
        <ele>885</ele>
        <time>2026-05-25T10:56:46Z</time>
      </trkpt>
      <trkpt lat="45.42792" lon="5.6668">
        <ele>885</ele>
        <time>2026-05-25T10:56:50Z</time>
      </trkpt>
      <trkpt lat="45.42783" lon="5.66663">
        <ele>886</ele>
        <time>2026-05-25T10:56:54Z</time>
      </trkpt>
      <trkpt lat="45.42767" lon="5.66657">
        <ele>889</ele>
        <time>2026-05-25T10:56:58Z</time>
      </trkpt>
      <trkpt lat="45.42753" lon="5.6664">
        <ele>890</ele>
        <time>2026-05-25T10:57:02Z</time>
      </trkpt>
      <trkpt lat="45.42725" lon="5.66581">
        <ele>887</ele>
        <time>2026-05-25T10:57:13Z</time>
      </trkpt>
      <trkpt lat="45.42719" lon="5.66541">
        <ele>886</ele>
        <time>2026-05-25T10:57:20Z</time>
      </trkpt>
      <trkpt lat="45.42714" lon="5.66519">
        <ele>885</ele>
        <time>2026-05-25T10:57:24Z</time>
      </trkpt>
      <trkpt lat="45.42703" lon="5.66487">
        <ele>884</ele>
        <time>2026-05-25T10:57:30Z</time>
      </trkpt>
      <trkpt lat="45.42685" lon="5.66454">
        <ele>883</ele>
        <time>2026-05-25T10:57:37Z</time>
      </trkpt>
      <trkpt lat="45.42583" lon="5.66318">
        <ele>883</ele>
        <time>2026-05-25T10:58:09Z</time>
      </trkpt>
      <trkpt lat="45.4257" lon="5.66303">
        <ele>884</ele>
        <time>2026-05-25T10:58:13Z</time>
      </trkpt>
      <trkpt lat="45.42576" lon="5.66285">
        <ele>884</ele>
        <time>2026-05-25T10:58:16Z</time>
      </trkpt>
      <trkpt lat="45.42569" lon="5.6626">
        <ele>885</ele>
        <time>2026-05-25T10:58:21Z</time>
      </trkpt>
      <trkpt lat="45.42572" lon="5.66247">
        <ele>886</ele>
        <time>2026-05-25T10:58:23Z</time>
      </trkpt>
      <trkpt lat="45.42592" lon="5.66195">
        <ele>889</ele>
        <time>2026-05-25T10:58:33Z</time>
      </trkpt>
      <trkpt lat="45.42598" lon="5.66179">
        <ele>890</ele>
        <time>2026-05-25T10:58:36Z</time>
      </trkpt>
      <trkpt lat="45.42615" lon="5.66147">
        <ele>889</ele>
        <time>2026-05-25T10:58:42Z</time>
      </trkpt>
      <trkpt lat="45.42625" lon="5.66109">
        <ele>888</ele>
        <time>2026-05-25T10:58:49Z</time>
      </trkpt>
      <trkpt lat="45.42622" lon="5.66082">
        <ele>889</ele>
        <time>2026-05-25T10:58:54Z</time>
      </trkpt>
      <trkpt lat="45.42615" lon="5.66066">
        <ele>888</ele>
        <time>2026-05-25T10:58:57Z</time>
      </trkpt>
      <trkpt lat="45.42607" lon="5.66061">
        <ele>889</ele>
        <time>2026-05-25T10:58:59Z</time>
      </trkpt>
      <trkpt lat="45.42597" lon="5.66048">
        <ele>890</ele>
        <time>2026-05-25T10:59:02Z</time>
      </trkpt>
      <trkpt lat="45.42583" lon="5.66037">
        <ele>893</ele>
        <time>2026-05-25T10:59:06Z</time>
      </trkpt>
      <trkpt lat="45.42558" lon="5.66004">
        <ele>892</ele>
        <time>2026-05-25T10:59:14Z</time>
      </trkpt>
      <trkpt lat="45.42547" lon="5.65984">
        <ele>891</ele>
        <time>2026-05-25T10:59:18Z</time>
      </trkpt>
      <trkpt lat="45.42539" lon="5.65984">
        <ele>891</ele>
        <time>2026-05-25T10:59:20Z</time>
      </trkpt>
      <trkpt lat="45.42531" lon="5.65974">
        <ele>891</ele>
        <time>2026-05-25T10:59:22Z</time>
      </trkpt>
      <trkpt lat="45.42526" lon="5.65948">
        <ele>890</ele>
        <time>2026-05-25T10:59:26Z</time>
      </trkpt>
      <trkpt lat="45.42528" lon="5.65942">
        <ele>889</ele>
        <time>2026-05-25T10:59:28Z</time>
      </trkpt>
      <trkpt lat="45.42523" lon="5.65928">
        <ele>889</ele>
        <time>2026-05-25T10:59:30Z</time>
      </trkpt>
      <trkpt lat="45.42515" lon="5.65909">
        <ele>889</ele>
        <time>2026-05-25T10:59:34Z</time>
      </trkpt>
      <trkpt lat="45.42513" lon="5.65883">
        <ele>883</ele>
        <time>2026-05-25T10:59:38Z</time>
      </trkpt>
      <trkpt lat="45.4251" lon="5.65865">
        <ele>880</ele>
        <time>2026-05-25T10:59:41Z</time>
      </trkpt>
      <trkpt lat="45.42505" lon="5.65853">
        <ele>879</ele>
        <time>2026-05-25T10:59:43Z</time>
      </trkpt>
      <trkpt lat="45.42495" lon="5.65816">
        <ele>874</ele>
        <time>2026-05-25T10:59:50Z</time>
      </trkpt>
      <trkpt lat="45.42496" lon="5.65803">
        <ele>871</ele>
        <time>2026-05-25T10:59:52Z</time>
      </trkpt>
      <trkpt lat="45.42493" lon="5.65794">
        <ele>870</ele>
        <time>2026-05-25T10:59:54Z</time>
      </trkpt>
      <trkpt lat="45.42493" lon="5.65774">
        <ele>865</ele>
        <time>2026-05-25T10:59:57Z</time>
      </trkpt>
      <trkpt lat="45.42486" lon="5.65729">
        <ele>859</ele>
        <time>2026-05-25T11:00:04Z</time>
      </trkpt>
      <trkpt lat="45.42483" lon="5.6569">
        <ele>853</ele>
        <time>2026-05-25T11:00:11Z</time>
      </trkpt>
      <trkpt lat="45.42455" lon="5.65637">
        <ele>853</ele>
        <time>2026-05-25T11:00:22Z</time>
      </trkpt>
      <trkpt lat="45.42433" lon="5.65585">
        <ele>850</ele>
        <time>2026-05-25T11:00:32Z</time>
      </trkpt>
      <trkpt lat="45.4241" lon="5.65547">
        <ele>850</ele>
        <time>2026-05-25T11:00:40Z</time>
      </trkpt>
      <trkpt lat="45.42404" lon="5.65532">
        <ele>850</ele>
        <time>2026-05-25T11:00:43Z</time>
      </trkpt>
      <trkpt lat="45.42393" lon="5.6552">
        <ele>851</ele>
        <time>2026-05-25T11:00:46Z</time>
      </trkpt>
      <trkpt lat="45.4238" lon="5.65489">
        <ele>850</ele>
        <time>2026-05-25T11:00:52Z</time>
      </trkpt>
      <trkpt lat="45.42365" lon="5.65461">
        <ele>850</ele>
        <time>2026-05-25T11:00:58Z</time>
      </trkpt>
      <trkpt lat="45.42342" lon="5.65427">
        <ele>851</ele>
        <time>2026-05-25T11:01:05Z</time>
      </trkpt>
      <trkpt lat="45.42329" lon="5.65398">
        <ele>850</ele>
        <time>2026-05-25T11:01:11Z</time>
      </trkpt>
      <trkpt lat="45.42302" lon="5.65382">
        <ele>850</ele>
        <time>2026-05-25T11:01:18Z</time>
      </trkpt>
      <trkpt lat="45.42275" lon="5.65382">
        <ele>852</ele>
        <time>2026-05-25T11:01:24Z</time>
      </trkpt>
      <trkpt lat="45.42271" lon="5.6539">
        <ele>853</ele>
        <time>2026-05-25T11:01:26Z</time>
      </trkpt>
      <trkpt lat="45.42261" lon="5.65393">
        <ele>854</ele>
        <time>2026-05-25T11:01:28Z</time>
      </trkpt>
      <trkpt lat="45.42233" lon="5.65396">
        <ele>853</ele>
        <time>2026-05-25T11:01:35Z</time>
      </trkpt>
      <trkpt lat="45.42212" lon="5.6539">
        <ele>851</ele>
        <time>2026-05-25T11:01:40Z</time>
      </trkpt>
      <trkpt lat="45.42216" lon="5.65357">
        <ele>850</ele>
        <time>2026-05-25T11:01:45Z</time>
      </trkpt>
      <trkpt lat="45.42219" lon="5.65301">
        <ele>851</ele>
        <time>2026-05-25T11:01:54Z</time>
      </trkpt>
      <trkpt lat="45.42217" lon="5.65265">
        <ele>854</ele>
        <time>2026-05-25T11:02:00Z</time>
      </trkpt>
      <trkpt lat="45.42215" lon="5.65254">
        <ele>855</ele>
        <time>2026-05-25T11:02:02Z</time>
      </trkpt>
      <trkpt lat="45.42207" lon="5.65235">
        <ele>856</ele>
        <time>2026-05-25T11:02:06Z</time>
      </trkpt>
      <trkpt lat="45.42206" lon="5.65228">
        <ele>856</ele>
        <time>2026-05-25T11:02:07Z</time>
      </trkpt>
      <trkpt lat="45.42196" lon="5.6517">
        <ele>859</ele>
        <time>2026-05-25T11:02:17Z</time>
      </trkpt>
      <trkpt lat="45.42172" lon="5.65134">
        <ele>861</ele>
        <time>2026-05-25T11:02:25Z</time>
      </trkpt>
      <trkpt lat="45.42167" lon="5.65119">
        <ele>862</ele>
        <time>2026-05-25T11:02:28Z</time>
      </trkpt>
      <trkpt lat="45.42165" lon="5.65109">
        <ele>862</ele>
        <time>2026-05-25T11:02:29Z</time>
      </trkpt>
      <trkpt lat="45.42169" lon="5.65079">
        <ele>862</ele>
        <time>2026-05-25T11:02:34Z</time>
      </trkpt>
      <trkpt lat="45.42173" lon="5.65063">
        <ele>861</ele>
        <time>2026-05-25T11:02:37Z</time>
      </trkpt>
      <trkpt lat="45.42188" lon="5.65026">
        <ele>858</ele>
        <time>2026-05-25T11:02:44Z</time>
      </trkpt>
      <trkpt lat="45.42187" lon="5.65001">
        <ele>857</ele>
        <time>2026-05-25T11:02:48Z</time>
      </trkpt>
      <trkpt lat="45.42182" lon="5.64995">
        <ele>858</ele>
        <time>2026-05-25T11:02:50Z</time>
      </trkpt>
      <trkpt lat="45.42178" lon="5.64975">
        <ele>857</ele>
        <time>2026-05-25T11:02:53Z</time>
      </trkpt>
      <trkpt lat="45.42187" lon="5.64946">
        <ele>856</ele>
        <time>2026-05-25T11:02:58Z</time>
      </trkpt>
      <trkpt lat="45.42189" lon="5.64929">
        <ele>855</ele>
        <time>2026-05-25T11:03:01Z</time>
      </trkpt>
      <trkpt lat="45.4218" lon="5.64892">
        <ele>855</ele>
        <time>2026-05-25T11:03:08Z</time>
      </trkpt>
      <trkpt lat="45.42178" lon="5.64874">
        <ele>855</ele>
        <time>2026-05-25T11:03:11Z</time>
      </trkpt>
      <trkpt lat="45.42182" lon="5.64858">
        <ele>854</ele>
        <time>2026-05-25T11:03:13Z</time>
      </trkpt>
      <trkpt lat="45.42181" lon="5.6485">
        <ele>854</ele>
        <time>2026-05-25T11:03:15Z</time>
      </trkpt>
      <trkpt lat="45.42185" lon="5.64828">
        <ele>854</ele>
        <time>2026-05-25T11:03:18Z</time>
      </trkpt>
      <trkpt lat="45.4218" lon="5.64812">
        <ele>854</ele>
        <time>2026-05-25T11:03:21Z</time>
      </trkpt>
      <trkpt lat="45.42183" lon="5.64788">
        <ele>854</ele>
        <time>2026-05-25T11:03:25Z</time>
      </trkpt>
      <trkpt lat="45.42223" lon="5.64762">
        <ele>855</ele>
        <time>2026-05-25T11:03:36Z</time>
      </trkpt>
      <trkpt lat="45.42242" lon="5.64752">
        <ele>856</ele>
        <time>2026-05-25T11:03:40Z</time>
      </trkpt>
      <trkpt lat="45.42283" lon="5.6476">
        <ele>850</ele>
        <time>2026-05-25T11:03:50Z</time>
      </trkpt>
      <trkpt lat="45.42305" lon="5.64766">
        <ele>845</ele>
        <time>2026-05-25T11:03:55Z</time>
      </trkpt>
      <trkpt lat="45.42318" lon="5.64765">
        <ele>843</ele>
        <time>2026-05-25T11:03:58Z</time>
      </trkpt>
      <trkpt lat="45.42331" lon="5.64759">
        <ele>841</ele>
        <time>2026-05-25T11:04:01Z</time>
      </trkpt>
      <trkpt lat="45.42377" lon="5.64722">
        <ele>830</ele>
        <time>2026-05-25T11:04:14Z</time>
      </trkpt>
      <trkpt lat="45.42395" lon="5.64703">
        <ele>826</ele>
        <time>2026-05-25T11:04:19Z</time>
      </trkpt>
      <trkpt lat="45.42418" lon="5.64675">
        <ele>821</ele>
        <time>2026-05-25T11:04:26Z</time>
      </trkpt>
      <trkpt lat="45.42441" lon="5.64651">
        <ele>819</ele>
        <time>2026-05-25T11:04:33Z</time>
      </trkpt>
      <trkpt lat="45.42451" lon="5.6464">
        <ele>818</ele>
        <time>2026-05-25T11:04:36Z</time>
      </trkpt>
      <trkpt lat="45.42473" lon="5.64613">
        <ele>818</ele>
        <time>2026-05-25T11:04:43Z</time>
      </trkpt>
      <trkpt lat="45.42492" lon="5.64564">
        <ele>823</ele>
        <time>2026-05-25T11:04:52Z</time>
      </trkpt>
      <trkpt lat="45.42508" lon="5.64499">
        <ele>830</ele>
        <time>2026-05-25T11:05:03Z</time>
      </trkpt>
      <trkpt lat="45.42518" lon="5.64443">
        <ele>833</ele>
        <time>2026-05-25T11:05:12Z</time>
      </trkpt>
      <trkpt lat="45.42519" lon="5.64384">
        <ele>834</ele>
        <time>2026-05-25T11:05:22Z</time>
      </trkpt>
      <trkpt lat="45.42523" lon="5.64354">
        <ele>831</ele>
        <time>2026-05-25T11:05:27Z</time>
      </trkpt>
      <trkpt lat="45.42523" lon="5.64338">
        <ele>830</ele>
        <time>2026-05-25T11:05:30Z</time>
      </trkpt>
      <trkpt lat="45.42517" lon="5.64321">
        <ele>830</ele>
        <time>2026-05-25T11:05:33Z</time>
      </trkpt>
      <trkpt lat="45.42482" lon="5.64257">
        <ele>829</ele>
        <time>2026-05-25T11:05:46Z</time>
      </trkpt>
      <trkpt lat="45.42452" lon="5.64211">
        <ele>825</ele>
        <time>2026-05-25T11:05:56Z</time>
      </trkpt>
      <trkpt lat="45.42442" lon="5.64204">
        <ele>825</ele>
        <time>2026-05-25T11:05:59Z</time>
      </trkpt>
      <trkpt lat="45.42428" lon="5.64202">
        <ele>827</ele>
        <time>2026-05-25T11:06:02Z</time>
      </trkpt>
      <trkpt lat="45.42373" lon="5.64209">
        <ele>831</ele>
        <time>2026-05-25T11:06:15Z</time>
      </trkpt>
      <trkpt lat="45.42358" lon="5.64164">
        <ele>826</ele>
        <time>2026-05-25T11:06:23Z</time>
      </trkpt>
      <trkpt lat="45.4235" lon="5.64134">
        <ele>823</ele>
        <time>2026-05-25T11:06:29Z</time>
      </trkpt>
      <trkpt lat="45.42345" lon="5.64092">
        <ele>820</ele>
        <time>2026-05-25T11:06:36Z</time>
      </trkpt>
      <trkpt lat="45.4234" lon="5.64016">
        <ele>820</ele>
        <time>2026-05-25T11:06:48Z</time>
      </trkpt>
      <trkpt lat="45.42339" lon="5.63984">
        <ele>820</ele>
        <time>2026-05-25T11:06:53Z</time>
      </trkpt>
      <trkpt lat="45.4234" lon="5.63956">
        <ele>818</ele>
        <time>2026-05-25T11:06:58Z</time>
      </trkpt>
      <trkpt lat="45.42341" lon="5.63941">
        <ele>817</ele>
        <time>2026-05-25T11:07:00Z</time>
      </trkpt>
      <trkpt lat="45.42339" lon="5.63929">
        <ele>817</ele>
        <time>2026-05-25T11:07:02Z</time>
      </trkpt>
      <trkpt lat="45.42336" lon="5.63916">
        <ele>817</ele>
        <time>2026-05-25T11:07:05Z</time>
      </trkpt>
      <trkpt lat="45.42328" lon="5.63889">
        <ele>818</ele>
        <time>2026-05-25T11:07:10Z</time>
      </trkpt>
      <trkpt lat="45.42324" lon="5.6388">
        <ele>819</ele>
        <time>2026-05-25T11:07:11Z</time>
      </trkpt>
      <trkpt lat="45.42334" lon="5.63842">
        <ele>818</ele>
        <time>2026-05-25T11:07:18Z</time>
      </trkpt>
      <trkpt lat="45.42347" lon="5.63815">
        <ele>813</ele>
        <time>2026-05-25T11:07:23Z</time>
      </trkpt>
      <trkpt lat="45.42353" lon="5.63791">
        <ele>810</ele>
        <time>2026-05-25T11:07:27Z</time>
      </trkpt>
      <trkpt lat="45.42363" lon="5.63768">
        <ele>806</ele>
        <time>2026-05-25T11:07:32Z</time>
      </trkpt>
      <trkpt lat="45.42387" lon="5.63752">
        <ele>798</ele>
        <time>2026-05-25T11:07:38Z</time>
      </trkpt>
      <trkpt lat="45.42435" lon="5.63764">
        <ele>783</ele>
        <time>2026-05-25T11:07:49Z</time>
      </trkpt>
      <trkpt lat="45.42435" lon="5.63752">
        <ele>782</ele>
        <time>2026-05-25T11:07:51Z</time>
      </trkpt>
      <trkpt lat="45.42432" lon="5.63737">
        <ele>783</ele>
        <time>2026-05-25T11:07:54Z</time>
      </trkpt>
      <trkpt lat="45.4242" lon="5.63702">
        <ele>785</ele>
        <time>2026-05-25T11:08:00Z</time>
      </trkpt>
      <trkpt lat="45.42417" lon="5.6369">
        <ele>786</ele>
        <time>2026-05-25T11:08:02Z</time>
      </trkpt>
      <trkpt lat="45.4242" lon="5.6367">
        <ele>783</ele>
        <time>2026-05-25T11:08:06Z</time>
      </trkpt>
      <trkpt lat="45.42416" lon="5.63651">
        <ele>784</ele>
        <time>2026-05-25T11:08:09Z</time>
      </trkpt>
      <trkpt lat="45.42406" lon="5.63609">
        <ele>785</ele>
        <time>2026-05-25T11:08:16Z</time>
      </trkpt>
      <trkpt lat="45.42417" lon="5.63569">
        <ele>783</ele>
        <time>2026-05-25T11:08:23Z</time>
      </trkpt>
      <trkpt lat="45.42421" lon="5.63552">
        <ele>783</ele>
        <time>2026-05-25T11:08:26Z</time>
      </trkpt>
      <trkpt lat="45.42427" lon="5.63539">
        <ele>783</ele>
        <time>2026-05-25T11:08:29Z</time>
      </trkpt>
      <trkpt lat="45.42461" lon="5.63519">
        <ele>775</ele>
        <time>2026-05-25T11:08:37Z</time>
      </trkpt>
      <trkpt lat="45.42478" lon="5.63497">
        <ele>774</ele>
        <time>2026-05-25T11:08:43Z</time>
      </trkpt>
      <trkpt lat="45.42493" lon="5.63471">
        <ele>771</ele>
        <time>2026-05-25T11:08:48Z</time>
      </trkpt>
      <trkpt lat="45.42511" lon="5.63439">
        <ele>766</ele>
        <time>2026-05-25T11:08:55Z</time>
      </trkpt>
      <trkpt lat="45.42551" lon="5.63404">
        <ele>752</ele>
        <time>2026-05-25T11:09:06Z</time>
      </trkpt>
      <trkpt lat="45.42565" lon="5.63374">
        <ele>749</ele>
        <time>2026-05-25T11:09:12Z</time>
      </trkpt>
      <trkpt lat="45.42579" lon="5.63351">
        <ele>747</ele>
        <time>2026-05-25T11:09:17Z</time>
      </trkpt>
      <trkpt lat="45.42579" lon="5.63351">
        <ele>747</ele>
        <time>2026-05-25T11:09:17Z</time>
      </trkpt>
      <trkpt lat="45.42583" lon="5.63336">
        <ele>747</ele>
        <time>2026-05-25T11:09:20Z</time>
      </trkpt>
      <trkpt lat="45.42576" lon="5.63325">
        <ele>749</ele>
        <time>2026-05-25T11:09:22Z</time>
      </trkpt>
      <trkpt lat="45.42562" lon="5.63245">
        <ele>750</ele>
        <time>2026-05-25T11:09:36Z</time>
      </trkpt>
      <trkpt lat="45.42536" lon="5.63169">
        <ele>754</ele>
        <time>2026-05-25T11:09:49Z</time>
      </trkpt>
      <trkpt lat="45.42525" lon="5.63153">
        <ele>756</ele>
        <time>2026-05-25T11:09:53Z</time>
      </trkpt>
      <trkpt lat="45.42504" lon="5.63146">
        <ele>762</ele>
        <time>2026-05-25T11:09:58Z</time>
      </trkpt>
      <trkpt lat="45.42492" lon="5.63148">
        <ele>767</ele>
        <time>2026-05-25T11:10:01Z</time>
      </trkpt>
      <trkpt lat="45.42482" lon="5.63117">
        <ele>770</ele>
        <time>2026-05-25T11:10:07Z</time>
      </trkpt>
      <trkpt lat="45.42449" lon="5.63005">
        <ele>776</ele>
        <time>2026-05-25T11:10:26Z</time>
      </trkpt>
      <trkpt lat="45.42439" lon="5.62983">
        <ele>777</ele>
        <time>2026-05-25T11:10:31Z</time>
      </trkpt>
      <trkpt lat="45.42407" lon="5.629">
        <ele>774</ele>
        <time>2026-05-25T11:10:46Z</time>
      </trkpt>
      <trkpt lat="45.42385" lon="5.62848">
        <ele>775</ele>
        <time>2026-05-25T11:10:56Z</time>
      </trkpt>
      <trkpt lat="45.42374" lon="5.62817">
        <ele>776</ele>
        <time>2026-05-25T11:11:02Z</time>
      </trkpt>
      <trkpt lat="45.42349" lon="5.62766">
        <ele>780</ele>
        <time>2026-05-25T11:11:12Z</time>
      </trkpt>
      <trkpt lat="45.42295" lon="5.62689">
        <ele>791</ele>
        <time>2026-05-25T11:11:30Z</time>
      </trkpt>
      <trkpt lat="45.4227" lon="5.6265">
        <ele>792</ele>
        <time>2026-05-25T11:11:39Z</time>
      </trkpt>
      <trkpt lat="45.42233" lon="5.62583">
        <ele>791</ele>
        <time>2026-05-25T11:11:53Z</time>
      </trkpt>
      <trkpt lat="45.42196" lon="5.62521">
        <ele>789</ele>
        <time>2026-05-25T11:12:06Z</time>
      </trkpt>
      <trkpt lat="45.42174" lon="5.62502">
        <ele>791</ele>
        <time>2026-05-25T11:12:12Z</time>
      </trkpt>
      <trkpt lat="45.42158" lon="5.62486">
        <ele>793</ele>
        <time>2026-05-25T11:12:16Z</time>
      </trkpt>
      <trkpt lat="45.42132" lon="5.62448">
        <ele>795</ele>
        <time>2026-05-25T11:12:25Z</time>
      </trkpt>
      <trkpt lat="45.4211" lon="5.62419">
        <ele>796</ele>
        <time>2026-05-25T11:12:32Z</time>
      </trkpt>
      <trkpt lat="45.42056" lon="5.62371">
        <ele>796</ele>
        <time>2026-05-25T11:12:47Z</time>
      </trkpt>
      <trkpt lat="45.42044" lon="5.62361">
        <ele>796</ele>
        <time>2026-05-25T11:12:50Z</time>
      </trkpt>
      <trkpt lat="45.42021" lon="5.62343">
        <ele>796</ele>
        <time>2026-05-25T11:12:56Z</time>
      </trkpt>
      <trkpt lat="45.42003" lon="5.62333">
        <ele>796</ele>
        <time>2026-05-25T11:13:01Z</time>
      </trkpt>
      <trkpt lat="45.41975" lon="5.62327">
        <ele>793</ele>
        <time>2026-05-25T11:13:08Z</time>
      </trkpt>
      <trkpt lat="45.41945" lon="5.62331">
        <ele>792</ele>
        <time>2026-05-25T11:13:15Z</time>
      </trkpt>
      <trkpt lat="45.4191" lon="5.62358">
        <ele>795</ele>
        <time>2026-05-25T11:13:24Z</time>
      </trkpt>
      <trkpt lat="45.41879" lon="5.62394">
        <ele>791</ele>
        <time>2026-05-25T11:13:33Z</time>
      </trkpt>
      <trkpt lat="45.41873" lon="5.62404">
        <ele>791</ele>
        <time>2026-05-25T11:13:35Z</time>
      </trkpt>
      <trkpt lat="45.4187" lon="5.62414">
        <ele>792</ele>
        <time>2026-05-25T11:13:37Z</time>
      </trkpt>
      <trkpt lat="45.41873" lon="5.62454">
        <ele>794</ele>
        <time>2026-05-25T11:13:44Z</time>
      </trkpt>
      <trkpt lat="45.4188" lon="5.62504">
        <ele>796</ele>
        <time>2026-05-25T11:13:52Z</time>
      </trkpt>
      <trkpt lat="45.41918" lon="5.62625">
        <ele>795</ele>
        <time>2026-05-25T11:14:14Z</time>
      </trkpt>
      <trkpt lat="45.41932" lon="5.62658">
        <ele>796</ele>
        <time>2026-05-25T11:14:20Z</time>
      </trkpt>
      <trkpt lat="45.41954" lon="5.6269">
        <ele>800</ele>
        <time>2026-05-25T11:14:27Z</time>
      </trkpt>
      <trkpt lat="45.41974" lon="5.62726">
        <ele>802</ele>
        <time>2026-05-25T11:14:35Z</time>
      </trkpt>
      <trkpt lat="45.41993" lon="5.62776">
        <ele>803</ele>
        <time>2026-05-25T11:14:44Z</time>
      </trkpt>
      <trkpt lat="45.42015" lon="5.62858">
        <ele>805</ele>
        <time>2026-05-25T11:14:59Z</time>
      </trkpt>
      <trkpt lat="45.42025" lon="5.62898">
        <ele>810</ele>
        <time>2026-05-25T11:15:06Z</time>
      </trkpt>
      <trkpt lat="45.42047" lon="5.63067">
        <ele>834</ele>
        <time>2026-05-25T11:15:34Z</time>
      </trkpt>
      <trkpt lat="45.42058" lon="5.63158">
        <ele>848</ele>
        <time>2026-05-25T11:15:49Z</time>
      </trkpt>
      <trkpt lat="45.42059" lon="5.63164">
        <ele>849</ele>
        <time>2026-05-25T11:15:50Z</time>
      </trkpt>
      <trkpt lat="45.42062" lon="5.63167">
        <ele>849</ele>
        <time>2026-05-25T11:15:51Z</time>
      </trkpt>
      <trkpt lat="45.42065" lon="5.63165">
        <ele>849</ele>
        <time>2026-05-25T11:15:52Z</time>
      </trkpt>
      <trkpt lat="45.4209" lon="5.6311">
        <ele>845</ele>
        <time>2026-05-25T11:16:02Z</time>
      </trkpt>
      <trkpt lat="45.42092" lon="5.63109">
        <ele>845</ele>
        <time>2026-05-25T11:16:03Z</time>
      </trkpt>
      <trkpt lat="45.42095" lon="5.63111">
        <ele>846</ele>
        <time>2026-05-25T11:16:04Z</time>
      </trkpt>
      <trkpt lat="45.42095" lon="5.63113">
        <ele>846</ele>
        <time>2026-05-25T11:16:04Z</time>
      </trkpt>
      <trkpt lat="45.42092" lon="5.63167">
        <ele>850</ele>
        <time>2026-05-25T11:16:13Z</time>
      </trkpt>
      <trkpt lat="45.4209" lon="5.63183">
        <ele>852</ele>
        <time>2026-05-25T11:16:15Z</time>
      </trkpt>
      <trkpt lat="45.42085" lon="5.63204">
        <ele>855</ele>
        <time>2026-05-25T11:16:19Z</time>
      </trkpt>
      <trkpt lat="45.42077" lon="5.63224">
        <ele>859</ele>
        <time>2026-05-25T11:16:23Z</time>
      </trkpt>
      <trkpt lat="45.42064" lon="5.63248">
        <ele>863</ele>
        <time>2026-05-25T11:16:28Z</time>
      </trkpt>
      <trkpt lat="45.42057" lon="5.63255">
        <ele>864</ele>
        <time>2026-05-25T11:16:30Z</time>
      </trkpt>
      <trkpt lat="45.42052" lon="5.63262">
        <ele>865</ele>
        <time>2026-05-25T11:16:32Z</time>
      </trkpt>
      <trkpt lat="45.4205" lon="5.63269">
        <ele>866</ele>
        <time>2026-05-25T11:16:33Z</time>
      </trkpt>
      <trkpt lat="45.42053" lon="5.63273">
        <ele>867</ele>
        <time>2026-05-25T11:16:34Z</time>
      </trkpt>
      <trkpt lat="45.4204" lon="5.6328">
        <ele>867</ele>
        <time>2026-05-25T11:16:37Z</time>
      </trkpt>
      <trkpt lat="45.42034" lon="5.6328">
        <ele>867</ele>
        <time>2026-05-25T11:16:38Z</time>
      </trkpt>
      <trkpt lat="45.42028" lon="5.63274">
        <ele>866</ele>
        <time>2026-05-25T11:16:40Z</time>
      </trkpt>
      <trkpt lat="45.42027" lon="5.6327">
        <ele>866</ele>
        <time>2026-05-25T11:16:41Z</time>
      </trkpt>
      <trkpt lat="45.42028" lon="5.63266">
        <ele>866</ele>
        <time>2026-05-25T11:16:41Z</time>
      </trkpt>
      <trkpt lat="45.42041" lon="5.63232">
        <ele>861</ele>
        <time>2026-05-25T11:16:48Z</time>
      </trkpt>
      <trkpt lat="45.42042" lon="5.63223">
        <ele>860</ele>
        <time>2026-05-25T11:16:49Z</time>
      </trkpt>
      <trkpt lat="45.4204" lon="5.63214">
        <ele>858</ele>
        <time>2026-05-25T11:16:51Z</time>
      </trkpt>
      <trkpt lat="45.42036" lon="5.63207">
        <ele>857</ele>
        <time>2026-05-25T11:16:52Z</time>
      </trkpt>
      <trkpt lat="45.42009" lon="5.63185">
        <ele>855</ele>
        <time>2026-05-25T11:17:00Z</time>
      </trkpt>
      <trkpt lat="45.41999" lon="5.63174">
        <ele>854</ele>
        <time>2026-05-25T11:17:03Z</time>
      </trkpt>
      <trkpt lat="45.41974" lon="5.63148">
        <ele>852</ele>
        <time>2026-05-25T11:17:10Z</time>
      </trkpt>
      <trkpt lat="45.41944" lon="5.63127">
        <ele>852</ele>
        <time>2026-05-25T11:17:18Z</time>
      </trkpt>
      <trkpt lat="45.41919" lon="5.6312">
        <ele>854</ele>
        <time>2026-05-25T11:17:24Z</time>
      </trkpt>
      <trkpt lat="45.41892" lon="5.63124">
        <ele>852</ele>
        <time>2026-05-25T11:17:30Z</time>
      </trkpt>
      <trkpt lat="45.41855" lon="5.63158">
        <ele>857</ele>
        <time>2026-05-25T11:17:40Z</time>
      </trkpt>
      <trkpt lat="45.41816" lon="5.63179">
        <ele>861</ele>
        <time>2026-05-25T11:17:50Z</time>
      </trkpt>
      <trkpt lat="45.41785" lon="5.6319">
        <ele>863</ele>
        <time>2026-05-25T11:17:57Z</time>
      </trkpt>
      <trkpt lat="45.41733" lon="5.63225">
        <ele>872</ele>
        <time>2026-05-25T11:18:11Z</time>
      </trkpt>
      <trkpt lat="45.41713" lon="5.63236">
        <ele>875</ele>
        <time>2026-05-25T11:18:16Z</time>
      </trkpt>
      <trkpt lat="45.41694" lon="5.63262">
        <ele>881</ele>
        <time>2026-05-25T11:18:22Z</time>
      </trkpt>
      <trkpt lat="45.41667" lon="5.63283">
        <ele>884</ele>
        <time>2026-05-25T11:18:29Z</time>
      </trkpt>
      <trkpt lat="45.41646" lon="5.63294">
        <ele>886</ele>
        <time>2026-05-25T11:18:34Z</time>
      </trkpt>
      <trkpt lat="45.41638" lon="5.63295">
        <ele>887</ele>
        <time>2026-05-25T11:18:36Z</time>
      </trkpt>
      <trkpt lat="45.41628" lon="5.63296">
        <ele>887</ele>
        <time>2026-05-25T11:18:39Z</time>
      </trkpt>
      <trkpt lat="45.41623" lon="5.63295">
        <ele>887</ele>
        <time>2026-05-25T11:18:40Z</time>
      </trkpt>
      <trkpt lat="45.41607" lon="5.63286">
        <ele>884</ele>
        <time>2026-05-25T11:18:44Z</time>
      </trkpt>
      <trkpt lat="45.41595" lon="5.63283">
        <ele>884</ele>
        <time>2026-05-25T11:18:47Z</time>
      </trkpt>
      <trkpt lat="45.41566" lon="5.63278">
        <ele>883</ele>
        <time>2026-05-25T11:18:53Z</time>
      </trkpt>
      <trkpt lat="45.41553" lon="5.63273">
        <ele>882</ele>
        <time>2026-05-25T11:18:57Z</time>
      </trkpt>
      <trkpt lat="45.4154" lon="5.63266">
        <ele>882</ele>
        <time>2026-05-25T11:19:00Z</time>
      </trkpt>
      <trkpt lat="45.41532" lon="5.63265">
        <ele>882</ele>
        <time>2026-05-25T11:19:02Z</time>
      </trkpt>
      <trkpt lat="45.41525" lon="5.63266">
        <ele>883</ele>
        <time>2026-05-25T11:19:03Z</time>
      </trkpt>
      <trkpt lat="45.4152" lon="5.6327">
        <ele>883</ele>
        <time>2026-05-25T11:19:05Z</time>
      </trkpt>
      <trkpt lat="45.4151" lon="5.63289">
        <ele>883</ele>
        <time>2026-05-25T11:19:09Z</time>
      </trkpt>
      <trkpt lat="45.41503" lon="5.63306">
        <ele>882</ele>
        <time>2026-05-25T11:19:12Z</time>
      </trkpt>
      <trkpt lat="45.41482" lon="5.63267">
        <ele>881</ele>
        <time>2026-05-25T11:19:20Z</time>
      </trkpt>
      <trkpt lat="45.41459" lon="5.63239">
        <ele>879</ele>
        <time>2026-05-25T11:19:27Z</time>
      </trkpt>
      <trkpt lat="45.41443" lon="5.63225">
        <ele>877</ele>
        <time>2026-05-25T11:19:31Z</time>
      </trkpt>
      <trkpt lat="45.41419" lon="5.63211">
        <ele>874</ele>
        <time>2026-05-25T11:19:37Z</time>
      </trkpt>
      <trkpt lat="45.41323" lon="5.63182">
        <ele>865</ele>
        <time>2026-05-25T11:20:00Z</time>
      </trkpt>
      <trkpt lat="45.41294" lon="5.63178">
        <ele>863</ele>
        <time>2026-05-25T11:20:07Z</time>
      </trkpt>
      <trkpt lat="45.41258" lon="5.63179">
        <ele>859</ele>
        <time>2026-05-25T11:20:15Z</time>
      </trkpt>
      <trkpt lat="45.41214" lon="5.63172">
        <ele>860</ele>
        <time>2026-05-25T11:20:26Z</time>
      </trkpt>
      <trkpt lat="45.41161" lon="5.63153">
        <ele>859</ele>
        <time>2026-05-25T11:20:39Z</time>
      </trkpt>
      <trkpt lat="45.41108" lon="5.63144">
        <ele>851</ele>
        <time>2026-05-25T11:20:51Z</time>
      </trkpt>
      <trkpt lat="45.41086" lon="5.63136">
        <ele>848</ele>
        <time>2026-05-25T11:20:56Z</time>
      </trkpt>
      <trkpt lat="45.41071" lon="5.63126">
        <ele>844</ele>
        <time>2026-05-25T11:21:00Z</time>
      </trkpt>
      <trkpt lat="45.41051" lon="5.63092">
        <ele>836</ele>
        <time>2026-05-25T11:21:07Z</time>
      </trkpt>
      <trkpt lat="45.41044" lon="5.63062">
        <ele>829</ele>
        <time>2026-05-25T11:21:13Z</time>
      </trkpt>
      <trkpt lat="45.41048" lon="5.63048">
        <ele>827</ele>
        <time>2026-05-25T11:21:15Z</time>
      </trkpt>
      <trkpt lat="45.41065" lon="5.63025">
        <ele>825</ele>
        <time>2026-05-25T11:21:21Z</time>
      </trkpt>
      <trkpt lat="45.41064" lon="5.63008">
        <ele>821</ele>
        <time>2026-05-25T11:21:23Z</time>
      </trkpt>
      <trkpt lat="45.41048" lon="5.62994">
        <ele>814</ele>
        <time>2026-05-25T11:21:28Z</time>
      </trkpt>
      <trkpt lat="45.41008" lon="5.62978">
        <ele>804</ele>
        <time>2026-05-25T11:21:38Z</time>
      </trkpt>
      <trkpt lat="45.41" lon="5.62971">
        <ele>802</ele>
        <time>2026-05-25T11:21:40Z</time>
      </trkpt>
      <trkpt lat="45.40993" lon="5.62957">
        <ele>797</ele>
        <time>2026-05-25T11:21:43Z</time>
      </trkpt>
      <trkpt lat="45.40984" lon="5.62929">
        <ele>789</ele>
        <time>2026-05-25T11:21:48Z</time>
      </trkpt>
      <trkpt lat="45.40971" lon="5.62903">
        <ele>781</ele>
        <time>2026-05-25T11:21:53Z</time>
      </trkpt>
      <trkpt lat="45.40949" lon="5.62882">
        <ele>775</ele>
        <time>2026-05-25T11:21:59Z</time>
      </trkpt>
      <trkpt lat="45.40914" lon="5.62861">
        <ele>771</ele>
        <time>2026-05-25T11:22:08Z</time>
      </trkpt>
      <trkpt lat="45.40878" lon="5.62833">
        <ele>767</ele>
        <time>2026-05-25T11:22:17Z</time>
      </trkpt>
      <trkpt lat="45.4085" lon="5.62815">
        <ele>760</ele>
        <time>2026-05-25T11:22:25Z</time>
      </trkpt>
      <trkpt lat="45.40836" lon="5.62798">
        <ele>757</ele>
        <time>2026-05-25T11:22:29Z</time>
      </trkpt>
      <trkpt lat="45.40828" lon="5.62786">
        <ele>753</ele>
        <time>2026-05-25T11:22:32Z</time>
      </trkpt>
      <trkpt lat="45.40821" lon="5.62775">
        <ele>750</ele>
        <time>2026-05-25T11:22:34Z</time>
      </trkpt>
      <trkpt lat="45.40815" lon="5.62761">
        <ele>747</ele>
        <time>2026-05-25T11:22:37Z</time>
      </trkpt>
      <trkpt lat="45.408" lon="5.62712">
        <ele>736</ele>
        <time>2026-05-25T11:22:46Z</time>
      </trkpt>
      <trkpt lat="45.40774" lon="5.6267">
        <ele>729</ele>
        <time>2026-05-25T11:22:55Z</time>
      </trkpt>
      <trkpt lat="45.40753" lon="5.62625">
        <ele>725</ele>
        <time>2026-05-25T11:23:04Z</time>
      </trkpt>
      <trkpt lat="45.40751" lon="5.62609">
        <ele>724</ele>
        <time>2026-05-25T11:23:06Z</time>
      </trkpt>
      <trkpt lat="45.40749" lon="5.62586">
        <ele>722</ele>
        <time>2026-05-25T11:23:10Z</time>
      </trkpt>
      <trkpt lat="45.40746" lon="5.62572">
        <ele>720</ele>
        <time>2026-05-25T11:23:12Z</time>
      </trkpt>
      <trkpt lat="45.4074" lon="5.62561">
        <ele>717</ele>
        <time>2026-05-25T11:23:15Z</time>
      </trkpt>
      <trkpt lat="45.40739" lon="5.62564">
        <ele>717</ele>
        <time>2026-05-25T11:23:15Z</time>
      </trkpt>
      <trkpt lat="45.40779" lon="5.62568">
        <ele>712</ele>
        <time>2026-05-25T11:23:25Z</time>
      </trkpt>
      <trkpt lat="45.40773" lon="5.62536">
        <ele>709</ele>
        <time>2026-05-25T11:23:30Z</time>
      </trkpt>
      <trkpt lat="45.4077" lon="5.62508">
        <ele>706</ele>
        <time>2026-05-25T11:23:35Z</time>
      </trkpt>
      <trkpt lat="45.40768" lon="5.62475">
        <ele>702</ele>
        <time>2026-05-25T11:23:40Z</time>
      </trkpt>
      <trkpt lat="45.40754" lon="5.62391">
        <ele>699</ele>
        <time>2026-05-25T11:23:54Z</time>
      </trkpt>
      <trkpt lat="45.40752" lon="5.62288">
        <ele>683</ele>
        <time>2026-05-25T11:24:11Z</time>
      </trkpt>
      <trkpt lat="45.40746" lon="5.62226">
        <ele>679</ele>
        <time>2026-05-25T11:24:21Z</time>
      </trkpt>
      <trkpt lat="45.40755" lon="5.62082">
        <ele>659</ele>
        <time>2026-05-25T11:24:45Z</time>
      </trkpt>
      <trkpt lat="45.40762" lon="5.61943">
        <ele>646</ele>
        <time>2026-05-25T11:25:08Z</time>
      </trkpt>
      <trkpt lat="45.40761" lon="5.61842">
        <ele>641</ele>
        <time>2026-05-25T11:25:25Z</time>
      </trkpt>
      <trkpt lat="45.40761" lon="5.61763">
        <ele>631</ele>
        <time>2026-05-25T11:25:37Z</time>
      </trkpt>
      <trkpt lat="45.40769" lon="5.61694">
        <ele>622</ele>
        <time>2026-05-25T11:25:49Z</time>
      </trkpt>
      <trkpt lat="45.40772" lon="5.61686">
        <ele>620</ele>
        <time>2026-05-25T11:25:50Z</time>
      </trkpt>
      <trkpt lat="45.40786" lon="5.61639">
        <ele>614</ele>
        <time>2026-05-25T11:25:59Z</time>
      </trkpt>
      <trkpt lat="45.40807" lon="5.61598">
        <ele>609</ele>
        <time>2026-05-25T11:26:07Z</time>
      </trkpt>
      <trkpt lat="45.40807" lon="5.61575">
        <ele>608</ele>
        <time>2026-05-25T11:26:11Z</time>
      </trkpt>
      <trkpt lat="45.40801" lon="5.61548">
        <ele>607</ele>
        <time>2026-05-25T11:26:16Z</time>
      </trkpt>
      <trkpt lat="45.40786" lon="5.61531">
        <ele>607</ele>
        <time>2026-05-25T11:26:20Z</time>
      </trkpt>
      <trkpt lat="45.4076" lon="5.61507">
        <ele>606</ele>
        <time>2026-05-25T11:26:27Z</time>
      </trkpt>
      <trkpt lat="45.40712" lon="5.61411">
        <ele>596</ele>
        <time>2026-05-25T11:26:47Z</time>
      </trkpt>
      <trkpt lat="45.40708" lon="5.61392">
        <ele>594</ele>
        <time>2026-05-25T11:26:50Z</time>
      </trkpt>
      <trkpt lat="45.40707" lon="5.61302">
        <ele>583</ele>
        <time>2026-05-25T11:27:05Z</time>
      </trkpt>
      <trkpt lat="45.4073" lon="5.6131">
        <ele>585</ele>
        <time>2026-05-25T11:27:10Z</time>
      </trkpt>
      <trkpt lat="45.40743" lon="5.61304">
        <ele>586</ele>
        <time>2026-05-25T11:27:13Z</time>
      </trkpt>
      <trkpt lat="45.40763" lon="5.61305">
        <ele>588</ele>
        <time>2026-05-25T11:27:18Z</time>
      </trkpt>
      <trkpt lat="45.40817" lon="5.61334">
        <ele>594</ele>
        <time>2026-05-25T11:27:31Z</time>
      </trkpt>
      <trkpt lat="45.40834" lon="5.61288">
        <ele>594</ele>
        <time>2026-05-25T11:27:40Z</time>
      </trkpt>
      <trkpt lat="45.40851" lon="5.61228">
        <ele>592</ele>
        <time>2026-05-25T11:27:51Z</time>
      </trkpt>
      <trkpt lat="45.40873" lon="5.61193">
        <ele>590</ele>
        <time>2026-05-25T11:27:58Z</time>
      </trkpt>
      <trkpt lat="45.40889" lon="5.61149">
        <ele>589</ele>
        <time>2026-05-25T11:28:06Z</time>
      </trkpt>
      <trkpt lat="45.40891" lon="5.61106">
        <ele>590</ele>
        <time>2026-05-25T11:28:13Z</time>
      </trkpt>
      <trkpt lat="45.40905" lon="5.61081">
        <ele>593</ele>
        <time>2026-05-25T11:28:19Z</time>
      </trkpt>
      <trkpt lat="45.40922" lon="5.61047">
        <ele>601</ele>
        <time>2026-05-25T11:28:26Z</time>
      </trkpt>
      <trkpt lat="45.40937" lon="5.61042">
        <ele>600</ele>
        <time>2026-05-25T11:28:29Z</time>
      </trkpt>
      <trkpt lat="45.40949" lon="5.61023">
        <ele>602</ele>
        <time>2026-05-25T11:28:33Z</time>
      </trkpt>
      <trkpt lat="45.40989" lon="5.60968">
        <ele>602</ele>
        <time>2026-05-25T11:28:46Z</time>
      </trkpt>
      <trkpt lat="45.40977" lon="5.60895">
        <ele>614</ele>
        <time>2026-05-25T11:28:59Z</time>
      </trkpt>
      <trkpt lat="45.40956" lon="5.60859">
        <ele>629</ele>
        <time>2026-05-25T11:29:06Z</time>
      </trkpt>
      <trkpt lat="45.40924" lon="5.60818">
        <ele>651</ele>
        <time>2026-05-25T11:29:16Z</time>
      </trkpt>
      <trkpt lat="45.40931" lon="5.6078">
        <ele>649</ele>
        <time>2026-05-25T11:29:23Z</time>
      </trkpt>
      <trkpt lat="45.40931" lon="5.60777">
        <ele>650</ele>
        <time>2026-05-25T11:29:23Z</time>
      </trkpt>
      <trkpt lat="45.40928" lon="5.60639">
        <ele>633</ele>
        <time>2026-05-25T11:29:46Z</time>
      </trkpt>
      <trkpt lat="45.40919" lon="5.60508">
        <ele>618</ele>
        <time>2026-05-25T11:30:08Z</time>
      </trkpt>
      <trkpt lat="45.40912" lon="5.60466">
        <ele>614</ele>
        <time>2026-05-25T11:30:15Z</time>
      </trkpt>
      <trkpt lat="45.40907" lon="5.60446">
        <ele>611</ele>
        <time>2026-05-25T11:30:18Z</time>
      </trkpt>
      <trkpt lat="45.40908" lon="5.60429">
        <ele>608</ele>
        <time>2026-05-25T11:30:21Z</time>
      </trkpt>
      <trkpt lat="45.40922" lon="5.60384">
        <ele>599</ele>
        <time>2026-05-25T11:30:29Z</time>
      </trkpt>
      <trkpt lat="45.40927" lon="5.60324">
        <ele>589</ele>
        <time>2026-05-25T11:30:39Z</time>
      </trkpt>
      <trkpt lat="45.4092" lon="5.60301">
        <ele>590</ele>
        <time>2026-05-25T11:30:43Z</time>
      </trkpt>
      <trkpt lat="45.40921" lon="5.60279">
        <ele>588</ele>
        <time>2026-05-25T11:30:47Z</time>
      </trkpt>
      <trkpt lat="45.40919" lon="5.60265">
        <ele>587</ele>
        <time>2026-05-25T11:30:49Z</time>
      </trkpt>
      <trkpt lat="45.40879" lon="5.60189">
        <ele>571</ele>
        <time>2026-05-25T11:31:04Z</time>
      </trkpt>
      <trkpt lat="45.40874" lon="5.6017">
        <ele>567</ele>
        <time>2026-05-25T11:31:08Z</time>
      </trkpt>
      <trkpt lat="45.40872" lon="5.60147">
        <ele>562</ele>
        <time>2026-05-25T11:31:12Z</time>
      </trkpt>
      <trkpt lat="45.4087" lon="5.60135">
        <ele>560</ele>
        <time>2026-05-25T11:31:14Z</time>
      </trkpt>
      <trkpt lat="45.40863" lon="5.60124">
        <ele>558</ele>
        <time>2026-05-25T11:31:16Z</time>
      </trkpt>
      <trkpt lat="45.40839" lon="5.60107">
        <ele>554</ele>
        <time>2026-05-25T11:31:22Z</time>
      </trkpt>
      <trkpt lat="45.40859" lon="5.60098">
        <ele>553</ele>
        <time>2026-05-25T11:31:27Z</time>
      </trkpt>
      <trkpt lat="45.4087" lon="5.60086">
        <ele>552</ele>
        <time>2026-05-25T11:31:30Z</time>
      </trkpt>
      <trkpt lat="45.40834" lon="5.60062">
        <ele>552</ele>
        <time>2026-05-25T11:31:40Z</time>
      </trkpt>
      <trkpt lat="45.40803" lon="5.60045">
        <ele>552</ele>
        <time>2026-05-25T11:31:47Z</time>
      </trkpt>
      <trkpt lat="45.40761" lon="5.60037">
        <ele>551</ele>
        <time>2026-05-25T11:31:57Z</time>
      </trkpt>
      <trkpt lat="45.4075" lon="5.60034">
        <ele>551</ele>
        <time>2026-05-25T11:32:00Z</time>
      </trkpt>
      <trkpt lat="45.40741" lon="5.60033">
        <ele>550</ele>
        <time>2026-05-25T11:32:02Z</time>
      </trkpt>
      <trkpt lat="45.4073" lon="5.60029">
        <ele>549</ele>
        <time>2026-05-25T11:32:05Z</time>
      </trkpt>
      <trkpt lat="45.40723" lon="5.60024">
        <ele>548</ele>
        <time>2026-05-25T11:32:07Z</time>
      </trkpt>
      <trkpt lat="45.40716" lon="5.60017">
        <ele>547</ele>
        <time>2026-05-25T11:32:09Z</time>
      </trkpt>
      <trkpt lat="45.40705" lon="5.59996">
        <ele>546</ele>
        <time>2026-05-25T11:32:13Z</time>
      </trkpt>
      <trkpt lat="45.407" lon="5.59983">
        <ele>547</ele>
        <time>2026-05-25T11:32:15Z</time>
      </trkpt>
      <trkpt lat="45.40687" lon="5.59963">
        <ele>546</ele>
        <time>2026-05-25T11:32:20Z</time>
      </trkpt>
      <trkpt lat="45.40629" lon="5.5988">
        <ele>544</ele>
        <time>2026-05-25T11:32:39Z</time>
      </trkpt>
      <trkpt lat="45.40586" lon="5.59831">
        <ele>537</ele>
        <time>2026-05-25T11:32:52Z</time>
      </trkpt>
      <trkpt lat="45.40557" lon="5.59807">
        <ele>537</ele>
        <time>2026-05-25T11:33:00Z</time>
      </trkpt>
      <trkpt lat="45.40522" lon="5.5972">
        <ele>537</ele>
        <time>2026-05-25T11:33:16Z</time>
      </trkpt>
      <trkpt lat="45.40509" lon="5.59699">
        <ele>534</ele>
        <time>2026-05-25T11:33:21Z</time>
      </trkpt>
      <trkpt lat="45.40496" lon="5.59681">
        <ele>530</ele>
        <time>2026-05-25T11:33:25Z</time>
      </trkpt>
      <trkpt lat="45.40481" lon="5.59665">
        <ele>528</ele>
        <time>2026-05-25T11:33:29Z</time>
      </trkpt>
      <trkpt lat="45.40466" lon="5.59651">
        <ele>529</ele>
        <time>2026-05-25T11:33:34Z</time>
      </trkpt>
      <trkpt lat="45.40457" lon="5.59645">
        <ele>529</ele>
        <time>2026-05-25T11:33:36Z</time>
      </trkpt>
      <trkpt lat="45.40446" lon="5.59642">
        <ele>527</ele>
        <time>2026-05-25T11:33:38Z</time>
      </trkpt>
      <trkpt lat="45.40428" lon="5.59644">
        <ele>524</ele>
        <time>2026-05-25T11:33:43Z</time>
      </trkpt>
      <trkpt lat="45.40414" lon="5.59649">
        <ele>521</ele>
        <time>2026-05-25T11:33:46Z</time>
      </trkpt>
      <trkpt lat="45.40404" lon="5.59651">
        <ele>520</ele>
        <time>2026-05-25T11:33:48Z</time>
      </trkpt>
      <trkpt lat="45.40398" lon="5.59652">
        <ele>520</ele>
        <time>2026-05-25T11:33:50Z</time>
      </trkpt>
      <trkpt lat="45.40383" lon="5.59651">
        <ele>519</ele>
        <time>2026-05-25T11:33:53Z</time>
      </trkpt>
      <trkpt lat="45.40375" lon="5.59647">
        <ele>519</ele>
        <time>2026-05-25T11:33:55Z</time>
      </trkpt>
      <trkpt lat="45.40345" lon="5.59632">
        <ele>517</ele>
        <time>2026-05-25T11:34:03Z</time>
      </trkpt>
      <trkpt lat="45.40328" lon="5.59621">
        <ele>515</ele>
        <time>2026-05-25T11:34:07Z</time>
      </trkpt>
      <trkpt lat="45.4032" lon="5.59611">
        <ele>515</ele>
        <time>2026-05-25T11:34:10Z</time>
      </trkpt>
      <trkpt lat="45.40299" lon="5.59581">
        <ele>514</ele>
        <time>2026-05-25T11:34:17Z</time>
      </trkpt>
      <trkpt lat="45.40265" lon="5.5953">
        <ele>515</ele>
        <time>2026-05-25T11:34:28Z</time>
      </trkpt>
      <trkpt lat="45.40243" lon="5.595">
        <ele>514</ele>
        <time>2026-05-25T11:34:35Z</time>
      </trkpt>
      <trkpt lat="45.40216" lon="5.59469">
        <ele>519</ele>
        <time>2026-05-25T11:34:43Z</time>
      </trkpt>
      <trkpt lat="45.40186" lon="5.59429">
        <ele>519</ele>
        <time>2026-05-25T11:34:53Z</time>
      </trkpt>
      <trkpt lat="45.40166" lon="5.59403">
        <ele>517</ele>
        <time>2026-05-25T11:34:59Z</time>
      </trkpt>
      <trkpt lat="45.40142" lon="5.59381">
        <ele>516</ele>
        <time>2026-05-25T11:35:06Z</time>
      </trkpt>
      <trkpt lat="45.40111" lon="5.59359">
        <ele>513</ele>
        <time>2026-05-25T11:35:14Z</time>
      </trkpt>
      <trkpt lat="45.40071" lon="5.5933">
        <ele>507</ele>
        <time>2026-05-25T11:35:24Z</time>
      </trkpt>
      <trkpt lat="45.40063" lon="5.59319">
        <ele>507</ele>
        <time>2026-05-25T11:35:27Z</time>
      </trkpt>
      <trkpt lat="45.40048" lon="5.59297">
        <ele>507</ele>
        <time>2026-05-25T11:35:32Z</time>
      </trkpt>
      <trkpt lat="45.40037" lon="5.59276">
        <ele>507</ele>
        <time>2026-05-25T11:35:36Z</time>
      </trkpt>
      <trkpt lat="45.40029" lon="5.59271">
        <ele>506</ele>
        <time>2026-05-25T11:35:38Z</time>
      </trkpt>
      <trkpt lat="45.40036" lon="5.59262">
        <ele>508</ele>
        <time>2026-05-25T11:35:41Z</time>
      </trkpt>
      <trkpt lat="45.40038" lon="5.59253">
        <ele>508</ele>
        <time>2026-05-25T11:35:42Z</time>
      </trkpt>
      <trkpt lat="45.40036" lon="5.59228">
        <ele>509</ele>
        <time>2026-05-25T11:35:46Z</time>
      </trkpt>
      <trkpt lat="45.40033" lon="5.59202">
        <ele>509</ele>
        <time>2026-05-25T11:35:51Z</time>
      </trkpt>
      <trkpt lat="45.40039" lon="5.59202">
        <ele>509</ele>
        <time>2026-05-25T11:35:52Z</time>
      </trkpt>
      <trkpt lat="45.40055" lon="5.5919">
        <ele>512</ele>
        <time>2026-05-25T11:35:56Z</time>
      </trkpt>
      <trkpt lat="45.40062" lon="5.5914">
        <ele>515</ele>
        <time>2026-05-25T11:36:05Z</time>
      </trkpt>
      <trkpt lat="45.40079" lon="5.59093">
        <ele>520</ele>
        <time>2026-05-25T11:36:13Z</time>
      </trkpt>
      <trkpt lat="45.40112" lon="5.59076">
        <ele>523</ele>
        <time>2026-05-25T11:36:21Z</time>
      </trkpt>
      <trkpt lat="45.40164" lon="5.59048">
        <ele>528</ele>
        <time>2026-05-25T11:36:34Z</time>
      </trkpt>
      <trkpt lat="45.40189" lon="5.59039">
        <ele>533</ele>
        <time>2026-05-25T11:36:40Z</time>
      </trkpt>
      <trkpt lat="45.40195" lon="5.59034">
        <ele>534</ele>
        <time>2026-05-25T11:36:42Z</time>
      </trkpt>
      <trkpt lat="45.40207" lon="5.59023">
        <ele>537</ele>
        <time>2026-05-25T11:36:45Z</time>
      </trkpt>
      <trkpt lat="45.40226" lon="5.58986">
        <ele>540</ele>
        <time>2026-05-25T11:36:53Z</time>
      </trkpt>
      <trkpt lat="45.40238" lon="5.58953">
        <ele>540</ele>
        <time>2026-05-25T11:36:59Z</time>
      </trkpt>
      <trkpt lat="45.40206" lon="5.58875">
        <ele>536</ele>
        <time>2026-05-25T11:37:14Z</time>
      </trkpt>
      <trkpt lat="45.4018" lon="5.58827">
        <ele>533</ele>
        <time>2026-05-25T11:37:24Z</time>
      </trkpt>
      <trkpt lat="45.40175" lon="5.58793">
        <ele>534</ele>
        <time>2026-05-25T11:37:29Z</time>
      </trkpt>
      <trkpt lat="45.40173" lon="5.58759">
        <ele>535</ele>
        <time>2026-05-25T11:37:35Z</time>
      </trkpt>
      <trkpt lat="45.40172" lon="5.58675">
        <ele>538</ele>
        <time>2026-05-25T11:37:49Z</time>
      </trkpt>
      <trkpt lat="45.40162" lon="5.58642">
        <ele>537</ele>
        <time>2026-05-25T11:37:55Z</time>
      </trkpt>
      <trkpt lat="45.40156" lon="5.58581">
        <ele>537</ele>
        <time>2026-05-25T11:38:05Z</time>
      </trkpt>
      <trkpt lat="45.40157" lon="5.58564">
        <ele>538</ele>
        <time>2026-05-25T11:38:08Z</time>
      </trkpt>
      <trkpt lat="45.40178" lon="5.58591">
        <ele>541</ele>
        <time>2026-05-25T11:38:14Z</time>
      </trkpt>
      <trkpt lat="45.40182" lon="5.58595">
        <ele>542</ele>
        <time>2026-05-25T11:38:15Z</time>
      </trkpt>
      <trkpt lat="45.40186" lon="5.58596">
        <ele>543</ele>
        <time>2026-05-25T11:38:16Z</time>
      </trkpt>
      <trkpt lat="45.40193" lon="5.58595">
        <ele>544</ele>
        <time>2026-05-25T11:38:18Z</time>
      </trkpt>
      <trkpt lat="45.40197" lon="5.58591">
        <ele>545</ele>
        <time>2026-05-25T11:38:19Z</time>
      </trkpt>
      <trkpt lat="45.402" lon="5.58586">
        <ele>546</ele>
        <time>2026-05-25T11:38:20Z</time>
      </trkpt>
      <trkpt lat="45.40202" lon="5.58577">
        <ele>546</ele>
        <time>2026-05-25T11:38:22Z</time>
      </trkpt>
      <trkpt lat="45.40202" lon="5.58561">
        <ele>547</ele>
        <time>2026-05-25T11:38:24Z</time>
      </trkpt>
      <trkpt lat="45.40201" lon="5.58539">
        <ele>548</ele>
        <time>2026-05-25T11:38:28Z</time>
      </trkpt>
      <trkpt lat="45.40205" lon="5.58374">
        <ele>549</ele>
        <time>2026-05-25T11:38:55Z</time>
      </trkpt>
      <trkpt lat="45.40207" lon="5.58354">
        <ele>548</ele>
        <time>2026-05-25T11:38:58Z</time>
      </trkpt>
      <trkpt lat="45.4021" lon="5.5834">
        <ele>548</ele>
        <time>2026-05-25T11:39:01Z</time>
      </trkpt>
      <trkpt lat="45.40216" lon="5.58327">
        <ele>548</ele>
        <time>2026-05-25T11:39:03Z</time>
      </trkpt>
      <trkpt lat="45.40222" lon="5.58315">
        <ele>549</ele>
        <time>2026-05-25T11:39:06Z</time>
      </trkpt>
      <trkpt lat="45.40229" lon="5.58305">
        <ele>550</ele>
        <time>2026-05-25T11:39:08Z</time>
      </trkpt>
      <trkpt lat="45.40266" lon="5.58267">
        <ele>554</ele>
        <time>2026-05-25T11:39:19Z</time>
      </trkpt>
      <trkpt lat="45.40283" lon="5.5825">
        <ele>556</ele>
        <time>2026-05-25T11:39:24Z</time>
      </trkpt>
      <trkpt lat="45.40301" lon="5.58238">
        <ele>559</ele>
        <time>2026-05-25T11:39:28Z</time>
      </trkpt>
      <trkpt lat="45.40324" lon="5.58222">
        <ele>562</ele>
        <time>2026-05-25T11:39:34Z</time>
      </trkpt>
      <trkpt lat="45.40348" lon="5.58205">
        <ele>565</ele>
        <time>2026-05-25T11:39:40Z</time>
      </trkpt>
      <trkpt lat="45.40356" lon="5.582">
        <ele>566</ele>
        <time>2026-05-25T11:39:42Z</time>
      </trkpt>
      <trkpt lat="45.40402" lon="5.58182">
        <ele>570</ele>
        <time>2026-05-25T11:39:54Z</time>
      </trkpt>
      <trkpt lat="45.40409" lon="5.5818">
        <ele>570</ele>
        <time>2026-05-25T11:39:55Z</time>
      </trkpt>
      <trkpt lat="45.40415" lon="5.5818">
        <ele>571</ele>
        <time>2026-05-25T11:39:57Z</time>
      </trkpt>
      <trkpt lat="45.4044" lon="5.58191">
        <ele>577</ele>
        <time>2026-05-25T11:40:03Z</time>
      </trkpt>
      <trkpt lat="45.40478" lon="5.58193">
        <ele>584</ele>
        <time>2026-05-25T11:40:12Z</time>
      </trkpt>
      <trkpt lat="45.40478" lon="5.58185">
        <ele>584</ele>
        <time>2026-05-25T11:40:13Z</time>
      </trkpt>
      <trkpt lat="45.40473" lon="5.58177">
        <ele>583</ele>
        <time>2026-05-25T11:40:15Z</time>
      </trkpt>
      <trkpt lat="45.40467" lon="5.58167">
        <ele>581</ele>
        <time>2026-05-25T11:40:17Z</time>
      </trkpt>
      <trkpt lat="45.40445" lon="5.58145">
        <ele>578</ele>
        <time>2026-05-25T11:40:23Z</time>
      </trkpt>
      <trkpt lat="45.40435" lon="5.5812">
        <ele>578</ele>
        <time>2026-05-25T11:40:28Z</time>
      </trkpt>
      <trkpt lat="45.40404" lon="5.58054">
        <ele>576</ele>
        <time>2026-05-25T11:40:41Z</time>
      </trkpt>
      <trkpt lat="45.40374" lon="5.58012">
        <ele>573</ele>
        <time>2026-05-25T11:40:51Z</time>
      </trkpt>
      <trkpt lat="45.40348" lon="5.57972">
        <ele>571</ele>
        <time>2026-05-25T11:41:00Z</time>
      </trkpt>
      <trkpt lat="45.4034" lon="5.5795">
        <ele>572</ele>
        <time>2026-05-25T11:41:04Z</time>
      </trkpt>
      <trkpt lat="45.40341" lon="5.57915">
        <ele>576</ele>
        <time>2026-05-25T11:41:09Z</time>
      </trkpt>
      <trkpt lat="45.40358" lon="5.57872">
        <ele>577</ele>
        <time>2026-05-25T11:41:18Z</time>
      </trkpt>
      <trkpt lat="45.40381" lon="5.57812">
        <ele>576</ele>
        <time>2026-05-25T11:41:29Z</time>
      </trkpt>
      <trkpt lat="45.40432" lon="5.57715">
        <ele>572</ele>
        <time>2026-05-25T11:41:49Z</time>
      </trkpt>
      <trkpt lat="45.40423" lon="5.57699">
        <ele>568</ele>
        <time>2026-05-25T11:41:52Z</time>
      </trkpt>
      <trkpt lat="45.40402" lon="5.57681">
        <ele>564</ele>
        <time>2026-05-25T11:41:58Z</time>
      </trkpt>
      <trkpt lat="45.40402" lon="5.5768">
        <ele>564</ele>
        <time>2026-05-25T11:41:58Z</time>
      </trkpt>
      <trkpt lat="45.40401" lon="5.57675">
        <ele>564</ele>
        <time>2026-05-25T11:41:59Z</time>
      </trkpt>
      <trkpt lat="45.40482" lon="5.57567">
        <ele>559</ele>
        <time>2026-05-25T11:42:25Z</time>
      </trkpt>
      <trkpt lat="45.40518" lon="5.5751">
        <ele>560</ele>
        <time>2026-05-25T11:42:37Z</time>
      </trkpt>
      <trkpt lat="45.40518" lon="5.57494">
        <ele>559</ele>
        <time>2026-05-25T11:42:40Z</time>
      </trkpt>
      <trkpt lat="45.4051" lon="5.57446">
        <ele>555</ele>
        <time>2026-05-25T11:42:48Z</time>
      </trkpt>
      <trkpt lat="45.4051" lon="5.57376">
        <ele>553</ele>
        <time>2026-05-25T11:42:59Z</time>
      </trkpt>
      <trkpt lat="45.40514" lon="5.57308">
        <ele>552</ele>
        <time>2026-05-25T11:43:11Z</time>
      </trkpt>
      <trkpt lat="45.40518" lon="5.57281">
        <ele>552</ele>
        <time>2026-05-25T11:43:15Z</time>
      </trkpt>
      <trkpt lat="45.40523" lon="5.57232">
        <ele>548</ele>
        <time>2026-05-25T11:43:23Z</time>
      </trkpt>
      <trkpt lat="45.40526" lon="5.57216">
        <ele>546</ele>
        <time>2026-05-25T11:43:26Z</time>
      </trkpt>
      <trkpt lat="45.40528" lon="5.57208">
        <ele>545</ele>
        <time>2026-05-25T11:43:27Z</time>
      </trkpt>
      <trkpt lat="45.40531" lon="5.572">
        <ele>544</ele>
        <time>2026-05-25T11:43:29Z</time>
      </trkpt>
      <trkpt lat="45.40537" lon="5.57192">
        <ele>544</ele>
        <time>2026-05-25T11:43:31Z</time>
      </trkpt>
      <trkpt lat="45.40546" lon="5.57181">
        <ele>544</ele>
        <time>2026-05-25T11:43:33Z</time>
      </trkpt>
      <trkpt lat="45.40559" lon="5.5717">
        <ele>544</ele>
        <time>2026-05-25T11:43:37Z</time>
      </trkpt>
      <trkpt lat="45.40584" lon="5.57163">
        <ele>546</ele>
        <time>2026-05-25T11:43:43Z</time>
      </trkpt>
      <trkpt lat="45.40606" lon="5.57163">
        <ele>547</ele>
        <time>2026-05-25T11:43:48Z</time>
      </trkpt>
      <trkpt lat="45.40625" lon="5.57154">
        <ele>547</ele>
        <time>2026-05-25T11:43:53Z</time>
      </trkpt>
      <trkpt lat="45.4063" lon="5.57145">
        <ele>546</ele>
        <time>2026-05-25T11:43:55Z</time>
      </trkpt>
      <trkpt lat="45.40634" lon="5.57133">
        <ele>545</ele>
        <time>2026-05-25T11:43:57Z</time>
      </trkpt>
      <trkpt lat="45.40637" lon="5.57122">
        <ele>544</ele>
        <time>2026-05-25T11:43:59Z</time>
      </trkpt>
      <trkpt lat="45.40638" lon="5.57118">
        <ele>544</ele>
        <time>2026-05-25T11:43:59Z</time>
      </trkpt>
      <trkpt lat="45.40639" lon="5.57108">
        <ele>542</ele>
        <time>2026-05-25T11:44:01Z</time>
      </trkpt>
      <trkpt lat="45.40637" lon="5.57097">
        <ele>541</ele>
        <time>2026-05-25T11:44:03Z</time>
      </trkpt>
      <trkpt lat="45.40634" lon="5.57088">
        <ele>539</ele>
        <time>2026-05-25T11:44:05Z</time>
      </trkpt>
      <trkpt lat="45.40626" lon="5.57076">
        <ele>536</ele>
        <time>2026-05-25T11:44:07Z</time>
      </trkpt>
      <trkpt lat="45.40617" lon="5.57063">
        <ele>534</ele>
        <time>2026-05-25T11:44:10Z</time>
      </trkpt>
      <trkpt lat="45.40617" lon="5.57035">
        <ele>531</ele>
        <time>2026-05-25T11:44:15Z</time>
      </trkpt>
      <trkpt lat="45.40618" lon="5.57013">
        <ele>529</ele>
        <time>2026-05-25T11:44:19Z</time>
      </trkpt>
      <trkpt lat="45.40624" lon="5.56973">
        <ele>525</ele>
        <time>2026-05-25T11:44:25Z</time>
      </trkpt>
      <trkpt lat="45.4062" lon="5.56932">
        <ele>519</ele>
        <time>2026-05-25T11:44:32Z</time>
      </trkpt>
      <trkpt lat="45.40618" lon="5.56921">
        <ele>517</ele>
        <time>2026-05-25T11:44:34Z</time>
      </trkpt>
      <trkpt lat="45.40613" lon="5.56907">
        <ele>515</ele>
        <time>2026-05-25T11:44:36Z</time>
      </trkpt>
      <trkpt lat="45.40608" lon="5.56897">
        <ele>513</ele>
        <time>2026-05-25T11:44:38Z</time>
      </trkpt>
      <trkpt lat="45.40619" lon="5.56877">
        <ele>513</ele>
        <time>2026-05-25T11:44:43Z</time>
      </trkpt>
      <trkpt lat="45.40627" lon="5.5687">
        <ele>514</ele>
        <time>2026-05-25T11:44:45Z</time>
      </trkpt>
      <trkpt lat="45.40639" lon="5.56837">
        <ele>511</ele>
        <time>2026-05-25T11:44:51Z</time>
      </trkpt>
      <trkpt lat="45.40644" lon="5.56827">
        <ele>511</ele>
        <time>2026-05-25T11:44:53Z</time>
      </trkpt>
      <trkpt lat="45.40679" lon="5.56754">
        <ele>504</ele>
        <time>2026-05-25T11:45:07Z</time>
      </trkpt>
      <trkpt lat="45.40694" lon="5.56715">
        <ele>501</ele>
        <time>2026-05-25T11:45:15Z</time>
      </trkpt>
      <trkpt lat="45.40695" lon="5.56675">
        <ele>497</ele>
        <time>2026-05-25T11:45:21Z</time>
      </trkpt>
      <trkpt lat="45.40695" lon="5.56607">
        <ele>494</ele>
        <time>2026-05-25T11:45:32Z</time>
      </trkpt>
      <trkpt lat="45.40699" lon="5.5656">
        <ele>493</ele>
        <time>2026-05-25T11:45:40Z</time>
      </trkpt>
      <trkpt lat="45.40718" lon="5.56501">
        <ele>493</ele>
        <time>2026-05-25T11:45:51Z</time>
      </trkpt>
      <trkpt lat="45.40739" lon="5.56453">
        <ele>492</ele>
        <time>2026-05-25T11:46:00Z</time>
      </trkpt>
      <trkpt lat="45.40748" lon="5.56448">
        <ele>492</ele>
        <time>2026-05-25T11:46:02Z</time>
      </trkpt>
      <trkpt lat="45.40837" lon="5.56305">
        <ele>490</ele>
        <time>2026-05-25T11:46:34Z</time>
      </trkpt>
      <trkpt lat="45.4085" lon="5.56276">
        <ele>490</ele>
        <time>2026-05-25T11:46:39Z</time>
      </trkpt>
      <trkpt lat="45.40888" lon="5.56218">
        <ele>488</ele>
        <time>2026-05-25T11:46:52Z</time>
      </trkpt>
      <trkpt lat="45.40891" lon="5.56217">
        <ele>488</ele>
        <time>2026-05-25T11:46:53Z</time>
      </trkpt>
      <trkpt lat="45.40904" lon="5.56219">
        <ele>489</ele>
        <time>2026-05-25T11:46:56Z</time>
      </trkpt>
      <trkpt lat="45.40958" lon="5.56162">
        <ele>486</ele>
        <time>2026-05-25T11:47:12Z</time>
      </trkpt>
      <trkpt lat="45.40966" lon="5.56165">
        <ele>486</ele>
        <time>2026-05-25T11:47:14Z</time>
      </trkpt>
      <trkpt lat="45.40982" lon="5.56196">
        <ele>487</ele>
        <time>2026-05-25T11:47:20Z</time>
      </trkpt>
      <trkpt lat="45.40985" lon="5.56194">
        <ele>487</ele>
        <time>2026-05-25T11:47:21Z</time>
      </trkpt>
      <trkpt lat="45.40988" lon="5.56191">
        <ele>487</ele>
        <time>2026-05-25T11:47:22Z</time>
      </trkpt>
      <trkpt lat="45.40987" lon="5.56188">
        <ele>487</ele>
        <time>2026-05-25T11:47:22Z</time>
      </trkpt>
      <trkpt lat="45.4097" lon="5.56153">
        <ele>485</ele>
        <time>2026-05-25T11:47:29Z</time>
      </trkpt>
      <trkpt lat="45.40962" lon="5.56133">
        <ele>483</ele>
        <time>2026-05-25T11:47:33Z</time>
      </trkpt>
      <trkpt lat="45.40958" lon="5.56117">
        <ele>482</ele>
        <time>2026-05-25T11:47:36Z</time>
      </trkpt>
      <trkpt lat="45.40961" lon="5.56093">
        <ele>480</ele>
        <time>2026-05-25T11:47:40Z</time>
      </trkpt>
      <trkpt lat="45.40962" lon="5.56087">
        <ele>479</ele>
        <time>2026-05-25T11:47:41Z</time>
      </trkpt>
      <trkpt lat="45.40956" lon="5.56066">
        <ele>479</ele>
        <time>2026-05-25T11:47:44Z</time>
      </trkpt>
      <trkpt lat="45.40952" lon="5.56058">
        <ele>479</ele>
        <time>2026-05-25T11:47:46Z</time>
      </trkpt>
      <trkpt lat="45.40966" lon="5.56044">
        <ele>480</ele>
        <time>2026-05-25T11:47:50Z</time>
      </trkpt>
      <trkpt lat="45.40963" lon="5.5601">
        <ele>480</ele>
        <time>2026-05-25T11:47:56Z</time>
      </trkpt>
      <trkpt lat="45.40981" lon="5.55961">
        <ele>482</ele>
        <time>2026-05-25T11:48:05Z</time>
      </trkpt>
      <trkpt lat="45.41036" lon="5.5591">
        <ele>482</ele>
        <time>2026-05-25T11:48:20Z</time>
      </trkpt>
      <trkpt lat="45.41057" lon="5.55881">
        <ele>481</ele>
        <time>2026-05-25T11:48:27Z</time>
      </trkpt>
      <trkpt lat="45.41076" lon="5.55831">
        <ele>479</ele>
        <time>2026-05-25T11:48:36Z</time>
      </trkpt>
      <trkpt lat="45.41032" lon="5.5573">
        <ele>478</ele>
        <time>2026-05-25T11:48:56Z</time>
      </trkpt>
      <trkpt lat="45.41035" lon="5.55725">
        <ele>477</ele>
        <time>2026-05-25T11:48:57Z</time>
      </trkpt>
      <trkpt lat="45.41039" lon="5.55713">
        <ele>477</ele>
        <time>2026-05-25T11:48:59Z</time>
      </trkpt>
      <trkpt lat="45.41048" lon="5.55713">
        <ele>476</ele>
        <time>2026-05-25T11:49:01Z</time>
      </trkpt>
      <trkpt lat="45.41055" lon="5.55712">
        <ele>476</ele>
        <time>2026-05-25T11:49:03Z</time>
      </trkpt>
      <trkpt lat="45.4106" lon="5.55699">
        <ele>475</ele>
        <time>2026-05-25T11:49:05Z</time>
      </trkpt>
      <trkpt lat="45.41063" lon="5.55695">
        <ele>475</ele>
        <time>2026-05-25T11:49:06Z</time>
      </trkpt>
      <trkpt lat="45.41152" lon="5.55593">
        <ele>472</ele>
        <time>2026-05-25T11:49:33Z</time>
      </trkpt>
      <trkpt lat="45.41163" lon="5.55576">
        <ele>472</ele>
        <time>2026-05-25T11:49:37Z</time>
      </trkpt>
      <trkpt lat="45.41165" lon="5.55572">
        <ele>472</ele>
        <time>2026-05-25T11:49:37Z</time>
      </trkpt>
      <trkpt lat="45.41168" lon="5.55567">
        <ele>472</ele>
        <time>2026-05-25T11:49:38Z</time>
      </trkpt>
      <trkpt lat="45.412" lon="5.55524">
        <ele>471</ele>
        <time>2026-05-25T11:49:49Z</time>
      </trkpt>
      <trkpt lat="45.41201" lon="5.55526">
        <ele>471</ele>
        <time>2026-05-25T11:49:49Z</time>
      </trkpt>
      <trkpt lat="45.41222" lon="5.55543">
        <ele>471</ele>
        <time>2026-05-25T11:49:55Z</time>
      </trkpt>
      <trkpt lat="45.41247" lon="5.55577">
        <ele>471</ele>
        <time>2026-05-25T11:50:03Z</time>
      </trkpt>
      <trkpt lat="45.41255" lon="5.55585">
        <ele>471</ele>
        <time>2026-05-25T11:50:05Z</time>
      </trkpt>
      <trkpt lat="45.41261" lon="5.55585">
        <ele>471</ele>
        <time>2026-05-25T11:50:07Z</time>
      </trkpt>
    </trkseg>
  </trk>
</gpx>